[[{"header":{"parameterUnit":"m.s-1","parameterCategory":1,"la1":30.6,"la2":28.766,"lo1":-90.7593,"lo2":-88.6598,"dy":0.0162,"dx":0.0183,"nx":116,"ny":114,"refTime":"2023-09-03T12:00:00:Z","depth":0,"parameterNumber":2,"parameterNumberName":"U-component_of_WINDS"},"data":[0.0,0.0,0.0,0.0,0.0,0.0,0.0,0.0,0.0,0.0,0.0,0.0,0.0,0.0,0.0,0.0,0.0,0.0,0.0,0.0,0.0,0.0,0.0,0.0,0.0,0.0,0.0,0.0,0.0,0.0,0.0,0.0,0.0,0.0,0.0,0.0,0.0,0.0,0.0,0.0,0.0,0.0,0.0,0.0,0.0,0.0,0.0,0.0,0.0,0.0,0.0,0.0,0.0,0.0,0.0,0.0,0.0,0.0,0.0,0.0,0.0,0.0,0.0,0.0,0.0,0.0,0.0,0.0,0.0,0.0,0.0,0.0,0.0,0.0,0.0,0.0,0.0,0.0,0.0,0.0,0.0,0.0,0.0,0.0,0.0,0.0,0.0,0.0,0.0,0.0,0.0,0.0,0.0,0.0,0.0,0.0,0.0,0.0,0.0,0.0,0.0,0.0,0.0,0.0,0.0,0.0,0.0,0.0,0.0,0.0,0.0,0.0,0.0,0.0,0.0,0.0,0.0,0.0,0.0,0.0,0.0,0.0,0.0,0.0,0.0,0.0,0.0,0.0,0.0,0.0,0.0,0.0,0.0,0.0,0.0,0.0,0.0,0.0,0.0,0.0,0.0,0.0,0.0,0.0,0.0,0.0,0.0,0.0,0.0,0.0,0.0,0.0,0.0,0.0,0.0,0.0,0.0,0.0,0.0,0.0,0.0,0.0,0.0,0.0,0.0,0.0,0.0,0.0,0.0,0.0,0.0,0.0,0.0,0.0,0.0,0.0,0.0,0.0,0.0,0.0,0.0,0.0,0.0,0.0,0.0,0.0,0.0,0.0,0.0,0.0,0.0,0.0,0.0,0.0,0.0,0.0,0.0,0.0,0.0,0.0,0.0,0.0,0.0,0.0,0.0,0.0,0.0,0.0,0.0,0.0,0.0,0.0,0.0,0.0,0.0,0.0,0.0,0.0,0.0,0.0,0.0,0.0,0.0,0.0,0.0,0.0,0.0,0.0,0.0,0.0,0.0,0.0,0.0,0.0,0.0,0.0,0.0,0.0,0.0,0.0,0.0,0.0,0.0,0.0,0.0,0.0,0.0,0.0,0.0,0.0,0.0,0.0,0.0,0.0,0.0,0.0,0.0,0.0,0.0,0.0,0.0,0.0,0.0,0.0,0.0,0.0,0.0,0.0,0.0,0.0,0.0,0.0,0.0,0.0,0.0,0.0,0.0,0.0,0.0,0.0,0.0,0.0,0.0,0.0,0.0,0.0,0.0,0.0,0.0,0.0,0.0,0.0,0.0,0.0,0.0,0.0,0.0,0.0,0.0,0.0,0.0,0.0,0.0,0.0,0.0,0.0,0.0,0.0,0.0,0.0,0.0,0.0,0.0,0.0,0.0,0.0,0.0,0.0,0.0,0.0,0.0,0.0,0.0,0.0,0.0,0.0,0.0,0.0,0.0,0.0,0.0,0.0,0.0,0.0,0.0,0.0,0.0,0.0,0.0,0.0,0.0,0.0,0.0,0.0,0.0,0.0,0.0,0.0,0.0,0.0,0.0,0.0,0.0,0.0,0.0,0.0,0.0,0.0,0.0,0.0,0.0,0.0,0.0,0.0,0.0,0.0,0.0,0.0,0.0,0.0,0.0,0.0,0.0,0.0,0.0,0.0,0.0,0.0,0.0,0.0,0.0,0.0,0.0,0.0,0.0,0.0,0.0,0.0,0.0,0.0,0.0,0.0,0.0,0.0,0.0,0.0,0.0,0.0,0.0,0.0,0.0,0.0,0.0,0.0,0.0,0.0,0.0,0.0,0.0,0.0,0.0,0.0,0.0,0.0,0.0,0.0,0.0,0.0,0.0,0.0,0.0,0.0,0.0,0.0,0.0,0.0,0.0,0.0,0.0,0.0,0.0,0.0,0.0,0.0,0.0,0.0,0.0,0.0,0.0,0.0,0.0,0.0,0.0,0.0,0.0,0.0,0.0,0.0,0.0,0.0,0.0,0.0,0.0,0.0,0.0,0.0,0.0,0.0,0.0,0.0,0.0,0.0,0.0,0.0,0.0,0.0,0.0,0.0,0.0,0.0,0.0,0.0,0.0,0.0,0.0,0.0,0.0,0.0,0.0,0.0,0.0,0.0,0.0,0.0,0.0,0.0,0.0,0.0,0.0,0.0,0.0,0.0,0.0,0.0,0.0,0.0,0.0,0.0,0.0,0.0,0.0,0.0,0.0,0.0,0.0,0.0,0.0,0.0,0.0,0.0,0.0,0.0,0.0,0.0,0.0,0.0,0.0,0.0,0.0,0.0,0.0,0.0,0.0,0.0,0.0,0.0,0.0,0.0,0.0,0.0,0.0,0.0,0.0,0.0,0.0,0.0,0.0,0.0,0.0,0.0,0.0,0.0,0.0,0.0,0.0,0.0,0.0,0.0,0.0,0.0,0.0,0.0,0.0,0.0,0.0,0.0,0.0,0.0,0.0,0.0,0.0,0.0,0.0,0.0,0.0,0.0,0.0,0.0,0.0,0.0,0.0,0.0,0.0,0.0,0.0,0.0,0.0,0.0,0.0,0.0,0.0,0.0,0.0,0.0,0.0,0.0,0.0,0.0,0.0,0.0,0.0,0.0,0.0,0.0,0.0,0.0,0.0,0.0,0.0,0.0,0.0,0.0,0.0,0.0,0.0,0.0,0.0,0.0,0.0,0.0,0.0,0.0,0.0,0.0,0.0,0.0,0.0,0.0,0.0,0.0,0.0,0.0,0.0,0.0,0.0,0.0,0.0,0.0,0.0,0.0,0.0,0.0,0.0,0.0,0.0,0.0,0.0,0.0,0.0,0.0,0.0,0.0,0.0,0.0,0.0,0.0,0.0,0.0,0.0,0.0,0.0,0.0,0.0,0.0,0.0,0.0,0.0,0.0,0.0,0.0,0.0,0.0,0.0,0.0,0.0,0.0,0.0,0.0,0.0,0.0,0.0,0.0,0.0,0.0,0.0,0.0,0.0,0.0,0.0,0.0,0.0,0.0,0.0,0.0,0.0,0.0,0.0,0.0,0.0,0.0,0.0,0.0,0.0,0.0,0.0,0.0,0.0,0.0,0.0,0.0,0.0,0.0,0.0,0.0,0.0,0.0,0.0,0.0,0.0,0.0,0.0,0.0,0.0,0.0,0.0,0.0,0.0,0.0,0.0,0.0,0.0,0.0,0.0,0.0,0.0,0.0,0.0,0.0,0.0,0.0,0.0,0.0,0.0,0.0,0.0,0.0,0.0,0.0,0.0,0.0,0.0,0.0,0.0,0.0,0.0,0.0,0.0,0.0,0.0,0.0,0.0,0.0,0.0,0.0,0.0,0.0,0.0,0.0,0.0,0.0,0.0,0.0,0.0,0.0,0.0,0.0,0.0,0.0,0.0,0.0,0.0,0.0,0.0,0.0,0.0,0.0,0.0,0.0,0.0,0.0,0.0,0.0,0.0,0.0,0.0,0.0,0.0,0.0,0.0,0.0,0.0,0.0,0.0,0.0,0.0,0.0,0.0,0.0,0.0,0.0,0.0,0.0,0.0,0.0,0.0,0.0,0.0,0.0,0.0,0.0,0.0,0.0,0.0,0.0,0.0,0.0,0.0,0.0,0.0,0.0,0.0,0.0,0.0,0.0,0.0,0.0,0.0,0.0,0.0,0.0,0.0,0.0,0.0,0.0,0.0,0.0,0.0,0.0,0.0,0.0,0.0,0.0,0.0,0.0,0.0,0.0,0.0,0.0,0.0,0.0,0.0,0.0,0.0,0.0,0.0,0.0,0.0,0.0,0.0,0.0,0.0,0.0,0.0,0.0,0.0,0.0,0.0,0.0,0.0,0.0,0.0,0.0,0.0,0.0,0.0,0.0,0.0,0.0,0.0,0.0,0.0,0.0,0.0,0.0,0.0,0.0,0.0,0.0,0.0,0.0,0.0,0.0,0.0,0.0,0.0,0.0,0.0,0.0,0.0,0.0,0.0,0.0,0.0,0.0,0.0,0.0,0.0,0.0,0.0,0.0,0.0,0.0,0.0,0.0,0.0,0.0,0.0,0.0,0.0,0.0,0.0,0.0,0.0,0.0,0.0,0.0,0.0,0.0,0.0,0.0,0.0,0.0,0.0,0.0,0.0,0.0,0.0,0.0,0.0,0.0,0.0,0.0,0.0,0.0,0.0,0.0,0.0,0.0,0.0,0.0,0.0,0.0,0.0,0.0,0.0,0.0,0.0,0.0,0.0,0.0,0.0,0.0,0.0,0.0,0.0,0.0,0.0,0.0,0.0,0.0,0.0,0.0,0.0,0.0,0.0,0.0,0.0,0.0,0.0,0.0,0.0,0.0,0.0,0.0,0.0,0.0,0.0,0.0,0.0,0.0,0.0,0.0,0.0,0.0,0.0,0.0,0.0,0.0,0.0,0.0,0.0,0.0,0.0,0.0,0.0,0.0,0.0,0.0,0.0,0.0,0.0,0.0,0.0,0.0,0.0,0.0,0.0,0.0,0.0,0.0,0.0,0.0,0.0,0.0,0.0,0.0,0.0,0.0,0.0,0.0,0.0,0.0,0.0,0.0,0.0,0.0,0.0,0.0,0.0,0.0,0.0,0.0,0.0,0.0,0.0,0.0,0.0,0.0,0.0,0.0,0.0,0.0,0.0,0.0,0.0,0.0,0.0,0.0,0.0,0.0,0.0,0.0,0.0,0.0,0.0,0.0,0.0,0.0,0.0,0.0,0.0,0.0,0.0,0.0,0.0,0.0,0.0,0.0,0.0,0.0,0.0,0.0,0.0,0.0,0.0,0.0,0.0,0.0,0.0,0.0,0.0,0.0,0.0,0.0,0.0,0.0,0.0,0.0,0.0,0.0,0.0,0.0,0.0,0.0,0.0,0.0,0.0,0.0,0.0,0.0,0.0,0.0,0.0,0.0,0.0,0.0,0.0,0.0,0.0,0.0,0.0,0.0,0.0,0.0,0.0,0.0,0.0,0.0,0.0,0.0,0.0,0.0,0.0,0.0,0.0,0.0,0.0,0.0,0.0,0.0,0.0,0.0,0.0,0.0,0.0,0.0,0.0,0.0,0.0,0.0,0.0,0.0,0.0,0.0,0.0,0.0,0.0,0.0,0.0,0.0,0.0,0.0,0.0,0.0,0.0,0.0,0.0,0.0,0.0,0.0,0.0,0.0,0.0,0.0,0.0,0.0,0.0,0.0,0.0,0.0,0.0,0.0,0.0,0.0,0.0,0.0,0.0,0.0,0.0,0.0,0.0,0.0,0.0,0.0,0.0,0.0,0.0,0.0,0.0,0.0,0.0,0.0,0.0,0.0,0.0,0.0,0.0,0.0,0.0,0.0,0.0,0.0,0.0,0.0,0.0,0.0,0.0,0.0,0.0,0.0,0.0,0.0,0.0,0.0,0.0,0.0,0.0,0.0,0.0,0.0,0.0,0.0,0.0,0.0,0.0,0.0,0.0,0.0,0.0,0.0,0.0,0.0,0.0,0.0,0.0,0.0,0.0,0.0,0.0,0.0,0.0,0.0,0.0,0.0,0.0,0.0,0.0,0.0,0.0,0.0,0.0,0.0,0.0,0.0,0.0,0.0,0.0,0.0,0.0,0.0,0.0,0.0,0.0,0.0,0.0,0.0,0.0,0.0,0.0,0.0,0.0,0.0,0.0,0.0,0.0,0.0,0.0,0.0,0.0,0.0,0.0,0.0,0.0,0.0,0.0,0.0,0.0,0.0,0.0,0.0,0.0,0.0,0.0,0.0,0.0,0.0,0.0,0.0,0.0,0.0,0.0,0.0,0.0,0.0,0.0,0.0,0.0,0.0,0.0,0.0,0.0,0.0,0.0,0.0,0.0,0.0,0.0,0.0,0.0,0.0,0.0,0.0,0.0,0.0,0.0,0.0,0.0,0.0,0.0,0.0,0.0,0.0,0.0,0.0,0.0,0.0,0.0,0.0,0.0,0.0,0.0,0.0,0.0,0.0,0.0,0.0,0.0,0.0,0.0,0.0,0.0,0.0,0.0,0.0,0.0,0.0,0.0,0.0,0.0,0.0,0.0,0.0,0.0,0.0,0.0,0.0,0.0,0.0,0.0,0.0,-2.5338,-2.5031,0.0,0.0,0.0,0.0,0.0,0.0,0.0,0.0,0.0,0.0,0.0,0.0,0.0,0.0,0.0,0.0,0.0,0.0,0.0,0.0,0.0,0.0,0.0,0.0,0.0,0.0,0.0,0.0,0.0,0.0,0.0,0.0,0.0,0.0,0.0,0.0,0.0,0.0,-3.0675,-3.0634,-3.0591,-3.0607,-3.0598,-3.0598,0.0,0.0,0.0,0.0,0.0,0.0,0.0,0.0,0.0,0.0,0.0,0.0,0.0,0.0,0.0,0.0,0.0,0.0,0.0,0.0,0.0,0.0,0.0,0.0,0.0,0.0,0.0,0.0,0.0,0.0,0.0,0.0,0.0,0.0,0.0,0.0,0.0,0.0,0.0,0.0,0.0,0.0,0.0,0.0,0.0,0.0,0.0,0.0,0.0,0.0,0.0,0.0,0.0,0.0,0.0,0.0,0.0,0.0,0.0,0.0,0.0,0.0,0.0,0.0,0.0,0.0,0.0,0.0,0.0,0.0,-2.6711,-2.6856,0.0,0.0,0.0,0.0,0.0,0.0,0.0,0.0,0.0,0.0,0.0,0.0,0.0,0.0,0.0,0.0,0.0,0.0,0.0,0.0,0.0,0.0,0.0,-3.08,-3.08,-3.08,-3.08,-3.08,0.0,0.0,0.0,0.0,0.0,0.0,0.0,-3.0799,-3.0761,-3.0672,-3.0689,-3.0655,-3.0606,-3.0606,-3.0607,-3.0593,-3.049,0.0,0.0,0.0,0.0,0.0,0.0,0.0,0.0,0.0,0.0,0.0,0.0,0.0,0.0,0.0,0.0,0.0,0.0,0.0,0.0,0.0,0.0,0.0,0.0,0.0,0.0,0.0,0.0,0.0,0.0,0.0,0.0,0.0,0.0,0.0,0.0,0.0,0.0,0.0,0.0,0.0,0.0,0.0,0.0,0.0,0.0,0.0,0.0,0.0,0.0,0.0,0.0,0.0,0.0,0.0,0.0,0.0,0.0,0.0,0.0,0.0,0.0,0.0,-2.7066,-2.6834,-2.6152,-2.6601,-2.6815,-2.6882,-2.8112,-2.8398,-2.7995,-2.8156,0.0,0.0,0.0,0.0,0.0,0.0,0.0,0.0,0.0,0.0,0.0,0.0,0.0,0.0,0.0,0.0,0.0,0.0,0.0,0.0,0.0,-3.08,-3.08,-3.08,-3.08,-3.08,-3.08,0.0,0.0,0.0,0.0,0.0,-3.08,-3.0792,-3.0739,-3.061,-3.0614,-3.0618,-3.0606,-3.0597,-3.0595,-3.0598,-3.0588,-3.0064,-2.9224,0.0,0.0,0.0,0.0,0.0,0.0,0.0,0.0,0.0,0.0,0.0,0.0,0.0,0.0,0.0,0.0,0.0,0.0,0.0,0.0,0.0,0.0,0.0,0.0,0.0,0.0,0.0,0.0,0.0,0.0,0.0,0.0,0.0,0.0,0.0,0.0,0.0,0.0,0.0,0.0,0.0,-2.7865,-2.7865,0.0,0.0,0.0,0.0,0.0,0.0,0.0,0.0,0.0,0.0,0.0,0.0,0.0,-2.6792,-2.6032,-2.6032,-2.5973,-2.5895,-2.7358,-2.7983,-2.7945,-3.0228,-3.1268,-3.1229,-3.0682,0.0,-2.7228,-2.7968,0.0,0.0,0.0,0.0,0.0,0.0,0.0,0.0,0.0,0.0,0.0,0.0,0.0,0.0,0.0,0.0,0.0,0.0,0.0,0.0,0.0,-3.08,-3.08,-3.08,-3.08,-3.08,-3.08,-3.08,0.0,0.0,0.0,-3.08,-3.0809,-3.0801,-3.0751,-3.0652,-3.0622,-3.0606,-3.0606,-3.06,-3.0597,-3.0598,-3.051,-3.0213,-2.9749,-2.9985,0.0,0.0,0.0,0.0,0.0,0.0,0.0,0.0,0.0,0.0,0.0,0.0,0.0,0.0,0.0,0.0,0.0,0.0,0.0,0.0,0.0,0.0,0.0,0.0,0.0,0.0,0.0,0.0,0.0,0.0,0.0,0.0,0.0,0.0,0.0,0.0,0.0,0.0,0.0,-2.7974,-2.8208,-2.8208,-2.8208,-2.8208,0.0,0.0,0.0,0.0,0.0,0.0,0.0,0.0,0.0,-2.8423,-2.8403,-2.8462,-2.8579,-2.8579,-2.8325,-2.7837,-2.8579,-2.8663,-2.8244,-2.9395,-3.0185,-3.0643,-3.074,-3.0448,-2.9824,-2.9216,-2.9268,-2.9708,0.0,0.0,0.0,0.0,-2.9662,-2.9602,0.0,0.0,0.0,0.0,0.0,0.0,0.0,0.0,0.0,0.0,0.0,0.0,-3.08,-3.08,-3.08,-3.08,-3.08,-3.0803,-3.0807,-3.0807,-3.0793,-3.08,-3.0801,-3.0798,-3.0767,-3.0769,-3.074,-3.0691,-3.0622,-3.0597,-3.0608,-3.0819,-3.0907,-3.0887,-3.0975,-3.063,-2.9973,-2.9962,-2.9815,-2.9612,0.0,0.0,0.0,0.0,0.0,0.0,0.0,0.0,0.0,0.0,0.0,0.0,0.0,0.0,0.0,0.0,0.0,0.0,0.0,0.0,0.0,0.0,0.0,0.0,0.0,0.0,0.0,0.0,0.0,0.0,0.0,0.0,0.0,0.0,0.0,0.0,0.0,-2.8717,-2.8873,-2.8873,-2.8873,-2.8873,0.0,0.0,0.0,0.0,0.0,0.0,-3.0492,-3.0295,-3.0061,-2.9847,-2.9827,-3.0139,-3.0782,-3.1016,-3.0918,-3.049,-3.0938,-3.0795,-3.0191,-3.064,-3.1199,-3.1801,-3.2016,-3.2487,-3.296,-3.1229,-3.0878,-3.1479,-3.1464,-3.1464,-3.1438,-3.1204,-3.1124,-3.1023,0.0,0.0,0.0,0.0,0.0,0.0,0.0,0.0,0.0,0.0,0.0,-3.08,-3.08,-3.08,-3.08,-3.08,-3.08,-3.0808,-3.0798,-3.0799,-3.0801,-3.0798,-3.0797,-3.0768,-3.0706,-3.0649,-3.0638,-3.0697,-3.063,-3.0604,-3.0622,-3.1441,-3.1763,-3.1677,-3.2372,-3.1334,-2.9104,-2.9801,-2.957,-2.8836,-2.9593,0.0,0.0,0.0,0.0,0.0,0.0,0.0,0.0,0.0,0.0,0.0,0.0,0.0,0.0,0.0,0.0,0.0,0.0,0.0,0.0,0.0,0.0,0.0,0.0,0.0,0.0,0.0,0.0,0.0,0.0,0.0,0.0,0.0,0.0,0.0,0.0,0.0,0.0,-3.0665,-3.0665,0.0,0.0,0.0,0.0,-3.1897,-3.1977,-3.2328,-3.3164,-3.2423,-3.1583,-3.0762,-3.0723,-3.0762,-3.0801,-3.1622,-3.2423,-3.3222,-3.4817,-3.556,-3.556,-3.7236,-3.8017,-3.7952,-3.6347,-3.5695,-3.5675,-3.3918,-3.3236,-3.3275,-3.3275,-3.3275,-3.3178,-3.2339,-3.2031,-3.1913,0.0,0.0,0.0,0.0,0.0,0.0,0.0,0.0,-3.08,-3.08,-3.08,-3.08,-3.08,-3.08,-3.08,-3.08,-3.08,-3.0808,-3.0799,-3.0799,-3.0801,-3.0805,-3.0804,-3.0767,-3.0708,-3.0688,-3.0648,-3.063,-3.118,-3.1418,-3.1386,-3.2182,-3.2519,-3.2473,-3.2608,-3.2164,-3.1298,-3.0947,-3.0278,-2.9499,-2.9783,-2.9897,0.0,0.0,0.0,0.0,0.0,0.0,0.0,0.0,0.0,0.0,0.0,0.0,0.0,0.0,0.0,0.0,0.0,0.0,0.0,0.0,0.0,0.0,0.0,0.0,0.0,0.0,0.0,0.0,0.0,0.0,0.0,0.0,0.0,0.0,0.0,0.0,0.0,-3.1503,-3.1103,0.0,-3.231,-3.2405,-3.231,-3.2057,-3.3075,-3.3345,-3.2541,-3.3264,-3.3544,-3.3199,-3.3176,-3.3446,-3.4001,-3.4335,-3.4661,-3.5015,-3.5616,-3.5908,-3.5928,-3.6532,-3.7125,-3.7625,-3.7018,-3.7064,-3.7563,-3.6937,-3.5399,-3.339,-3.34,-3.3402,-3.3352,-3.3059,-3.2945,-3.2889,0.0,0.0,0.0,0.0,0.0,0.0,0.0,0.0,-3.08,-3.08,-3.08,-3.08,-3.08,-3.08,-3.08,-3.08,-3.08,-3.079,-3.0801,-3.0801,-3.0797,-3.0801,-3.0773,-3.0888,-3.1131,-3.1129,-3.1231,-3.1483,-3.2036,-3.2271,-3.2256,-3.2989,-3.3462,-3.3704,-3.3525,-3.3424,-3.3325,-3.2422,-3.1374,-3.0332,-3.0332,-3.0162,-2.9897,0.0,0.0,0.0,0.0,0.0,0.0,0.0,0.0,0.0,0.0,0.0,0.0,0.0,0.0,0.0,0.0,0.0,0.0,0.0,0.0,0.0,0.0,0.0,0.0,0.0,0.0,0.0,0.0,0.0,0.0,0.0,0.0,0.0,0.0,-3.0367,-3.0481,-3.2269,-3.1926,-3.2104,-3.3556,-3.396,-3.4022,-3.3747,-3.4742,-3.501,-3.4171,-3.4929,-3.5379,-3.539,-3.5385,-3.5775,-3.6651,-3.6942,-3.7249,-3.7585,-3.7585,-3.7585,-3.7585,-3.7585,-3.7907,-3.8481,-3.8481,-3.8663,-3.8948,-3.8948,-3.7435,-3.5128,-3.5112,-3.5116,-3.5051,-3.4467,-3.4237,-3.4167,0.0,0.0,0.0,0.0,0.0,0.0,0.0,-3.08,-3.08,-3.08,-3.08,-3.08,-3.08,-3.08,-3.08,-3.0801,-3.0801,-3.0795,-3.0797,-3.0796,-3.0803,-3.0804,-3.0756,-3.115,-3.1984,-3.1953,-3.2361,-3.3192,-3.3156,-3.314,-3.3193,-3.3934,-3.4672,-3.5373,-3.5223,-3.5094,-3.4927,-3.4112,-3.2823,-3.1299,-3.1261,-3.0711,-2.9934,0.0,0.0,0.0,0.0,0.0,0.0,0.0,0.0,0.0,0.0,0.0,0.0,0.0,0.0,0.0,0.0,0.0,0.0,0.0,0.0,0.0,0.0,0.0,0.0,0.0,0.0,0.0,0.0,0.0,0.0,0.0,0.0,0.0,-3.1763,-3.1208,-3.1398,-3.3064,-3.3278,-3.3623,-3.4531,-3.539,-3.6205,-3.702,-3.7021,-3.7364,-3.8248,-3.7491,-3.7079,-3.7219,-3.7223,-3.7592,-3.8373,-3.9228,-4.0068,-4.0907,-4.0907,-4.0907,-4.0907,-4.0907,-4.0935,-4.0996,-4.0996,-4.057,-3.9844,-3.9844,-3.9334,-3.8575,-3.8519,-3.85,-3.8305,-3.659,-3.5951,-3.571,0.0,0.0,0.0,0.0,0.0,0.0,-3.0803,-3.08,-3.08,-3.08,-3.08,-3.08,-3.08,-3.08,-3.0806,-3.0796,-3.0797,-3.0801,-3.0804,-3.0801,-3.0807,-3.0804,-3.134,-3.1741,-3.1987,-3.2547,-3.2938,-3.3132,-3.3746,-3.4312,-3.4866,-3.5549,-3.6254,-3.6971,-3.6834,-3.6748,-3.6651,-3.5836,-3.487,-3.379,-3.2558,-3.1583,-3.0844,0.0,0.0,0.0,0.0,0.0,0.0,0.0,0.0,0.0,0.0,0.0,0.0,0.0,0.0,0.0,0.0,0.0,0.0,0.0,0.0,0.0,0.0,0.0,0.0,0.0,0.0,0.0,0.0,0.0,0.0,0.0,-3.235,-3.2914,-3.1805,-3.1934,-3.2843,-3.472,-3.4898,-3.5452,-3.6955,-3.7328,-3.7255,-3.6762,-3.7958,-3.8542,-3.8174,-3.9154,-3.9733,-3.9774,-3.9774,-3.9893,-4.0111,-4.0343,-4.0616,-4.0907,-4.0907,-4.0907,-4.0907,-4.0907,-4.0935,-4.0996,-4.0996,-4.0901,-4.0737,-4.0737,-4.0568,-4.0197,-3.8978,-3.85,-3.8441,-3.7954,-3.7393,-3.678,0.0,0.0,0.0,0.0,0.0,0.0,-3.0793,-3.0791,-3.0809,-3.0801,-3.08,-3.08,-3.08,-3.0807,-3.0794,-3.0799,-3.0801,-3.0798,-3.0795,-3.0801,-3.0951,-3.1293,-3.1741,-3.2336,-3.3033,-3.3481,-3.3858,-3.4187,-3.5037,-3.5633,-3.6022,-3.6715,-3.743,-3.8118,-3.7612,-3.7609,-3.7893,-3.7059,-3.6215,-3.5363,-3.4377,-3.307,-3.1659,-3.1318,-3.0882,-3.0408,-3.0029,-2.9897,-2.9897,-2.9897,0.0,0.0,0.0,0.0,0.0,0.0,0.0,0.0,0.0,0.0,0.0,0.0,0.0,0.0,0.0,0.0,0.0,0.0,0.0,0.0,0.0,0.0,0.0,0.0,-3.3508,-3.4176,-3.3605,-3.3651,-3.4436,-3.6305,-3.6497,-3.6997,-3.839,-3.8875,-3.8856,-3.8277,-3.9234,-3.9682,-3.9258,-4.0153,-4.0713,-4.0797,-4.0797,-4.0796,-4.0792,-4.0792,-4.0829,-4.0862,-4.0862,-4.0862,-4.0862,-4.0862,-4.0873,-4.0921,-4.0921,-4.0948,-4.1023,-4.1023,-4.1,-4.0902,0.0,0.0,0.0,0.0,-3.8494,-3.7737,0.0,0.0,0.0,0.0,0.0,0.0,-3.08,-3.08,-3.0797,-3.0806,-3.0801,-3.08,-3.08,-3.0795,-3.08,-3.08,-3.08,-3.081,-3.0809,-3.0795,-3.1159,-3.1956,-3.2085,-3.2877,-3.4453,-3.4521,-3.4923,-3.5684,-3.6483,-3.6845,-3.6822,-3.7574,-3.8273,-3.8833,-3.8039,-3.8064,-3.8652,-3.7874,-3.7078,-3.6339,-3.6244,-3.4737,-3.2482,-3.1753,-3.1355,-3.109,-3.0313,-2.9991,-2.9897,-2.9897,0.0,0.0,0.0,0.0,0.0,0.0,0.0,0.0,0.0,0.0,0.0,0.0,0.0,0.0,0.0,0.0,0.0,0.0,0.0,0.0,0.0,0.0,0.0,0.0,-3.4737,-3.559,-3.6377,-3.6051,-3.6291,-3.7759,-3.8008,-3.8361,-3.9152,-3.9961,-4.0454,-4.0488,-4.0488,-4.0559,-4.0752,-4.0614,0.0,0.0,0.0,-4.0797,-4.0797,-4.0797,-4.0797,-4.0797,-4.0797,-4.0797,-4.0797,-4.0797,-4.0788,-4.0807,-4.0807,-4.0839,-4.0907,-4.0907,-4.093,-4.0992,-4.1052,-4.1068,-4.0926,-4.0198,-3.9393,-3.8642,0.0,0.0,0.0,0.0,0.0,0.0,-3.0798,-3.0801,-3.0799,-3.0798,-3.0809,-3.08,-3.08,-3.0795,-3.08,-3.0799,-3.0809,-3.0807,-3.0795,-3.0745,-3.1106,-3.1968,-3.2617,-3.3415,-3.4405,-3.5093,-3.5468,-3.5534,-3.6344,-3.6978,-3.7436,-3.8288,-3.8699,-3.8769,-3.9201,-3.9153,-3.869,-3.8519,-3.795,-3.7116,-3.6472,-3.5078,-3.343,-3.3278,-3.2387,-3.1185,-3.1014,-3.0503,-2.9897,-2.9897,-2.9897,-2.9897,-2.9897,-2.9897,0.0,0.0,0.0,0.0,0.0,0.0,0.0,0.0,0.0,0.0,0.0,0.0,0.0,0.0,0.0,0.0,0.0,0.0,0.0,-3.5571,-3.6984,-3.8026,-3.8197,-3.8664,-3.8916,-3.8717,-3.9261,-3.9765,-4.0043,-4.0126,-4.0221,-4.0334,-4.0342,-4.0399,-4.0559,-4.0668,-4.0752,-4.0797,-4.0797,-4.0797,-4.0797,-4.0797,-4.0797,-4.0797,-4.0797,0.0,-4.0797,-4.0797,-4.0788,-4.0807,-4.0807,-4.0839,-4.0907,-4.0907,-4.0912,-4.0926,-4.0992,-4.1041,-4.1059,-4.0859,-4.0247,-3.9552,0.0,0.0,0.0,0.0,0.0,0.0,-3.0805,-3.0793,-3.0798,-3.08,-3.08,-3.0799,-3.0799,-3.08,-3.0795,-3.0808,-3.0807,-3.0798,-3.0745,-3.0716,-3.1271,-3.2547,-3.2997,-3.378,-3.5025,-3.5475,-3.5676,-3.5602,-3.6376,-3.6856,-3.708,-3.7878,-3.8185,-3.8064,-3.8471,-3.866,-3.8671,-3.8235,-3.7799,-3.7325,-3.6529,-3.5192,-3.3657,-3.3221,-3.2804,-3.2274,-3.1014,-3.0541,-3.0484,-3.0048,-2.9897,-2.9897,-2.9897,-2.9897,-2.9897,0.0,0.0,0.0,0.0,0.0,0.0,0.0,0.0,0.0,0.0,0.0,0.0,0.0,0.0,-3.379,0.0,0.0,-3.6443,-3.7306,-3.8159,-3.8841,-3.9248,-3.9654,-3.9781,-3.9428,-3.9761,-4.003,-4.0091,-4.0101,-4.0129,-4.0194,-4.0266,-4.0334,-4.0399,-4.0552,-4.0654,-4.0654,-4.0746,-4.0797,-4.0797,-4.0797,-4.0797,-4.0797,-4.0797,-4.0797,-4.0797,-4.0797,-4.0796,-4.08,-4.08,-4.0818,-4.0851,-4.0858,-4.0849,-4.0854,-4.0898,-4.0952,-4.1041,-4.1003,-4.0765,-4.0445,0.0,0.0,0.0,0.0,0.0,0.0,0.0,-3.0809,-3.0799,-3.0793,-3.0795,-3.0797,-3.0797,-3.0805,-3.0791,-3.0804,-3.0795,-3.0767,-3.0712,-3.0694,-3.1358,-3.2891,-3.2947,-3.3713,-3.5419,-3.5458,-3.5494,-3.5614,-3.6363,-3.663,-3.6466,-3.7211,-3.7424,-3.7173,-3.7344,-3.7704,-3.8178,-3.7628,-3.7306,-3.7116,-3.6472,-3.5287,-3.3847,-3.2975,-3.2899,-3.2975,-3.1071,-3.0591,-3.0774,-3.0074,-2.9847,-2.9847,-2.9847,-2.9864,-2.9934,-3.0105,-3.0143,0.0,0.0,0.0,0.0,0.0,0.0,0.0,0.0,0.0,-3.2937,-3.3107,-3.4339,-3.5438,-3.5609,-3.6727,-3.7931,-3.8784,-3.8936,-3.9153,-3.9805,-3.99,-3.99,-3.99,-3.99,-3.9911,-3.9943,-4.001,-4.0081,-4.012,-4.0212,-4.0274,-4.0309,-4.0399,-4.0462,-4.0503,-4.0661,-4.0752,-4.0797,-4.0797,-4.0797,-4.0797,-4.0797,-4.0797,-4.0797,-4.0797,-4.0797,-4.0797,-4.0797,-4.0797,-4.0797,-4.0792,-4.079,-4.079,-4.0801,-4.0864,-4.0952,-4.098,-4.1027,-4.1075,0.0,0.0,0.0,0.0,0.0,0.0,0.0,0.0,-3.0794,-3.0796,-3.079,-3.0797,-3.0797,-3.0805,-3.0803,-3.0791,-3.0745,-3.0737,-3.0794,-3.0678,-3.108,-3.2097,-3.2022,-3.2769,-3.451,-3.4549,-3.4812,-3.5352,-3.6136,-3.643,-3.6255,-3.7051,-3.7031,-3.6377,-3.7078,-3.7059,-3.6529,-3.7135,-3.7002,-3.6339,-3.6244,-3.5609,-3.468,-3.3866,-3.2691,-3.1553,-3.1962,-3.1108,-2.9748,-2.9673,-2.9635,-2.9635,-2.9635,-2.977,-3.0048,-3.0825,-3.1052,-3.1223,-3.2037,-3.2189,-3.2132,-3.2246,-3.2322,-3.2587,0.0,0.0,-3.4832,-3.5609,-3.6481,-3.7363,-3.814,-3.8424,-3.8822,-3.9635,-3.9767,-3.9805,-3.99,-3.99,-3.99,-3.99,-3.99,-3.9946,-4.008,-3.9969,-4.002,-4.0266,-4.0176,-4.0167,-4.0281,-4.0298,-4.0383,-4.0503,-4.0518,-4.0621,-4.0797,-4.0797,-4.0797,-4.0797,-4.0797,-4.0797,-4.0797,-4.0797,-4.0797,-4.0797,-4.0797,-4.0797,-4.0797,-4.0803,-4.0803,-4.079,-4.0809,-4.0818,-4.0833,-4.0898,-4.0943,-4.1,0.0,0.0,0.0,0.0,0.0,0.0,0.0,0.0,0.0,-3.0806,-3.0798,-3.0804,-3.0804,-3.0794,-3.08,-3.0801,-3.0772,-3.0756,-3.0736,-3.0694,-3.1018,-3.1857,-3.1835,-3.2372,-3.3615,-3.3634,-3.3975,-3.4653,-3.4908,-3.5226,-3.5569,-3.5818,-3.5761,-3.5457,-3.578,-3.6045,-3.6187,-3.6007,-3.5742,-3.5401,-3.4927,-3.4226,-3.3468,-3.3638,-3.2956,-3.1943,-3.2284,-3.222,0.0,-3.127,-3.112,-3.1204,-3.1101,-3.1195,-3.1431,-3.1791,-3.1905,0.0,-3.2303,-3.3107,-3.3847,0.0,-3.4245,-3.4832,-3.5666,-3.6102,-3.6462,-3.6832,-3.7571,-3.8273,-3.8633,-3.9077,-3.9513,-3.9843,-3.99,-3.99,-3.99,-3.99,-3.99,-3.99,-3.99,-3.9933,-3.9988,-3.9924,-3.9946,-4.007,-4.001,-4.0,-4.0051,-4.0148,-4.0203,-4.0266,-4.0342,-4.0466,-4.0621,-4.0621,-4.0674,-4.0797,-4.0797,-4.0797,-4.0797,-4.0797,-4.0797,-4.0797,-4.0797,-4.0797,-4.0797,-4.0797,-4.0797,-4.0797,-4.0808,-4.0794,-4.08,-4.0823,-4.0912,-4.0988,0.0,0.0,0.0,0.0,0.0,0.0,0.0,0.0,0.0,0.0,-3.0801,-3.0801,-3.0801,-3.0801,-3.0801,-3.0801,-3.0774,-3.0759,-3.0724,-3.0694,-3.0925,-3.1471,-3.1482,-3.1869,-3.272,-3.2739,-3.3087,-3.3814,-3.3714,-3.3903,-3.4359,-3.4253,-3.4207,-3.4207,-3.4207,-3.4567,-3.5116,-3.4472,-3.4207,-3.4188,-3.3847,-3.3316,-3.2861,-3.3714,-3.3638,-3.307,-3.2842,-3.2958,-3.3148,-3.2361,-3.2203,-3.2288,-3.2144,-3.2241,-3.2454,-3.2691,-3.2918,-3.3145,-3.3392,0.0,0.0,-3.5533,-3.6064,-3.6756,-3.7571,-3.7761,-3.7818,-3.8035,-3.8584,-3.902,-3.902,-3.9513,-3.99,-3.99,-3.99,-3.99,-3.99,-3.99,-3.99,-3.99,-3.99,-3.99,-3.99,-3.99,-3.99,-3.99,-3.99,-3.99,-3.99,-3.9979,-4.0051,-4.0101,-4.0194,-4.0309,-4.0439,-4.0469,-4.0574,-4.0713,-4.0765,-4.0797,-4.0797,-4.0797,-4.0797,-4.0797,-4.0797,-4.0797,-4.0797,-4.0797,-4.0797,-4.0797,-4.0797,-4.0797,-4.0803,-4.0806,-4.0863,-4.093,0.0,0.0,0.0,0.0,0.0,0.0,0.0,0.0,0.0,0.0,0.0,0.0,0.0,-3.0801,-3.0801,-3.0801,-3.0739,-3.0734,-3.0796,-3.0674,-3.0645,-3.0726,-3.0666,-3.1004,-3.1811,-3.1831,-3.2171,-3.2842,-3.2842,-3.2718,-3.2482,-3.2482,-3.2473,-3.2473,-3.2473,-3.2492,-3.2511,-3.2492,-3.2473,-3.2549,-3.3373,-3.3676,-3.3752,-3.4567,-3.4851,-3.4718,-3.3941,-3.3015,-3.2144,-3.2116,-3.2097,-3.2107,-3.2097,-3.2241,-3.2577,-3.3411,-3.4207,-3.5003,-3.5865,-3.613,-3.6358,-3.7135,-3.7344,-3.759,-3.8462,-3.8652,-3.8879,-3.9654,-3.9843,-3.9862,-3.9862,-3.9881,-3.99,-3.99,-3.99,-3.99,-3.99,-3.99,-3.99,-3.99,-3.99,-3.99,-3.99,-3.99,-3.99,-3.99,-3.99,-3.99,-3.99,-3.99,-3.9967,-4.0091,-4.0101,-4.0167,-4.029,-4.0431,-4.0511,-4.0511,-4.0707,-4.0797,-4.0797,-4.0797,-4.0797,-4.0797,-4.0797,-4.0797,-4.0797,-4.0797,-4.0797,-4.0797,-4.0797,-4.0797,-4.0797,-4.0797,-4.08,-4.0812,0.0,0.0,0.0,0.0,0.0,0.0,0.0,0.0,0.0,0.0,0.0,0.0,0.0,0.0,0.0,0.0,-3.0709,-3.0688,-3.0671,-3.063,-3.0621,-3.0628,-3.0616,-3.0733,-3.1004,-3.1004,-3.1303,-3.1947,-3.1947,-3.21,-3.2397,-3.2397,-3.2397,-3.2397,-3.2397,-3.2397,-3.2397,-3.2397,-3.2094,-3.1621,-3.1933,-3.2046,-3.2104,-3.2779,-3.3371,-3.3859,0.0,-3.4005,-3.3903,-3.3601,-3.3709,-3.3922,-3.3801,-3.3892,-3.4112,-3.4415,-3.5097,-3.5817,-3.613,-3.6585,-3.7211,-3.8045,-3.8254,-3.8481,-3.9304,-3.9513,-3.9559,-3.9843,-3.99,-3.99,-3.99,-3.99,-3.99,-3.99,-3.99,-3.99,-3.99,-3.99,-3.99,-3.99,-4.0412,-4.0544,-3.9957,-3.99,-3.99,-3.99,-3.99,-3.99,-3.99,-3.99,-3.9922,-3.9967,-3.9967,-4.003,-4.0177,-4.0203,-4.0317,-4.0511,-4.0707,-4.0797,-4.0797,-4.0797,-4.0797,-4.0797,-4.0797,-4.0797,-4.0797,-4.0797,-4.0797,-4.0797,-4.0797,-4.0797,-4.0797,-4.0797,-4.0809,-4.0808,0.0,0.0,0.0,0.0,0.0,0.0,0.0,0.0,0.0,0.0,0.0,0.0,0.0,0.0,0.0,0.0,0.0,-3.0685,-3.0634,-3.0614,-3.0593,-3.0606,-3.0607,-3.0598,-3.0598,-3.055,-3.0717,-3.1065,-3.1012,-3.1157,-3.1507,-3.1507,-3.1507,-3.1507,-3.1507,-3.1507,-3.1507,-3.1507,-3.1393,-3.1204,-3.1204,-3.1572,-3.2134,-3.2409,-3.3052,0.0,-3.3956,-3.4255,-3.4529,-3.4286,-3.4458,-3.4771,-3.4636,-3.474,-3.4965,-3.5268,-3.5761,-3.6339,-3.6927,-3.7476,-3.8064,-3.8906,-3.9134,-3.9267,-3.9786,-3.99,-3.99,-3.99,-3.9673,-3.957,-3.9843,-3.9673,-3.957,-3.9843,-3.99,-3.99,-3.99,-4.0165,-4.0355,-4.0355,-4.1113,-4.1416,-4.0847,-4.079,-4.0677,-4.0393,-4.062,-4.079,-4.079,-4.079,-4.0658,-4.0374,-4.0355,-4.0257,-4.003,-4.009,-4.0203,-4.0431,-4.0607,-4.07,-4.07,-4.0778,-4.0797,-4.0797,-4.0797,-4.0797,-4.0797,-4.0797,-4.0797,-4.0797,-4.0797,-4.0797,-4.0797,-4.0797,-4.0797,-4.0835,0.0,0.0,0.0,0.0,0.0,0.0,0.0,0.0,0.0,0.0,0.0,0.0,0.0,0.0,0.0,0.0,0.0,0.0,-3.0687,-3.0645,-3.0602,-3.0602,-3.0601,-3.0598,-3.0598,-3.0479,-3.0371,-3.0292,-3.0159,-3.0023,-2.9897,-2.9897,-2.9897,-2.9897,-2.9897,-2.9897,-2.9897,-2.9897,-3.0389,-3.1128,-3.1128,-3.2075,-3.3469,-3.3236,-3.365,-3.4297,-3.3802,-3.3737,-3.3932,-3.4111,0.0,-3.4612,-3.4604,-3.4751,-3.5078,-3.5931,-3.6225,-3.6623,-3.8254,-3.8727,-3.8936,-3.9711,-3.99,-3.99,-3.99,-3.9862,-3.9843,-3.9843,-3.9191,-3.8879,0.0,0.0,-3.8917,-3.9767,-3.9862,-3.9843,-3.99,-4.0639,-4.1188,0.0,0.0,0.0,0.0,0.0,-4.2192,-4.1378,-4.1984,-4.2401,-4.2401,-4.2401,-4.2041,-4.1283,-4.1207,-4.079,-3.9976,-4.0049,-4.0157,-4.03,-4.0423,-4.0496,-4.0503,-4.07,-4.0784,-4.079,-4.079,-4.0797,-4.0797,-4.0797,-4.0797,-4.0797,-4.0797,-4.0797,-4.0797,-4.0797,-4.0797,-4.0913,0.0,0.0,0.0,0.0,0.0,0.0,0.0,0.0,0.0,0.0,0.0,0.0,0.0,0.0,0.0,0.0,0.0,0.0,-3.0638,-3.0601,-3.0597,-3.0597,-3.0602,-3.0598,-3.0598,-3.0479,-3.0371,-3.0292,-3.0159,-3.0023,-2.9897,-2.9897,-2.9897,-2.9897,-2.9897,-2.9897,-2.9897,-2.9897,-3.0029,-3.0238,-3.0238,-3.0407,-3.0697,-3.1069,-3.124,-3.1359,-3.2256,-3.2569,-3.2697,0.0,0.0,0.0,0.0,-3.487,-3.5078,-3.5931,-3.6623,-3.7325,-3.8405,-3.9134,-3.9635,-3.9843,-3.99,-3.99,-3.99,-3.9437,-3.9012,-3.9012,-3.8329,-3.7988,0.0,0.0,0.0,-3.9654,-3.9399,0.0,-3.9824,-4.0639,0.0,-4.1188,0.0,-4.3114,-4.2469,-4.3531,-4.3929,-4.3114,-4.2647,-4.2401,-4.2401,-4.2401,-4.2306,-4.2098,-4.151,-4.1094,-4.0866,-4.0354,-4.012,-4.0139,-4.0292,-4.0359,-4.0359,-4.0503,-4.0574,-4.0581,-4.072,-4.0797,-4.0797,-4.0797,-4.0797,-4.0797,-4.0797,-4.0797,-4.0797,-4.0797,-4.0797,-4.0913,0.0,0.0,0.0,0.0,0.0,0.0,0.0,0.0,0.0,0.0,0.0,0.0,0.0,0.0,0.0,0.0,0.0,0.0,0.0,-3.0598,-3.0598,-3.0598,-3.0598,-3.0564,-3.0505,-3.04,-3.0305,-3.0219,-3.0087,-2.9969,-2.9897,-2.9897,-2.9897,-2.9897,-2.9897,-2.9897,-2.9897,-2.9897,-3.0124,0.0,0.0,-3.0273,-3.08,-3.0588,-3.0624,-3.0869,-3.1438,-3.1837,0.0,0.0,0.0,-3.4645,-3.484,-3.5116,-3.5559,-3.6452,0.0,-3.7928,-3.9157,-3.9606,-3.9799,-4.0092,-4.0034,-3.99,-3.99,-3.9286,-3.869,-3.869,-3.7723,-3.7249,-3.8462,-3.7704,-3.7542,0.0,0.0,0.0,-3.9786,-4.0639,-4.1321,0.0,-4.2886,0.0,-4.3512,-4.4345,-4.4706,-4.427,-4.3777,-4.3512,-4.3512,-4.3512,-4.3341,-4.2981,-4.2155,-4.1359,-4.0639,-4.0224,-4.001,-4.001,-4.0158,-4.0404,-4.0786,-4.0918,-4.1219,-4.164,-4.1772,-4.1847,-4.1874,-4.1487,-4.1332,-4.1293,-4.0951,-4.0797,-4.0797,-4.0797,-4.0797,-4.0855,0.0,0.0,0.0,0.0,0.0,0.0,0.0,0.0,0.0,0.0,0.0,0.0,0.0,0.0,0.0,0.0,0.0,0.0,0.0,0.0,-3.0598,-3.0598,-3.0588,-3.051,-3.0398,-3.033,-3.0226,-3.0101,-2.998,-2.9897,-2.9897,-2.9897,-2.9897,-2.9897,-2.9897,-2.9897,-2.9897,-2.9897,-3.0332,-3.0958,-3.02,-3.0734,-3.1845,0.0,-3.0713,-3.1209,-3.0866,0.0,0.0,0.0,-3.4139,-3.4583,-3.484,-3.5427,-3.6197,-3.7103,-3.7721,-3.8428,-3.993,-3.992,-3.9615,-4.0205,-4.004,-3.9743,-3.9694,-3.9031,-3.8418,-3.8355,0.0,-3.6528,-3.8216,-3.7249,-3.7011,-3.9502,0.0,-3.8993,-3.9786,-4.0639,-4.1503,-4.2287,-4.317,-4.4023,-4.4819,-4.4895,-4.4895,-4.4895,-4.4895,-4.4895,-4.4895,-4.4895,-4.4535,-4.3739,-4.2848,-4.1643,-4.0089,-3.9957,-3.99,-3.99,-4.0153,-4.0633,-4.1386,-4.1628,-4.2197,-4.3028,-4.3044,-4.3135,-4.318,-4.2447,-4.2144,-4.2067,-4.1274,-4.0971,-4.0951,-4.0835,-4.0797,-4.0816,0.0,0.0,0.0,0.0,0.0,0.0,0.0,0.0,0.0,0.0,-3.0294,-3.0409,0.0,0.0,0.0,0.0,0.0,0.0,0.0,0.0,0.0,-3.0598,-3.0495,-3.0414,-3.0398,-3.0241,-3.0123,-3.0101,-2.998,-2.9897,-2.9897,-2.9897,-2.9897,-2.9897,-2.9897,-2.9897,-2.9897,-2.9897,-2.9991,-3.0105,-2.9953,-2.9841,-2.9725,-2.95,0.0,0.0,0.0,0.0,0.0,0.0,-3.3438,-3.4351,-3.4772,-3.5486,-3.6308,-3.702,-3.7862,-3.8716,-3.9345,-3.9419,-3.9351,-3.9474,-3.9248,-3.8923,-3.865,-3.7783,0.0,0.0,-3.5716,-3.5567,-3.7304,-3.6851,-3.7011,-3.9502,-3.921,-3.8993,-3.9786,-4.0639,-4.1503,0.0,-4.317,-4.4023,-4.4819,-4.4895,0.0,-4.4895,-4.4895,-4.4895,-4.4895,-4.4895,-4.4535,-4.3739,-4.2848,-4.1927,-4.098,-4.026,-3.99,-3.9919,-4.0653,-4.1081,-4.1263,-4.2062,-4.2525,-4.2698,-4.2794,-4.2868,-4.2885,-4.2895,-4.2923,-4.2834,-4.2085,-4.1796,-4.1699,-4.1048,-4.0797,-4.0893,0.0,0.0,0.0,0.0,0.0,0.0,0.0,-2.8905,-2.9031,-2.9372,-2.9505,-2.9748,-3.0246,-3.0248,-3.0222,0.0,0.0,0.0,0.0,0.0,0.0,0.0,0.0,0.0,-3.0248,-3.014,-3.0072,-3.0003,0.0,-2.9897,-2.9897,-2.9897,-2.9897,-2.9888,-2.9796,-2.9742,-2.9734,-2.9635,-2.9653,-2.9742,-2.9742,-2.9617,-2.9387,0.0,0.0,0.0,0.0,0.0,0.0,0.0,-3.2873,-3.3561,-3.4381,-3.5203,-3.6028,-3.6726,-3.743,-3.8165,-3.9099,-3.9084,-3.8869,-3.9261,-3.8843,-3.8265,-3.8,0.0,0.0,0.0,-3.5241,-3.5298,-3.6939,-3.6675,0.0,-3.9388,-3.9123,-3.8899,-3.9775,-4.0197,0.0,-4.1662,-4.2507,-4.336,-4.4194,-4.4649,-4.4858,-4.4796,-4.4802,-4.4821,-4.4895,-4.4895,-4.4535,-4.3739,-4.3303,-4.2678,-4.1832,-4.1416,-4.1188,-4.1207,-4.1624,-4.2071,-4.2526,-4.2967,-4.3455,-4.3952,-4.4025,-4.4087,-4.4125,-4.3777,-4.3611,-4.3543,-4.2736,-4.2202,-4.1856,-4.1451,-4.1113,-4.0855,0.0,0.0,0.0,0.0,0.0,0.0,0.0,-2.7682,-2.7884,-2.8455,-2.8524,-2.8865,-2.9777,-2.9994,-3.0092,0.0,0.0,0.0,0.0,0.0,0.0,0.0,0.0,0.0,0.0,0.0,0.0,-2.9897,-2.9897,0.0,0.0,0.0,0.0,0.0,-2.9662,-2.9542,-2.9494,-2.9316,-2.9346,0.0,0.0,-2.9456,0.0,0.0,0.0,0.0,0.0,0.0,0.0,0.0,-3.2145,-3.2739,-3.363,-3.4691,-3.5695,-3.6242,-3.6856,-3.7574,-3.8578,-3.8449,-3.8152,-3.8726,-3.8096,-3.7276,-3.704,-3.6226,0.0,0.0,-3.4827,-3.5068,-3.6714,-3.6584,-3.6985,0.0,-3.9096,-3.8931,-3.9698,-3.9717,-4.0014,0.0,-4.1668,0.0,-4.3503,-4.4184,0.0,-4.4653,-4.4659,-4.4712,-4.4815,-4.4808,-4.4525,-4.39,-4.3736,-4.3331,-4.265,-4.2484,-4.2401,-4.2401,-4.2602,-4.3038,-4.3701,-4.3848,-4.4367,-4.5136,-4.5114,-4.5173,-4.5244,-4.4604,-4.4327,-4.426,-4.3407,-4.2646,-4.2016,-4.1824,-4.133,-4.0759,0.0,0.0,0.0,0.0,0.0,0.0,0.0,-2.7616,-2.7601,-2.7628,-2.7621,-2.7929,-2.8753,-2.9485,-2.9921,0.0,0.0,0.0,0.0,0.0,0.0,0.0,0.0,0.0,0.0,0.0,0.0,-2.9897,-2.9897,0.0,0.0,0.0,0.0,0.0,0.0,-2.9416,-2.923,-2.9158,0.0,0.0,0.0,0.0,0.0,0.0,0.0,0.0,0.0,0.0,0.0,0.0,0.0,-3.218,-3.2355,-3.3839,-3.5497,-3.5441,0.0,0.0,-3.7196,-3.7114,-3.7124,-3.712,-3.6274,-3.538,-3.5126,0.0,0.0,-3.3963,-3.3837,-3.441,-3.6366,-3.6495,-3.6996,-3.9177,-3.9301,-3.9231,-3.9495,-3.9539,-3.9858,-4.0729,0.0,0.0,-4.3184,-4.3391,-4.3748,-4.4453,-4.4528,-4.451,-4.4542,-4.4542,-4.4505,-4.443,-4.3836,-4.3479,-4.3404,-4.2721,-4.2401,-4.2401,-4.3208,-4.3625,-4.372,-4.4336,-4.4707,-4.4919,-4.4796,-4.4821,-4.4948,-4.5052,-4.5099,-4.5025,-4.4269,-4.3511,-4.2696,-4.192,-4.116,-4.0641,0.0,0.0,0.0,0.0,0.0,0.0,-2.6098,-2.6104,-2.6256,-2.6728,-2.6778,-2.7087,-2.7885,-2.8703,-2.9366,-2.9859,0.0,0.0,0.0,0.0,0.0,0.0,0.0,0.0,0.0,0.0,-2.9897,-2.9897,-2.9866,0.0,0.0,0.0,0.0,0.0,0.0,-2.9023,-2.8959,-2.8767,0.0,0.0,0.0,0.0,0.0,0.0,0.0,0.0,0.0,0.0,0.0,0.0,0.0,0.0,-3.1978,-3.3047,0.0,0.0,-3.5192,-3.57,-3.5845,-3.5905,-3.5921,-3.5871,-3.5297,-3.4648,-3.4425,0.0,-3.3826,-3.3477,-3.357,-3.4077,-3.5335,-3.5956,-3.6776,-3.8242,-3.8821,0.0,-3.9458,0.0,-3.9527,-3.9971,-4.0484,0.0,0.0,0.0,-4.3605,-4.4331,-4.4266,-4.4188,-4.4188,-4.4383,-4.4501,-4.4501,-4.4237,-4.4148,-4.4208,-4.3843,-4.3699,-4.3775,-4.3561,-4.3466,-4.3447,-4.3188,-4.3395,-4.3937,-4.3963,-4.4279,-4.4783,-4.4943,-4.5014,-4.4995,-4.4703,-4.3819,-4.267,-4.2335,-4.1416,-4.0422,0.0,0.0,0.0,0.0,0.0,-2.4914,-2.4924,-2.4917,-2.5104,-2.5649,-2.578,-2.6124,-2.6934,-2.7589,-2.8381,-2.9461,-2.9764,0.0,0.0,0.0,0.0,0.0,0.0,0.0,0.0,0.0,-2.9707,-2.9662,-2.9645,-2.9551,0.0,0.0,-2.9293,-2.9097,0.0,0.0,0.0,0.0,0.0,0.0,0.0,0.0,0.0,0.0,0.0,0.0,0.0,0.0,0.0,0.0,0.0,0.0,0.0,0.0,0.0,0.0,-3.4186,-3.4381,-3.4755,-3.4865,-3.4865,-3.4865,-3.4408,-3.393,0.0,0.0,-3.3342,-3.3144,-3.3302,-3.3712,-3.4553,-3.5221,-3.6091,-3.7409,-3.8087,-3.8664,-3.9221,-3.9272,0.0,0.0,0.0,-4.0993,-4.1804,-4.2871,-4.3693,-4.417,-4.4067,-4.4005,-4.4005,-4.4218,-4.4354,-4.4354,-4.4416,-4.4501,-4.4578,-4.4542,-4.4556,-4.4627,-4.3743,-4.3294,-4.3275,-4.2366,-4.2441,-4.3308,-4.3342,-4.3873,-4.4712,-4.4796,-4.4858,-4.4895,-4.4895,-4.3923,-4.2533,-4.2533,-4.1551,-4.0239,0.0,0.0,0.0,0.0,0.0,0.0,-2.4512,-2.4451,-2.4407,-2.4425,-2.4586,-2.5027,-2.5823,-2.6103,-2.6892,-2.857,-2.9442,0.0,0.0,0.0,0.0,0.0,0.0,0.0,0.0,0.0,-2.9233,-2.9097,-2.9169,-2.9158,-2.9115,-2.9097,-2.8963,-2.8694,0.0,0.0,0.0,0.0,0.0,0.0,0.0,0.0,0.0,0.0,0.0,0.0,0.0,0.0,0.0,0.0,0.0,0.0,0.0,0.0,0.0,0.0,-3.3647,-3.4097,-3.4115,-3.4099,-3.4099,-3.4099,-3.3508,-3.2918,0.0,-3.29,-3.2916,-3.29,-3.2916,-3.3245,-3.4305,-3.4293,-3.4796,-3.6877,-3.721,-3.7595,-3.8648,-3.8993,0.0,0.0,0.0,-4.0731,-4.153,-4.3039,-4.3986,-4.4005,-4.4005,-4.4005,-4.4005,-4.4005,-4.4005,-4.4005,-4.4192,-4.43,-4.43,-4.443,-4.4501,-4.4482,-4.3688,-4.3294,-4.3275,-4.2258,-4.2347,-4.3294,-4.31,-4.3647,-4.4712,-4.4712,-4.477,-4.4895,-4.4895,-4.3891,-4.2412,-4.2412,-4.1442,-4.0101,0.0,0.0,0.0,0.0,0.0,0.0,0.0,-2.4407,-2.4398,-2.4398,-2.4468,-2.4595,-2.4856,-2.5464,-2.6068,-2.6592,-2.8137,0.0,0.0,0.0,0.0,0.0,0.0,0.0,0.0,0.0,-2.9198,-2.9097,-2.9031,-2.8941,-2.8819,-2.8779,-2.8663,-2.8487,-2.8422,-2.8362,0.0,0.0,0.0,0.0,0.0,0.0,0.0,0.0,0.0,0.0,0.0,0.0,0.0,0.0,0.0,0.0,0.0,0.0,0.0,-3.2729,0.0,0.0,-3.3293,-3.3293,-3.3293,-3.3293,-3.3096,-3.29,-3.29,-3.29,-3.29,-3.29,-3.29,-3.3003,-3.3333,-3.3788,-3.4373,-3.5209,-3.6391,-3.7378,0.0,0.0,0.0,-3.8892,-3.9458,-4.0173,-4.0983,-4.2009,-4.316,-4.445,-4.4044,-4.4071,-4.4859,-4.4321,-4.4005,-4.4005,-4.4051,-4.4162,-4.43,-4.4207,-4.4237,-4.434,-4.3415,-4.2667,-4.2122,-4.1227,-4.1315,-4.2141,-4.216,-4.303,-4.4426,-4.4542,-4.4578,-4.4576,-4.4011,-4.3177,-4.2195,-4.1659,-4.0814,-3.9967,0.0,0.0,0.0,0.0,0.0,0.0,0.0,-2.4164,-2.4164,-2.4164,-2.4238,-2.4284,-2.4284,-2.4827,-2.5335,-2.5679,-2.7105,0.0,0.0,0.0,0.0,0.0,0.0,0.0,-2.8855,-2.8885,-2.885,-2.8761,-2.87,-2.8627,-2.8502,-2.8466,-2.8393,-2.8318,-2.8146,-2.8059,0.0,0.0,0.0,0.0,0.0,0.0,-2.7792,0.0,0.0,0.0,0.0,0.0,0.0,0.0,0.0,0.0,0.0,0.0,0.0,0.0,-3.29,-3.29,0.0,-3.29,-3.29,-3.29,-3.29,0.0,-3.29,-3.29,-3.29,-3.29,-3.29,-3.29,-3.29,-3.3311,-3.3806,-3.4271,-3.5607,-3.6752,0.0,0.0,0.0,-3.9074,0.0,0.0,-4.0714,-4.1243,-4.2041,-4.3203,-4.2835,-4.2848,-4.3564,-4.3183,-4.2952,-4.2952,-4.3624,-4.4051,-4.4177,-4.4067,-4.4067,-4.4158,-4.2951,-4.2073,-4.1553,-4.042,-4.0531,-4.1605,-4.1688,-4.2692,0.0,-4.4387,-4.4458,-4.4444,-4.3951,-4.3104,-4.2059,-4.1563,-4.0688,-3.9747,0.0,0.0,0.0,0.0,0.0,0.0,0.0,-2.3806,-2.3806,-2.3806,-2.3951,-2.4087,-2.4087,-2.4247,-2.4679,-2.5485,0.0,0.0,0.0,0.0,0.0,0.0,0.0,0.0,-2.8313,-2.8353,-2.8331,-2.8196,-2.8259,-2.8246,-2.8196,-2.8196,-2.8182,-2.8154,-2.785,-2.7686,-2.7639,-2.7338,-2.7197,-2.7197,-2.7197,-2.7197,0.0,0.0,0.0,0.0,0.0,0.0,0.0,0.0,0.0,0.0,0.0,0.0,0.0,0.0,0.0,0.0,0.0,-3.29,0.0,0.0,0.0,0.0,-3.29,-3.29,0.0,-3.29,-3.29,-3.29,-3.29,-3.29,-3.315,-3.3901,-3.4864,0.0,0.0,-3.7675,0.0,0.0,-3.9496,-3.9788,-4.0645,-4.0698,-4.0716,-4.0843,-4.0788,-4.0805,-4.0877,-4.1073,-4.1167,-4.1167,-4.2865,-4.3788,-4.3838,-4.3804,-4.3804,-4.3819,-4.2314,-4.159,-4.1553,-3.9918,-4.0067,-4.159,-4.1534,-4.2515,-4.4192,-4.4192,-4.4302,-4.4454,-4.4398,-4.3436,-4.2074,-4.1942,-4.091,-3.9577,0.0,0.0,0.0,0.0,0.0,0.0,0.0,0.0,0.0,0.0,-2.3847,-2.3878,-2.3878,-2.3901,-2.4014,0.0,0.0,0.0,0.0,0.0,0.0,0.0,0.0,0.0,-2.83,-2.8313,-2.8273,-2.8196,-2.8209,-2.8209,-2.8196,-2.8196,-2.8053,-2.7803,-2.773,-2.7567,-2.7307,-2.7228,-2.7197,-2.7197,-2.7197,-2.7197,0.0,0.0,0.0,0.0,-2.6521,-2.6657,0.0,0.0,0.0,0.0,0.0,0.0,0.0,0.0,-3.2012,-3.2505,-3.282,0.0,-3.29,-3.29,-3.29,-3.29,0.0,-3.29,-3.29,-3.29,0.0,-3.29,-3.29,-3.29,-3.2953,-3.315,0.0,-3.502,-3.578,0.0,0.0,-3.8923,-3.8438,-3.86,-3.9982,-3.9605,-3.9877,-4.1288,-4.0836,-4.0853,-4.1662,-4.12,-4.0904,-4.0904,-4.1321,-4.1754,-4.2166,-4.1961,-4.1961,-4.2166,-4.1776,-4.159,-4.1571,-4.055,-4.0643,-4.1571,-4.0954,-4.1619,-4.3155,-4.3155,-4.3524,-4.4057,-4.3439,-4.3013,-4.2609,-4.1389,-4.0744,-4.0403,0.0,0.0,0.0,0.0,0.0,0.0,0.0,0.0,0.0,0.0,0.0,-2.3535,-2.3653,-2.3657,0.0,0.0,0.0,0.0,0.0,0.0,0.0,0.0,0.0,-2.8291,-2.8246,-2.8246,-2.815,-2.7965,-2.7965,-2.7965,-2.7982,-2.7806,-2.7733,-2.7686,-2.7382,-2.7052,-2.6742,-2.6742,-2.6742,-2.6742,-2.6742,0.0,0.0,0.0,0.0,0.0,-2.6274,-2.6434,0.0,-2.6691,-2.6923,-2.7335,0.0,0.0,0.0,0.0,-3.172,-3.2386,-3.2786,-3.29,-3.29,-3.29,-3.29,-3.29,-3.29,0.0,0.0,0.0,0.0,0.0,0.0,0.0,0.0,0.0,-3.3707,0.0,0.0,0.0,-3.7918,-3.8202,-3.788,-3.7934,-3.8754,-3.8487,-3.8687,-3.9696,-3.9373,-3.9374,-3.995,-3.9692,-3.9524,-3.9524,-3.9524,-4.0055,-4.1214,-4.1087,-4.1087,-4.123,-4.1357,-4.1157,-4.0677,-4.0481,-4.0766,-4.1385,-4.1082,-4.185,-4.3355,-4.3355,-4.3615,-4.3968,-4.3522,-4.3159,-4.2805,-4.193,-4.1185,-4.0614,0.0,0.0,0.0,0.0,0.0,0.0,0.0,0.0,0.0,0.0,0.0,0.0,0.0,0.0,0.0,0.0,0.0,0.0,0.0,0.0,0.0,0.0,-2.8122,-2.8126,-2.8126,-2.8067,-2.7908,-2.7609,-2.7609,-2.7609,-2.7627,-2.7338,-2.7322,-2.7519,-2.6907,-2.6469,-2.6202,-2.6202,-2.6202,-2.6202,-2.6202,0.0,0.0,0.0,0.0,0.0,0.0,0.0,0.0,-2.6607,-2.6808,-2.7173,-2.7858,0.0,0.0,0.0,0.0,0.0,-3.2688,-3.2753,-3.2753,-3.2868,-3.29,-3.29,-3.29,0.0,0.0,0.0,0.0,0.0,0.0,-3.29,0.0,0.0,0.0,0.0,-3.6024,-3.7006,-3.7648,-3.7773,-3.7684,-3.7648,-3.7773,-3.7684,-3.7595,-3.7595,-3.7595,-3.7595,-3.7595,-3.7828,-3.8004,-3.813,-3.813,-3.8938,-4.0649,-4.0591,-4.0571,-4.0621,-4.0948,-4.0712,-3.9966,-4.029,-4.0754,-4.1319,-4.1431,-4.2319,-4.3691,-4.3722,-4.3831,-4.3939,-4.3971,-4.3578,-4.2965,-4.2853,-4.1943,-4.0861,0.0,0.0,0.0,0.0,0.0,0.0,0.0,0.0,0.0,0.0,0.0,0.0,0.0,0.0,0.0,0.0,0.0,0.0,0.0,0.0,0.0,-2.7369,-2.7627,-2.7774,-2.7774,-2.7491,-2.7322,-2.7276,-2.7276,-2.7276,-2.7276,-2.7228,-2.7085,-2.6841,-2.6452,-2.6257,-2.6202,-2.6202,-2.6202,-2.6202,-2.6202,0.0,0.0,0.0,0.0,0.0,0.0,0.0,0.0,-2.6274,-2.6311,-2.6379,-2.6497,0.0,0.0,0.0,0.0,0.0,-3.2179,-3.2144,-3.2039,-3.2737,-3.29,-3.29,-3.29,0.0,0.0,0.0,0.0,0.0,0.0,-3.29,-3.29,0.0,0.0,-3.5097,0.0,-3.6649,-3.7844,-3.854,-3.8005,-3.788,-3.8558,-3.7987,-3.7595,-3.7595,-3.7595,-3.7595,-3.7595,-3.7631,-3.7971,-3.865,-3.8668,-3.9134,-4.0031,-3.9626,-3.953,-3.9698,-4.0425,-4.1045,-4.152,-4.0932,-4.1059,-4.1754,-4.1131,-4.1367,-4.2243,-4.2533,-4.3056,-4.3679,-4.3908,-4.3912,-4.3726,-4.3039,-4.263,-4.2445,0.0,0.0,0.0,0.0,0.0,0.0,0.0,0.0,0.0,0.0,0.0,0.0,0.0,0.0,0.0,0.0,0.0,0.0,0.0,0.0,-2.7197,-2.7197,-2.7164,-2.7243,-2.743,-2.7276,-2.7117,-2.6923,-2.6923,-2.6923,-2.6923,-2.6923,-2.6758,-2.6417,-2.6274,-2.6202,-2.6202,-2.6115,-2.6097,-2.6097,0.0,0.0,0.0,0.0,0.0,0.0,0.0,0.0,0.0,0.0,-2.6202,-2.6202,-2.6202,0.0,0.0,0.0,0.0,0.0,-3.1822,-3.1841,-3.1787,-3.2162,-3.2403,-3.2589,-3.2589,-3.2737,0.0,0.0,0.0,0.0,0.0,0.0,-3.3043,-3.3473,0.0,-3.5364,-3.5792,-3.6845,-3.7738,-3.8112,-3.7845,-3.7755,-3.8112,-3.7827,-3.7791,-3.8219,-3.8255,-3.8415,-3.8826,-3.8843,-3.9022,-3.9377,-3.9377,-3.9556,-3.9895,-4.012,-4.0036,-3.9734,-4.0709,-4.1053,-4.0834,-4.1197,-4.1487,-4.1724,-4.1468,-4.183,-4.2595,-4.2755,-4.3044,-4.3391,-4.3512,-4.3563,-4.3488,-4.2825,-4.2949,-4.3392,0.0,0.0,0.0,0.0,0.0,0.0,0.0,0.0,0.0,0.0,0.0,0.0,0.0,0.0,0.0,0.0,0.0,0.0,0.0,-2.6664,-2.6973,-2.6973,-2.6725,-2.6741,-2.7085,-2.7005,-2.6842,-2.659,-2.659,-2.659,-2.659,-2.6539,-2.6417,-2.6202,-2.6168,-2.615,-2.615,-2.6045,-2.599,-2.5972,0.0,0.0,0.0,0.0,0.0,0.0,0.0,0.0,0.0,0.0,0.0,0.0,0.0,0.0,0.0,-2.8705,-2.9823,-3.1044,-3.1452,-3.149,-3.1433,-3.1528,0.0,-3.2179,-3.2283,-3.2538,0.0,0.0,0.0,0.0,0.0,-3.29,0.0,-3.3972,-3.4722,-3.5472,-3.6292,-3.7077,-3.7595,-3.7595,-3.7773,-3.788,-3.788,-3.8041,-3.8397,-3.9022,-3.9056,-3.9288,-3.9859,-3.9895,-3.9984,-4.0182,-4.018,-4.0271,-4.0467,-4.1074,-4.0985,-4.0199,-4.1257,-4.131,-4.0485,-4.152,-4.1903,-4.1768,-4.1922,-4.2377,-4.2994,-4.3068,-4.3087,-4.3087,-4.316,-4.3214,-4.3141,-4.2748,-4.3115,-4.3719,0.0,0.0,0.0,0.0,0.0,0.0,0.0,0.0,0.0,0.0,0.0,0.0,0.0,0.0,0.0,0.0,0.0,0.0,0.0,-2.6401,-2.6274,-2.6274,-2.6257,-2.6399,-2.6725,-2.6417,-2.6257,-2.6239,-2.6239,-2.6239,-2.6239,-2.6099,-2.6099,-2.6185,-2.6063,-2.6026,-2.6026,-2.5992,-2.5972,-2.5915,-2.5897,0.0,0.0,0.0,0.0,0.0,0.0,0.0,0.0,0.0,0.0,0.0,0.0,0.0,-2.8392,-2.8431,-2.944,-3.0634,-3.1024,-3.0882,-3.0675,-3.1044,-3.1451,-3.1841,-3.2197,-3.2318,0.0,-3.2818,0.0,0.0,0.0,-3.29,-3.3168,-3.3972,-3.4722,-3.5472,-3.6292,-3.7077,-3.7595,-3.7595,-3.8255,-3.8719,-3.8719,-3.9324,-3.9752,-3.9805,-3.9805,-3.9841,-3.9895,-3.9895,-4.0253,-4.0985,-4.1002,-4.1359,-4.2129,-4.2183,-4.1805,-4.102,-4.1864,-4.2221,-4.2126,-4.2241,-4.2259,-4.2239,-4.2259,-4.2315,-4.2371,-4.2634,-4.275,-4.2769,-4.3087,-4.3214,-4.3196,-4.316,-4.3178,-4.325,0.0,0.0,0.0,0.0,0.0,0.0,0.0,0.0,0.0,0.0,0.0,0.0,0.0,0.0,0.0,0.0,0.0,0.0,0.0,-2.6274,-2.6202,-2.6202,-2.6202,-2.6257,-2.6399,-2.6274,-2.6202,-2.6202,-2.6115,-2.6079,-2.6063,-2.5972,-2.5954,-2.6007,-2.5954,-2.5936,-2.5936,-2.5846,-2.5809,-2.5754,-2.5403,-2.5269,0.0,0.0,0.0,0.0,0.0,0.0,0.0,0.0,-2.5701,-2.6097,-2.6168,-2.7214,-2.8392,-2.8392,-2.94,-3.0531,-3.0695,-3.0613,-3.0531,-3.0679,-3.0841,0.0,0.0,-3.1931,-3.2109,-3.277,-3.2705,0.0,0.0,0.0,-3.3901,-3.4668,-3.5435,-3.6238,-3.7041,-3.7416,-3.7595,-3.7595,-3.788,-3.8255,-3.8735,-3.9058,-3.9611,-4.0574,-4.0646,-4.086,-4.1359,-4.1395,-4.152,-4.1841,-4.1841,-4.1984,-4.2308,-4.2308,-4.2144,-4.1841,-4.2144,-4.2308,-4.2308,-4.2308,-4.2308,-4.2308,-4.2308,-4.2308,-4.2308,-4.2412,-4.2434,-4.2454,-4.2591,-4.2729,-4.2883,-4.2883,-4.3013,-4.3214,0.0,0.0,0.0,0.0,0.0,0.0,0.0,0.0,0.0,0.0,0.0,0.0,0.0,0.0,0.0,0.0,0.0,0.0,-2.6134,-2.6202,-2.6202,-2.6202,-2.6202,-2.6202,-2.6202,-2.6202,-2.6202,-2.6202,-2.6115,-2.5937,-2.5738,-2.5844,-2.5826,-2.568,-2.5789,-2.5844,-2.5844,-2.5738,-2.5591,-2.5422,-2.504,-2.4823,0.0,0.0,0.0,0.0,0.0,0.0,0.0,0.0,-2.5272,-2.5756,-2.5862,-2.7012,-2.8318,-2.8279,-2.9323,-3.0506,-3.0422,-3.0464,-3.0489,-3.0485,0.0,0.0,-3.1357,-3.1509,-3.1695,-3.2386,-3.23,-3.2319,-3.2974,0.0,-3.4283,-3.54,-3.6042,-3.6684,-3.7488,-3.7595,-3.7595,-3.7595,-3.7827,-3.8201,-3.8754,-3.9003,-3.9574,-4.0646,-4.0967,-4.1341,-4.1877,-4.2165,-4.2308,-4.2308,-4.2308,-4.2308,-4.2308,-4.2308,-4.2308,-4.2308,-4.2308,-4.2308,-4.2308,-4.2308,-4.2308,-4.2308,-4.2308,-4.2308,-4.2308,-4.2308,-4.2308,-4.2308,-4.2308,-4.2412,-4.2555,-4.2555,-4.271,-4.2919,0.0,0.0,0.0,0.0,0.0,0.0,0.0,0.0,0.0,0.0,0.0,0.0,0.0,0.0,0.0,0.0,0.0,0.0,-2.6202,-2.6202,-2.6185,-2.6185,-2.6185,-2.6185,-2.6185,-2.6185,-2.6185,-2.6185,-2.6185,-2.5844,-2.5211,-2.5661,-2.5642,-2.5211,-2.5535,-2.5701,-2.5701,-2.5701,-2.5384,-2.4883,-2.4883,-2.4639,-2.424,0.0,0.0,0.0,0.0,0.0,0.0,0.0,-2.4369,-2.5211,-2.5211,-2.6581,-2.8168,-2.8066,-2.9185,-3.0464,-3.0253,-3.0338,-3.0468,0.0,0.0,0.0,-3.1004,-3.1103,-3.122,-3.1603,-3.1712,-3.2066,-3.3283,-3.3512,-3.4147,-3.6096,-3.6399,-3.6684,-3.7488,-3.7595,-3.7595,-3.7595,-3.829,-3.8789,-3.8808,-3.9449,-3.9877,-3.9895,-4.0646,-4.1092,-4.1092,-4.1841,-4.229,-4.229,-4.229,-4.229,-4.229,-4.229,-4.229,-4.229,-4.229,-4.229,-4.2308,-4.2308,-4.2308,-4.2308,-4.2308,-4.2308,-4.2308,-4.2308,-4.2308,-4.2308,-4.2308,-4.2308,-4.2308,-4.2308,-4.2308,-4.2308,0.0,0.0,0.0,0.0,0.0,0.0,0.0,0.0,0.0,0.0,0.0,0.0,0.0,0.0,0.0,0.0,0.0,0.0,-2.5269,-2.5304,-2.5403,-2.5703,-2.5703,-2.5703,-2.5703,-2.5422,-2.5422,-2.5703,-2.557,-2.5435,-2.5259,-2.493,-2.4855,-2.4981,-2.5079,-2.4977,-2.4735,-2.5017,-2.4879,-2.4451,-2.4126,-2.39,-2.376,0.0,0.0,0.0,0.0,0.0,0.0,0.0,0.0,0.0,-2.5803,-2.6927,-2.8148,-2.8616,-2.9556,-3.0401,-3.0231,-3.0338,0.0,-3.0417,0.0,0.0,0.0,-3.0679,0.0,0.0,-3.2182,-3.3071,-3.3441,-3.4606,-3.5723,-3.631,-3.6863,-3.7345,-3.7577,-3.7595,-3.7595,-3.7595,-3.7809,-3.8183,-3.8754,-3.8985,-3.9342,-3.9859,-4.0109,-4.0271,-4.0271,-4.0485,-4.061,-4.061,-4.061,-4.061,-4.061,-4.061,-4.061,-4.061,-4.061,-4.1199,-4.2308,-4.2308,-4.2308,-4.2308,-4.2308,-4.2308,-4.2308,-4.2308,-4.2308,-4.2308,-4.2308,-4.2308,-4.2308,-4.2308,-4.2308,-4.2308,0.0,0.0,0.0,0.0,0.0,0.0,0.0,0.0,0.0,0.0,0.0,0.0,0.0,0.0,0.0,0.0,0.0,0.0,0.0,-2.4902,-2.502,-2.5256,-2.5256,-2.5256,-2.5256,-2.4965,-2.4867,-2.493,-2.5173,-2.515,-2.4906,-2.4875,-2.4879,-2.4902,-2.4902,-2.4779,-2.4538,-2.4619,-2.4415,-2.3994,-2.3702,-2.3501,-2.3282,0.0,0.0,0.0,0.0,0.0,0.0,0.0,0.0,0.0,-2.5737,-2.702,-2.8429,-2.8628,-2.9451,-3.029,-3.0119,-3.0269,0.0,-3.0338,-3.0375,-3.0417,-3.0443,0.0,0.0,0.0,-3.2012,-3.3163,-3.3661,-3.5063,-3.6255,-3.6538,-3.7017,-3.7262,-3.7073,-3.7054,-3.7111,-3.73,-3.7319,-3.7588,-3.8254,-3.8326,-3.8504,-3.895,-3.9289,-3.9449,-3.9449,-3.9734,-3.9895,-3.9895,-3.9895,-3.9895,-3.9895,-3.9895,-3.9895,-3.9895,-3.9895,-4.0414,-4.1359,-4.168,-4.2004,-4.2308,-4.2308,-4.2308,-4.2308,-4.2308,-4.2308,-4.2308,-4.2308,-4.2308,-4.2308,-4.2308,-4.2308,-4.2308,0.0,0.0,0.0,0.0,0.0,0.0,0.0,0.0,0.0,0.0,0.0,0.0,0.0,0.0,0.0,0.0,0.0,0.0,0.0,-2.4784,-2.4803,-2.4823,-2.4823,-2.4803,-2.4803,-2.4648,-2.4384,-2.4015,-2.4855,-2.4914,-2.4323,-2.5134,-2.5272,-2.4843,-2.4843,-2.4803,-2.4704,-2.4369,-2.3967,-2.3545,-2.3545,-2.3282,-2.2902,-2.2983,0.0,0.0,0.0,0.0,0.0,0.0,0.0,0.0,-2.5339,-2.6955,-2.8721,-2.8193,-2.9008,-3.0098,-2.988,-3.0098,0.0,-3.0227,-3.0274,0.0,-3.038,-3.0443,-3.0506,-3.0506,0.0,-3.2726,-3.381,-3.5,-3.6055,-3.6718,-3.6841,-3.6701,-3.6256,-3.6194,-3.6357,-3.6801,-3.686,-3.7034,-3.7466,-3.7522,-3.7558,-3.7558,-3.8216,-3.8644,-3.8663,-3.9305,-3.9681,-3.9681,-3.9681,-3.9681,-3.9661,-3.9661,-3.9661,-3.9642,-3.9642,-3.9677,-3.9767,-4.0608,-4.1395,-4.2073,-4.2073,-4.2052,-4.2052,-4.2032,-4.2032,-4.2052,-4.2052,-4.2073,-4.2073,-4.2073,-4.2073,-4.2073,0.0,0.0,0.0,0.0,0.0,0.0,0.0,0.0,0.0,0.0,0.0,0.0,0.0,0.0,0.0,0.0,0.0,0.0,0.0,-2.3879,-2.4,-2.4251,-2.4173,-2.4131,-2.4131,-2.3773,-2.3501,-2.3312,-2.3815,-2.4158,-2.4354,-2.4152,-2.4188,-2.4426,-2.4426,-2.4015,-2.3348,-2.3616,-2.348,-2.3045,-2.3045,-2.3,-2.2946,-2.3476,-2.3688,0.0,0.0,0.0,0.0,0.0,0.0,0.0,-2.6109,-2.6895,-2.7658,-2.8108,-2.8848,-2.9448,-2.9296,-2.976,0.0,0.0,-3.021,-3.0359,-3.0269,-3.038,-3.0506,-3.0506,-3.1918,-3.3211,-3.3384,-3.4892,-3.6146,-3.6253,-3.6333,-3.6316,-3.6215,-3.6194,-3.6253,-3.6357,-3.6557,-3.6696,-3.6814,-3.7009,-3.7126,-3.7126,-3.7302,-3.7448,-3.7619,-3.7761,-3.7926,-3.8094,-3.8076,-3.802,-3.785,-3.785,-3.7792,-3.7619,-3.7619,-3.7917,-3.8534,-3.9651,-4.0233,-4.0412,-4.0255,-4.0195,-4.0175,-4.0011,-4.0032,-4.0195,-4.0195,-4.0275,-4.0431,-4.0431,-4.0431,-4.0394,0.0,0.0,0.0,0.0,0.0,0.0,0.0,0.0,0.0,0.0,0.0,0.0,0.0,0.0,0.0,0.0,0.0,0.0,0.0,0.0,-2.3523,-2.3717,-2.3653,-2.3616,-2.3616,-2.3341,-2.3157,-2.3105,-2.3253,-2.3551,-2.4021,-2.3958,-2.4073,-2.4281,-2.4073,-2.3696,-2.3268,-2.3599,-2.3611,-2.3403,-2.3708,-2.3838,-2.3882,-2.4225,-2.4355,-2.4413,-2.4747,0.0,0.0,0.0,0.0,0.0,0.0,0.0,-2.7755,-2.7866,-2.8352,-2.8865,-2.9051,0.0,0.0,-2.9951,0.0,-3.0189,-3.0124,-3.0231,-3.038,-3.0443,-3.1688,-3.2853,-3.3161,-3.4487,-3.5548,-3.5642,-3.5693,-3.5632,-3.5425,-3.538,-3.547,-3.5698,-3.5847,-3.6079,-3.6454,-3.6635,-3.6696,-3.6696,-3.6523,-3.6391,-3.6352,-3.6152,-3.6108,-3.6219,-3.6219,-3.6164,-3.607,-3.6404,-3.6524,-3.6427,-3.6814,-3.7101,-3.7344,-3.8889,-3.942,-3.9098,-3.9175,-3.9213,-3.9213,-3.9087,-3.921,-3.9458,-3.956,-3.96,-3.9618,-3.972,-3.9698,-3.9598,0.0,0.0,0.0,0.0,0.0,0.0,0.0,0.0,0.0,0.0,0.0,0.0,0.0,0.0,0.0,0.0,0.0,0.0,0.0,0.0,0.0,-2.3275,-2.3231,-2.3231,-2.3231,-2.3112,-2.306,-2.306,-2.2947,-2.3098,-2.3501,-2.3952,-2.4177,-2.4177,-2.3902,-2.3731,-2.3666,-2.3938,-2.4065,-2.4094,-2.4607,-2.4824,-2.4892,-2.494,-2.5023,-2.5052,-2.5114,-2.5143,-2.5193,-2.5603,0.0,0.0,0.0,0.0,-2.7963,-2.7504,-2.774,-2.8264,-2.8709,0.0,-2.938,-2.9864,-2.9995,0.0,-2.9995,-3.0103,-3.0231,-3.0354,-3.1237,-3.2177,-3.2777,-3.3702,-3.4472,-3.4804,-3.4875,-3.4801,-3.4554,-3.4497,-3.465,-3.5028,-3.5121,-3.5369,-3.5891,-3.5996,-3.5966,-3.5849,-3.5526,-3.522,-3.4985,-3.4648,-3.4488,-3.4525,-3.4525,-3.4506,-3.4486,-3.5079,-3.5374,-3.5335,-3.5998,-3.6113,-3.5782,-3.7457,-3.8066,-3.7814,-3.8112,-3.8217,-3.8217,-3.8195,-3.8408,-3.8762,-3.893,-3.8951,-3.8907,-3.909,-3.905,-3.8886,0.0,0.0,0.0,0.0,0.0,0.0,0.0,0.0,0.0,0.0,0.0,0.0,0.0,0.0,0.0,0.0,0.0,0.0,-2.3319,0.0,0.0,-2.3127,-2.3015,-2.2955,-2.2955,-2.2947,-2.2925,-2.2925,-2.2925,-2.2933,-2.3,-2.348,-2.3681,-2.3711,-2.4245,-2.4244,-2.3897,-2.4466,-2.4679,-2.4694,-2.4781,-2.481,-2.4882,-2.5458,-2.5662,-2.5734,-2.6315,-2.6518,-2.6544,-2.6596,-2.6706,0.0,0.0,0.0,-2.7,-2.6896,-2.7214,-2.7615,0.0,0.0,-2.925,0.0,-2.9968,-2.9995,0.0,0.0,-3.021,-3.021,-3.0952,-3.1566,-3.1556,-3.2187,-3.2889,-3.3408,-3.3554,-3.3831,-3.4415,-3.4497,-3.4521,-3.4578,-3.4811,-3.4728,-3.4218,-3.4359,-3.4223,-3.3587,-3.3478,-3.3512,-3.3662,-3.3601,-3.3656,-3.3842,-3.3842,-3.3759,-3.3571,-3.3673,-3.3641,-3.347,-3.3571,-3.3407,-3.3034,-3.3652,-3.4754,-3.6198,-3.6009,-3.5943,-3.592,-3.5751,-3.6016,-3.6534,-3.6577,-3.6887,-3.7306,-3.7345,-3.7325,-3.7178,0.0,0.0,0.0,0.0,0.0,0.0,0.0,0.0,0.0,0.0,0.0,0.0,0.0,0.0,0.0,-2.2053,-2.2443,-2.2806,-2.3068,-2.3023,-2.2992,-2.2992,-2.2925,-2.2888,-2.2888,-2.2888,-2.2888,-2.2888,-2.2888,-2.2888,-2.2888,-2.3098,-2.3422,-2.3775,-2.4084,-2.4454,-2.487,-2.5218,-2.553,-2.5815,-2.5889,-2.5923,-2.5952,-2.6242,-2.637,-2.6413,-2.6704,-2.6806,-2.6806,-2.6806,-2.6806,-2.6806,-2.6806,0.0,0.0,0.0,-2.6948,-2.7229,-2.779,-2.8519,-2.9227,0.0,-2.9924,-2.9946,-2.9946,-3.0033,-3.0081,-3.0081,-3.0386,-3.0773,-3.1116,-3.1391,-3.1778,-3.2407,-3.2568,-3.2729,-3.3055,-3.3087,-3.3087,-3.3087,-3.3199,-3.3217,-3.3079,-3.3183,-3.3101,-3.2785,-3.2603,-3.2416,-3.2293,-3.206,-3.1989,-3.2073,-3.2073,-3.2033,-3.1944,-3.2386,-3.2782,-3.31,-3.2862,-3.2663,-3.25,-3.2494,-3.2937,-3.3732,-3.4222,-3.4435,-3.4445,-3.4778,-3.5178,-3.5616,-3.5715,-3.5629,-3.5479,-3.5766,-3.5547,-3.5071,0.0,0.0,0.0,0.0,0.0,0.0,0.0,0.0,0.0,0.0,0.0,0.0,0.0,0.0,0.0,0.0,-2.1775,-2.2147,-2.2509,-2.2532,-2.2578,-2.2729,-2.2729,-2.2775,-2.2888,-2.2888,-2.2888,-2.2888,-2.2888,-2.2888,-2.2888,-2.3084,-2.349,-2.4123,-2.4265,-2.4814,-2.5678,-2.606,-2.639,-2.6659,-2.6758,-2.6806,-2.6806,-2.6806,-2.6806,-2.6806,-2.6806,-2.6806,-2.6806,-2.6806,-2.6806,-2.6806,-2.6806,-2.6806,0.0,0.0,0.0,0.0,0.0,0.0,-2.8803,-2.9357,-2.9598,-2.9687,0.0,0.0,-2.9973,-2.9973,-2.9973,-3.0152,-3.0689,-3.0697,-3.0872,-3.1584,-3.1737,-3.1801,-3.1979,-3.2012,-3.2012,-3.2012,-3.2012,-3.2008,-3.2095,-3.2101,-3.2019,-3.1861,-3.1615,-3.1343,-3.1024,-3.0733,-3.0559,-3.0559,-3.0559,-3.0559,-3.0559,-3.1166,-3.1736,-3.2269,-3.1979,-3.1845,-3.1823,-3.1583,-3.1461,-3.1533,-3.2691,-3.3184,-3.3233,-3.3791,-3.4202,-3.4518,-3.4689,-3.4398,-3.3962,-3.4372,-3.4078,-3.3481,0.0,0.0,0.0,0.0,0.0,0.0,0.0,0.0,0.0,0.0,0.0,0.0,-2.0795,-2.0734,-2.066,-2.066,-2.1126,-2.1441,-2.1465,-2.1465,-2.1694,-2.2194,-2.2254,0.0,-2.2888,-2.2888,-2.2888,-2.2888,-2.2888,-2.2888,-2.2902,-2.3557,-2.4181,-2.4791,-2.5275,-2.5621,-2.5854,-2.695,-2.717,-2.6788,-2.6791,-2.6806,-2.6806,-2.6806,-2.6806,-2.6806,-2.6806,-2.6806,-2.6806,-2.6806,-2.6806,-2.6806,-2.6806,-2.6806,-2.6806,0.0,0.0,0.0,0.0,-2.7565,0.0,-2.824,-2.8772,0.0,0.0,0.0,-2.9918,-2.9918,-2.9918,-2.9918,-2.9967,-2.9967,-3.0172,-3.0839,-3.0969,-3.1195,-3.1915,-3.2012,-3.2012,-3.2012,-3.2012,-3.1737,-3.104,-3.0975,-3.0723,-3.0086,-3.0027,-3.0011,-2.9989,-2.9956,-2.9946,-2.9946,-2.9946,-2.9946,-2.9946,-2.9995,-3.0027,-3.006,-3.0038,-3.0038,-3.0038,-3.0016,-3.001,-3.0075,-3.1484,-3.2084,-3.2084,-3.2116,-3.235,-3.2622,-3.2644,-3.2874,-3.3168,-3.3189,-3.3177,-3.3021,0.0,0.0,0.0,0.0,0.0,0.0,0.0,0.0,0.0,0.0,0.0,0.0,0.0,-2.0131,-2.008,-2.008,-2.0572,-2.1042,-2.1369,-2.1393,-2.1489,-2.167,-2.203,-2.2278,-2.244,-2.2752,-2.2888,-2.2888,-2.2888,-2.3128,-2.3557,-2.3789,-2.4442,-2.5444,-2.5628,-2.6154,-2.6885,-2.6997,-2.7126,-2.7214,-2.6922,-2.6806,-2.6806,-2.6806,-2.6806,-2.6806,-2.6806,-2.6806,-2.6806,-2.6806,-2.6806,-2.6806,-2.6806,-2.6806,-2.6806,-2.6806,-2.6806,0.0,0.0,0.0,0.0,-2.8183,-2.8709,-2.9097,-2.9097,-2.9515,-2.9896,-2.9896,-2.9896,-2.9896,-2.9896,-2.9896,-2.9977,-3.0214,-3.0247,-3.0344,-3.0626,-3.0658,-3.0658,-3.0658,-3.0658,-3.0561,-3.0285,-3.0247,-3.0172,-2.9935,-2.9896,-2.9896,-2.9896,-2.9896,-2.9896,-2.9896,-2.9896,-2.9896,-2.9896,-2.9896,-2.9896,-2.9896,-2.9896,-2.9896,-2.9896,-2.9896,-2.9896,-2.9913,-3.0431,-3.0895,-3.1325,-3.1794,-3.2066,-3.2166,-3.2166,-3.1965,-3.172,-3.1924,-3.1696,-3.1307,0.0,0.0,0.0,0.0,0.0,0.0,0.0,0.0,0.0,-2.0446,0.0,0.0,0.0,0.0,-1.9798,-1.9798,-2.0131,-2.0547,-2.1115,-2.114,-2.1286,-2.1647,-2.2006,-2.2278,-2.2417,-2.2752,-2.3004,-2.3244,-2.3244,-2.3586,-2.4239,-2.4428,-2.5004,-2.5818,-2.605,-2.655,-2.7265,-2.71,-2.7126,-2.724,-2.6922,-2.6806,-2.6806,-2.6806,-2.6806,-2.6806,-2.6806,-2.6806,-2.6806,-2.6806,-2.6806,-2.6806,-2.6806,-2.6806,-2.6806,-2.6806,-2.6806,0.0,-2.7178,0.0,0.0,0.0,-2.8183,-2.8614,-2.8779,-2.925,-2.9687,-2.9858,-2.9896,-2.9896,-2.9896,-2.9896,-2.9896,-2.9896,-2.9896,-2.9896,-2.9896,-2.9896,-2.9896,-2.9896,-2.9896,-2.9896,-2.9896,-2.9896,-2.9896,-2.9896,-2.9896,-2.9896,-2.9896,-2.9896,-2.9896,-2.9896,-2.9896,-2.9896,-2.9896,-2.9896,-2.9896,-2.9896,-2.9896,-2.9896,-2.9896,-2.9896,-2.9896,-2.9896,-2.9896,-3.0156,-3.0603,-3.1089,-3.1299,-3.1299,-3.1299,-3.1008,-3.0593,-3.0805,-3.0604,-3.0199,0.0,0.0,0.0,0.0,0.0,0.0,0.0,0.0,-1.9798,-1.9798,0.0,0.0,0.0,0.0,0.0,-1.9798,-1.9798,-2.0029,-2.0535,-2.0585,-2.1055,-2.21,-2.2184,-2.2394,-2.2872,-2.2917,-2.3258,-2.392,-2.392,-2.4268,-2.4946,-2.5542,-2.5818,-2.5861,-2.6515,-2.6806,-2.6832,-2.7291,-2.7229,-2.6806,-2.6806,-2.6806,-2.6806,-2.6806,-2.6806,-2.6806,-2.6806,-2.6806,-2.6806,-2.6806,-2.6806,-2.6806,-2.6806,-2.6806,-2.6806,-2.6806,-2.6806,0.0,0.0,0.0,0.0,0.0,0.0,0.0,-2.8143,-2.8685,-2.9227,-2.977,-2.9896,-2.988,-2.9896,-2.9896,-2.9896,-2.9896,-2.9896,-2.9896,-2.9896,-2.9896,-2.9896,-2.9896,-2.9896,-2.9896,-2.9896,-2.9896,-2.9896,-2.9896,-2.9896,-2.9896,-2.9896,-2.9896,-2.9896,-2.9896,-2.9896,-2.9896,-2.9896,-2.9896,-2.9896,-2.9896,-2.9896,-2.9896,-2.9896,-2.9896,-2.9896,-2.9896,-2.9896,-2.9896,-2.9896,-2.9896,-2.9896,-2.9896,-2.9896,-2.9896,-2.9896,-2.9896,-2.9896,-2.9896,0.0,0.0,0.0,0.0,0.0,-1.9798,-1.9798,-1.9798,-1.9798,0.0,0.0,0.0,-1.9798,-1.9798,-1.9798,-1.9798,-1.9708,-1.9759,-2.0003,-2.0283,-2.0585,-2.0883,-2.1636,-2.2263,-2.2734,-2.3146,-2.3698,-2.4403,-2.4403,-2.4794,-2.5556,-2.573,-2.6065,-2.6544,-2.6733,-2.6806,-2.6806,-2.6948,-2.6922,-2.6806,-2.6806,-2.6806,-2.6806,-2.6806,-2.6806,-2.6806,-2.6806,-2.6806,-2.6806,-2.6806,-2.6806,-2.6806,-2.6806,-2.6806,-2.6806,-2.6806,-2.6806,0.0,-2.6806,0.0,0.0,0.0,0.0,0.0,-2.769,-2.8143,-2.8662,-2.9205,-2.9319,-2.9448,-2.9836,-2.9896,-2.9896,-2.9896,-2.9896,-2.9896,-2.9896,-2.9896,-2.9896,-2.9896,-2.9896,-2.9896,-2.9896,-2.9896,-2.9896,-2.9896,-2.9896,-2.9896,-2.9896,-2.9896,-2.9896,-2.9896,-2.9896,-2.9896,-2.9896,-2.9896,-2.9896,-2.9896,-2.9896,-2.9896,-2.9896,-2.9896,-2.9896,-2.9896,-2.9896,-2.9896,-2.9896,-2.9896,-2.9896,-2.9896,-2.9896,-2.9896,-2.9896,-2.9896,-2.9896,-2.9896,0.0,0.0,0.0,0.0,0.0,-1.9798,-1.9798,-1.9798,-1.9798,0.0,0.0,0.0,-1.9798,-1.9798,-1.9899,-2.0137,-2.0084,-2.0289,-2.0807,-2.1056,-2.138,-2.1839,-2.2476,-2.3049,-2.3561,-2.3883,-2.4393,-2.5102,-2.5027,-2.5423,-2.6224,-2.6133,-2.635,-2.6806,-2.6806,-2.6806,-2.6806,-2.6806,-2.6806,-2.6806,-2.6806,-2.6806,-2.6806,-2.6806,-2.6806,-2.6806,-2.6806,-2.6806,-2.6779,-2.6712,-2.6671,-2.6671,-2.6671,0.0,0.0,-2.6806,0.0,0.0,0.0,0.0,0.0,0.0,0.0,0.0,-2.7464,-2.7725,-2.8119,-2.8662,-2.8772,-2.8865,-2.9182,-2.9227,-2.9296,-2.9515,-2.9576,-2.9643,-2.9874,-2.9896,-2.9896,-2.9896,-2.9896,-2.9896,-2.9896,-2.9896,-2.9896,-2.9896,-2.9896,-2.9896,-2.9896,-2.9896,-2.9896,-2.9896,-2.9896,-2.9896,-2.9896,-2.9896,-2.9896,-2.9896,-2.9896,-2.9896,-2.9896,-2.9896,-2.9896,-2.9896,-2.9896,-2.9896,-2.9896,-2.9896,-2.9896,-2.9896,-2.9896,-2.9896,-2.9896,-2.9896,-2.9896,-2.9896,0.0,0.0,-1.9798,-1.9798,-1.9798,-1.9798,-1.9773,-1.9798,-1.9798,0.0,-1.9861,-1.9899,-1.9899,-1.9923,-2.0161,-2.0715,-2.0725,-2.1129,-2.2077,-2.2252,-2.2751,-2.3701,-2.3867,-2.4212,-2.4813,-2.4813,-2.5156,-2.5843,-2.5704,-2.6047,-2.6753,-2.6551,-2.6592,-2.6806,-2.6779,0.0,-2.6806,-2.6779,-2.6779,-2.6779,-2.6779,-2.6779,-2.6779,-2.6753,-2.6727,-2.6727,-2.6727,-2.6727,-2.6727,-2.6551,-2.6484,-2.6484,-2.6484,-2.6618,0.0,0.0,-2.6806,0.0,0.0,0.0,0.0,0.0,-2.6806,0.0,-2.7327,-2.7414,-2.7565,-2.8094,-2.8216,-2.8216,-2.8288,-2.8288,-2.8472,-2.8935,-2.9051,-2.9273,-2.9814,-2.9896,-2.9896,-2.9896,-2.9896,-2.9896,-2.9896,-2.9896,-2.9896,-2.9896,-2.9896,-2.9896,-2.9896,-2.9896,-2.9896,-2.9896,-2.9896,-2.9896,-2.9896,-2.9896,-2.9896,-2.9896,-2.9896,-2.9896,-2.9896,-2.9896,-2.9896,-2.9896,-2.9896,-2.9896,-2.9896,-2.9896,-2.9896,-2.9896,-2.9896,-2.9896,-2.9896,-2.9896,-2.9896,-2.9896,0.0,-1.9798,-1.9798,-1.9798,-1.9798,-1.9759,-1.9656,-1.9734,-1.9759,-1.9656,-2.016,-2.0515,-2.0515,-2.0769,-2.0958,-2.1098,-2.0911,-2.0932,-2.1216,-2.1995,-2.2551,-2.2751,-2.3652,-2.4402,-2.494,-2.4954,-2.5329,-2.6034,-2.6021,-2.6171,-2.6551,-2.6406,-2.65,-2.6779,-2.6645,-2.6645,-2.6779,-2.6618,-2.6551,-2.6551,-2.6551,-2.6551,-2.6551,-2.6433,-2.6394,-2.6394,-2.6394,-2.6394,-2.6394,-2.6353,-2.6326,-2.6353,-2.6457,-2.6537,-2.6578,-2.6738,0.0,0.0,0.0,0.0,0.0,0.0,-2.6806,0.0,-2.6922,-2.6948,-2.7074,-2.7565,-2.7665,-2.7775,-2.8216,-2.8288,-2.8312,-2.8448,-2.8803,-2.9273,-2.9814,-2.9896,-2.9896,-2.9896,-2.9896,-2.9896,-2.9896,-2.9896,-2.9896,-2.9896,-2.9896,-2.9896,-2.9896,-2.9896,-2.9896,-2.9896,-2.9896,-2.9896,-2.9896,-2.9896,-2.9896,-2.9896,-2.9896,-2.9896,-2.9896,-2.9896,-2.9896,-2.9896,-2.9896,-2.9896,-2.9896,-2.9896,-2.9896,-2.9896,-2.9896,-2.9896,-2.9896,-2.9896,-2.9896,-2.9896,0.0,-1.9708,-1.9682,-1.9617,-1.9656,-1.9682,-1.9617,-1.9971,-2.0185,-2.0014,-2.0511,-2.0859,-2.0859,-2.1011,-2.1214,-2.1486,-2.1378,-2.1576,-2.2243,-2.276,-2.3311,-2.3905,-2.4486,-2.5052,-2.5643,-2.5657,-2.5826,-2.6206,-2.6111,-2.6192,-2.6392,-2.6272,-2.634,-2.6553,-2.6459,-2.6486,-2.6645,-2.6486,-2.6658,-2.7066,-2.6574,-2.6392,-2.6392,-2.634,-2.6313,-2.6313,-2.6313,-2.626,-2.6206,-2.6206,-2.6206,-2.6218,-2.6285,-2.6377,-2.651,-2.6618,-2.6712,-2.6806,0.0,0.0,0.0,-2.6806,-2.6712,0.0,0.0,-2.6645,-2.6709,-2.6941,-2.7086,-2.7229,-2.7494,-2.7545,-2.763,-2.7849,-2.8134,-2.8496,-2.9028,-2.956,-2.9896,-2.9896,-2.9896,-2.9896,-2.9896,-2.9896,-2.9734,-2.9378,-2.9686,-2.9734,-2.9362,-2.9686,-2.9896,-2.9896,-2.9896,-2.9896,-2.9896,-2.9896,-2.9896,-2.9896,-2.9896,-2.9896,-2.9896,-2.9896,-2.9896,-2.9896,-2.9896,-2.9896,-2.9896,-2.9896,-2.9896,-2.9896,-2.9896,-2.9896,-2.9896,-2.9896,-2.9896,-2.9896,-1.9734,0.0,-1.9617,-1.9486,-1.9625,-1.9739,-1.9726,-2.033,-2.0774,-2.0586,-2.0958,-2.119,-2.1162,-2.126,-2.1493,-2.1864,-2.1883,-2.2293,-2.3267,-2.3547,-2.4108,-2.5091,-2.5384,-2.5729,-2.6206,-2.6233,-2.6233,-2.6233,-2.6111,-2.6111,-2.626,-2.6111,-2.6138,-2.6313,-2.6286,-2.6424,-2.6644,-2.6512,-2.6938,-2.7675,-2.6911,-2.6616,-2.6656,-2.6515,-2.6516,-2.6588,-2.6588,-2.6506,-2.6424,-2.6424,-2.6424,-2.6424,-2.6452,-2.6516,-2.6617,-2.6644,-2.6693,0.0,0.0,-2.6738,-2.6738,-2.6779,-2.6645,-2.651,0.0,0.0,0.0,-2.6484,-2.6645,-2.6738,-2.6779,-2.6779,-2.6837,-2.7098,-2.7324,-2.7555,-2.7902,-2.8887,-2.9598,-2.9598,-2.977,-2.9858,-2.977,-2.9707,-2.9443,-2.8822,-2.9216,-2.9216,-2.8611,-2.9297,-2.9686,-2.9686,-2.9815,-2.9836,-2.9748,-2.9748,-2.9687,-2.9598,-2.9598,-2.9598,-2.9598,-2.9598,-2.9598,-2.9598,-2.9598,-2.9643,-2.9748,-2.9748,-2.9792,-2.9836,-2.9896,-2.9836,-2.9732,-2.9792,-2.9792,-2.9732,-1.9798,-1.9773,-1.9773,-1.9759,-2.0055,-2.0256,-2.016,-2.0766,-2.121,-2.121,-2.1654,-2.1902,-2.1714,-2.2198,-2.2457,-2.2354,-2.2212,-2.2206,-2.2359,-2.3369,-2.4021,-2.4137,-2.5245,-2.5866,-2.5948,-2.5948,-2.5948,-2.5948,-2.5921,-2.5975,-2.6111,-2.5975,-2.6056,-2.6286,-2.6179,-2.6531,-2.7196,-2.6988,-2.7343,-2.7968,-2.7709,-2.7782,-2.7897,-2.7257,-2.7272,-2.7623,-2.7623,-2.7623,-2.7623,-2.7623,-2.7623,-2.7623,-2.7739,-2.74,-2.6988,-2.7154,-2.6796,-2.6379,-2.6498,-2.6537,-2.6578,-2.6753,-2.6645,-2.651,-2.651,0.0,-2.6353,-2.6498,0.0,-2.6578,-2.6779,0.0,0.0,-2.589,-2.6663,-2.7165,-2.6682,-2.7688,-2.8496,-2.8496,-2.9319,-2.971,-2.9227,-2.902,-2.8892,-2.8811,-2.8271,-2.7915,-2.7834,-2.8514,-2.8924,-2.8924,-2.9556,-2.9665,-2.9205,-2.9182,-2.8958,-2.8496,-2.8496,-2.8496,-2.8496,-2.8496,-2.8496,-2.8496,-2.8496,-2.8756,-2.9182,-2.9182,-2.9319,-2.9576,-2.9814,-2.9621,-2.9227,-2.947,-2.9387,-2.9227,-2.027,-2.0207,0.0,-2.0348,-2.0594,-2.0686,-2.0571,-2.1092,-2.1604,-2.1893,-2.2078,-2.2122,-2.2031,-2.2268,0.0,0.0,0.0,-2.2359,-2.2702,-2.3207,-2.364,-2.3992,-2.4511,-2.4964,-2.537,-2.537,-2.5564,-2.5893,-2.5893,-2.5921,-2.5975,-2.5921,-2.6145,-2.6594,-2.6538,-2.6947,-2.7698,-2.7512,-2.7923,-2.8637,-2.849,-2.8732,-2.899,-2.7909,-2.7624,-2.7805,-2.7805,-2.7805,-2.7805,-2.7805,-2.7805,-2.7805,-2.7864,-2.7738,-2.7598,-2.7783,-2.7424,-2.7019,-2.7059,-2.6813,-2.651,-2.6604,-2.6513,-2.6392,-2.6484,-2.6406,-2.6313,-2.6379,0.0,0.0,0.0,0.0,0.0,0.0,-2.6454,-2.6761,-2.6484,-2.7195,-2.7858,-2.824,-2.8622,-2.8896,-2.8974,-2.8615,-2.834,-2.817,-2.766,-2.7265,-2.7138,-2.7563,-2.7961,-2.8317,-2.8414,-2.8496,-2.8622,-2.8638,-2.8519,-2.8288,-2.8288,-2.8288,-2.8288,-2.8288,-2.8288,-2.8288,-2.8288,-2.8384,-2.8528,-2.8528,-2.8528,-2.8591,-2.8685,-2.8748,-2.8772,-2.8881,-2.8701,-2.8362,-2.0918,0.0,0.0,0.0,-2.1137,-2.1313,-2.1328,-2.1699,-2.2108,-2.2372,-2.2469,-2.242,-2.2216,-2.2216,0.0,0.0,-2.2197,-2.2389,-2.2811,-2.3329,-2.3671,-2.3741,-2.4569,-2.5016,-2.5005,-2.5324,-2.5702,-2.6146,-2.6146,-2.6231,-2.6413,-2.6413,-2.6652,-2.7074,-2.7074,-2.7482,-2.8176,-2.8088,-2.8515,-2.9217,-2.9126,-2.9365,-2.9631,-2.8665,-2.8199,-2.8087,-2.8241,-2.8282,-2.8282,-2.8282,-2.8282,-2.8282,-2.8282,-2.8258,-2.8205,-2.8294,-2.784,-2.7324,-2.7421,-2.6975,-2.6431,-2.6484,-2.6392,-2.634,-2.6418,-2.6312,-2.6206,-2.6286,-2.6286,0.0,0.0,0.0,-2.6203,-2.6032,0.0,-2.632,-2.6175,-2.6643,-2.7236,-2.775,-2.7834,-2.8018,-2.8365,-2.7887,-2.7462,-2.7242,-2.663,-2.6271,-2.6197,-2.646,-2.6812,-2.7234,-2.7341,-2.7541,-2.7819,-2.7954,-2.7947,-2.7799,-2.7775,-2.7765,-2.775,-2.7799,-2.7799,-2.7799,-2.7799,-2.7834,-2.7883,-2.7834,-2.7824,-2.7775,-2.7775,-2.7864,-2.7963,-2.8158,-2.7987,-2.761,-2.1665,-2.1604,0.0,0.0,-2.1675,-2.2191,-2.2585,-2.2877,-2.2907,-2.2469,-2.2889,-2.301,-2.2278,-2.234,-2.2328,0.0,-2.2197,-2.2228,-2.2216,-2.3933,-2.4395,-2.3173,0.0,-2.6827,0.0,-2.6133,-2.675,-2.6778,-2.6778,-2.7102,-2.7749,-2.7749,-2.7749,-2.7777,-2.7777,-2.8115,-2.8661,-2.8661,-2.9012,-2.9574,-2.9574,-2.9588,-2.9602,-2.956,-2.9181,-2.8745,-2.9336,-2.9546,-2.9546,-2.9546,-2.9546,-2.9546,-2.9546,-2.9139,-2.8691,-2.8691,-2.7805,-2.6891,-2.7213,-2.6811,-2.6326,-2.6457,-2.6392,-2.6313,-2.6313,-2.6084,-2.5975,-2.626,-2.6206,-2.6138,-2.6286,-2.6206,0.0,0.0,0.0,0.0,0.0,-2.5875,-2.6379,-2.6537,-2.7016,-2.728,-2.7162,-2.6551,-2.6143,-2.6061,-2.4891,-2.4421,-2.493,-2.5207,-2.5382,-2.5398,-2.6687,-2.7147,-2.6669,-2.7111,-2.7067,-2.6563,-2.6433,-2.6353,-2.6353,-2.6498,-2.6563,-2.6563,-2.6563,-2.6849,-2.7323,-2.7185,-2.7287,-2.7515,-2.7515,-2.7108,-2.6628,-2.7287,-2.7363,-2.7085,0.0,0.0,0.0,0.0,0.0,-2.2305,-2.2347,-2.2451,-2.2451,-2.2278,-2.2451,-2.2469,-2.2216,-2.2247,-2.2554,-2.3319,-2.3406,-2.3524,-2.3883,-2.4965,-2.5195,-2.4274,-2.5704,-2.6415,0.0,-2.6572,-2.7019,-2.7453,-2.7453,-2.7594,-2.7805,-2.7805,-2.8016,-2.8394,-2.8394,-2.8717,0.0,0.0,-2.942,-2.9602,-2.9602,-2.9602,-2.9602,-2.9602,-2.9476,-2.9321,-2.9532,-2.9602,-2.9602,-2.9602,-2.9602,-2.9602,-2.9699,-2.9588,-2.945,-2.957,-2.8706,-2.7741,-2.7769,-2.6987,-2.6179,-2.6218,-2.6192,-2.6206,-2.6286,-2.6165,-2.6056,-2.6138,-2.6056,-2.5975,-2.6029,-2.6002,0.0,0.0,0.0,0.0,0.0,-2.601,-2.6138,-2.6096,-2.6733,-2.6959,-2.6416,-2.5914,-2.5576,-2.541,-2.4387,-2.3979,-2.4472,-2.4298,-2.4375,-2.4806,-2.4916,-2.5261,-2.5929,-2.5995,-2.6159,-2.6379,-2.634,-2.6313,-2.6313,-2.6353,-2.6379,-2.6379,-2.6379,-2.6418,-2.651,-2.6472,-2.6431,-2.6457,-2.6457,-2.6297,-2.615,-2.6654,-2.6602,-2.6234,-2.2525,0.0,0.0,0.0,-2.2516,-2.2587,-2.2556,-2.287,-2.2992,-2.2782,-2.2972,-2.2992,-2.2782,-2.2782,-2.3094,-2.3845,-2.3933,-2.4082,-2.4409,-2.5288,-2.5377,-2.4466,-2.5736,-2.6461,0.0,0.0,0.0,-2.8129,-2.8129,-2.8241,-2.8422,-2.8422,-2.8647,-2.9012,-2.9012,-2.9237,-2.9602,-2.9602,-2.9602,-2.9602,-2.9602,-2.9602,-2.9602,-2.9602,-2.9602,-2.9602,-2.9602,-2.9602,-2.9602,-2.9602,-2.9602,-2.9602,-2.9713,-2.973,-2.973,-2.9882,-2.9032,-2.8039,-2.801,-2.7074,-2.6084,-2.6084,-2.6084,-2.6111,-2.6206,-2.6111,-2.6029,-2.6084,-2.5975,-2.5893,-2.5893,-2.5893,-2.5893,0.0,0.0,0.0,0.0,-2.6029,-2.6002,-2.5921,-2.6404,-2.6486,-2.5861,-2.5306,-2.4982,-2.4925,-2.3881,-2.348,-2.4015,-2.361,-2.3555,-2.3977,-2.3807,-2.4206,-2.5232,-2.5283,-2.5633,-2.6233,-2.6179,-2.6165,-2.6165,-2.6206,-2.6233,-2.6233,-2.6233,-2.6179,-2.6084,-2.6056,-2.5975,-2.5893,-2.5893,-2.5893,-2.5921,-2.6204,-2.5982,-2.5496,-2.227,-2.2678,-2.2923,-2.2528,-2.2805,-2.3079,-2.3195,-2.404,-2.4459,-2.386,-2.4308,-2.4426,-2.386,-2.3806,-2.3806,-2.3863,-2.3908,-2.3887,-2.3945,-2.505,-2.5211,-2.4023,-2.6317,-2.7072,-2.597,0.0,0.0,0.0,-2.8731,-2.904,-2.9602,-2.9602,-2.9602,-2.9602,-2.9602,-2.9602,-2.9602,-2.9602,-2.9602,-2.9602,-2.9602,-2.9602,-2.9602,-2.9602,-2.9602,-2.9602,-2.9602,-2.9602,-2.9602,-2.9602,-2.9602,-2.9602,-2.9602,-2.9602,-2.9602,-2.956,-2.8748,-2.782,-2.7923,-2.7032,-2.6084,-2.6084,-2.6084,-2.6084,-2.6084,-2.5975,-2.5948,-2.6056,-2.5975,-2.5893,-2.5893,-2.5893,-2.5893,0.0,0.0,0.0,0.0,-2.5893,-2.5893,-2.5893,-2.6002,-2.5882,-2.5374,-2.4685,-2.4355,-2.4469,-2.3312,-2.2873,-2.3508,-2.312,-2.2888,-2.2888,-2.3374,-2.3923,-2.4531,-2.4949,-2.5459,-2.6041,-2.5961,-2.5893,-2.5893,-2.6029,-2.6084,-2.6084,-2.6084,-2.6084,-2.6084,-2.5948,-2.5893,-2.5893,-2.5893,-2.5893,-2.5893,-2.5893,-2.5514,-2.4908,-2.3396,-2.3505,-2.3553,-2.3453,-2.355,-2.3601,-2.3634,-2.3874,-2.3992,-2.3839,-2.3926,-2.3959,-2.3839,-2.3806,-2.415,-2.5062,-2.5132,-2.5306,-2.5716,-2.6992,-2.74,-2.6591,-2.8145,-2.8684,-2.7835,-2.866,-2.8899,-2.8543,0.0,-2.9462,-2.9602,-2.9602,-2.9602,-2.9602,-2.9602,-2.9602,-2.9602,-2.9602,-2.9602,-2.9602,-2.9602,-2.9602,-2.9602,-2.9602,-2.9602,-2.9602,-2.9602,-2.9602,-2.9602,-2.9602,-2.9602,-2.9634,-2.9699,-2.9761,-2.9676,-2.9209,-2.856,-2.7824,-2.7272,-2.6539,-2.5948,-2.5948,-2.5948,-2.5948,-2.5948,-2.5921,-2.5921,-2.5948,-2.5921,-2.5893,-2.5893,-2.5893,-2.5893,0.0,0.0,0.0,0.0,-2.5893,-2.5893,-2.5893,-2.5921,-2.5552,-2.4532,-2.4314,-2.3871,-2.3046,-2.2747,-2.2669,-2.2851,-2.2834,-2.2781,-2.2684,-2.2818,-2.3121,-2.3629,-2.412,-2.4693,-2.5272,-2.571,-2.5893,-2.5893,-2.5948,-2.5948,-2.5948,-2.5948,-2.5948,-2.5948,-2.5921,-2.5893,-2.5893,-2.5893,-2.5893,-2.5893,-2.5893,-2.5514,-2.4908,-2.3806,-2.3986,-2.4169,-2.4398,-2.448,-2.4362,-2.4133,-2.4302,-2.448,-2.448,-2.448,-2.448,-2.448,-2.448,-2.4725,-2.5416,-2.5475,-2.561,-2.5918,-2.665,-2.6942,-2.6561,-2.7291,-2.7822,-2.8051,-2.8468,0.0,-2.898,0.0,-2.9602,-2.9602,-2.9602,-2.9602,-2.9602,-2.9602,-2.9602,-2.9602,-2.9602,-2.9602,-2.9602,-2.9602,-2.9602,0.0,-2.9602,-2.9602,-2.9602,-2.9602,-2.9602,-2.9602,-2.9602,-2.9602,-2.9602,-2.9682,-2.9699,-2.9586,-2.8995,-2.8374,-2.7752,-2.7004,-2.6357,-2.5893,-2.5893,-2.5893,-2.5893,-2.5893,-2.5893,-2.5893,-2.5893,-2.5893,-2.5893,-2.5893,-2.5893,-2.5893,0.0,0.0,0.0,0.0,0.0,-2.5893,-2.5893,-2.5893,-2.5442,-2.4205,-2.4115,-2.3805,-2.2946,-2.2642,-2.2532,-2.2615,-2.2675,-2.2675,-2.2615,-2.2532,-2.2762,-2.3291,-2.3844,-2.4388,-2.5021,-2.5598,-2.5893,-2.5893,-2.5893,-2.5893,-2.5893,-2.5893,-2.5893,-2.5893,-2.5893,-2.5893,-2.5893,-2.5893,-2.5893,-2.5893,-2.5893,-2.5683,-2.5274,-2.4011,-2.4326,-2.4771,-2.5228,-2.5312,-2.5155,-2.4699,-2.5011,-2.5312,-2.5312,-2.5312,-2.5312,-2.5312,-2.5312,-2.5312,-2.5312,-2.5312,-2.5312,-2.5312,-2.5382,-2.5441,-2.5441,-2.5546,-2.6148,-2.7351,-2.7438,-2.8045,0.0,-2.9369,-2.9477,-2.9477,-2.954,-2.9602,-2.9602,0.0,0.0,0.0,-2.9602,-2.9602,-2.9602,-2.9602,-2.9602,-2.9602,-2.9602,-2.9602,-2.9602,-2.9602,-2.9602,-2.9602,-2.9602,-2.9602,-2.9602,-2.9602,-2.9602,-2.9476,-2.8774,-2.8227,-2.7621,-2.6806,-2.6245,-2.5866,-2.5811,-2.5839,-2.5893,-2.5893,-2.5893,-2.5893,-2.5893,-2.5893,-2.5893,-2.5893,-2.5893,-2.5893,-2.5893,-2.5893,-2.5893,-2.5893,0.0,0.0,0.0,-2.5893,0.0,-2.4205,-2.4092,-2.3897,-2.3378,-2.2752,-2.2417,-2.2532,-2.2555,-2.2555,-2.2555,-2.244,-2.2649,-2.314,-2.3776,-2.4359,-2.4894,-2.5556,-2.5893,-2.5893,-2.5893,-2.5893,-2.5893,-2.5893,-2.5893,-2.5893,-2.5893,-2.5893,-2.5893,-2.5893,-2.5893,-2.5893,-2.5893,-2.5893,-2.5725,-2.5035,-2.5107,-2.5204,-2.5288,-2.5312,-2.5276,-2.518,-2.5252,-2.5312,-2.5312,-2.5312,-2.5312,-2.5312,-2.5312,-2.5312,-2.5312,-2.5312,-2.5312,-2.5312,-2.5861,-2.6208,-2.6208,-2.6778,-2.6947,-2.6586,-2.7183,-2.7317,-2.6947,-2.8117,-2.8698,-2.8698,-2.9324,-2.9602,0.0,0.0,0.0,-2.9602,-2.9602,-2.9602,-2.9602,-2.9602,-2.9602,-2.9602,-2.9602,-2.9602,-2.9602,-2.9602,-2.9602,-2.9602,-2.9602,-2.9602,-2.9602,-2.9602,-2.9602,-2.9378,-2.8268,-2.789,-2.7436,-2.5767,-2.5619,-2.5784,-2.5286,-2.5536,-2.5893,-2.5893,-2.5893,-2.5893,-2.5893,-2.5893,-2.5893,-2.5893,-2.5893,-2.5893,-2.5893,-2.5893,-2.5893,-2.5893,-2.5893,0.0,0.0,-2.5893,-2.5442,-2.4205,-2.4092,-2.3639,-2.2517,-2.2311,-2.2254,-2.2278,-2.237,-2.237,-2.2278,-2.2347,-2.2404,-2.2386,-2.354,-2.4134,-2.4261,-2.5386,-2.5893,-2.5893,-2.5893,-2.5893,-2.5893,-2.5893,-2.5893,-2.5893,-2.5893,-2.5893,-2.5893,-2.5893,-2.5893,-2.5893,-2.5893,-2.5893,-2.5795,-2.5312,0.0,0.0,-2.5312,-2.5312,-2.5312,-2.5312,-2.5312,-2.5312,-2.5312,-2.5312,-2.5312,-2.5312,-2.5312,-2.5312,-2.5312,-2.5652,-2.5687,-2.5347,-2.6,-2.6242,-2.5861,-2.6161,-2.6368,-2.638,-2.6744,-2.6947,-2.6981,-2.7657,-2.7986,-2.7986,-2.868,-2.9012,-2.9012,0.0,-2.9012,-2.9012,-2.8675,-2.8693,-2.9012,-2.9012,-2.9261,-2.9602,-2.9602,-2.9602,-2.9602,-2.9602,-2.9602,-2.9602,-2.9602,-2.9602,-2.9602,-2.9602,-2.9392,-2.8956,-2.8072,-2.7537,-2.7016,-2.5814,-2.5674,-2.5839,-2.5536,-2.5702,-2.5893,-2.5893,-2.5893,-2.5893,-2.5893,-2.5893,-2.5893,-2.5893,-2.5893,-2.5893,-2.5893,-2.5647,-2.5425,-2.5425,-2.5425,-2.53,0.0,0.0,0.0,-2.3689,-2.3578,-2.3195,-2.2269,-2.2208,-2.2208,-2.2208,-2.2254,-2.2278,-2.2208,-2.2254,-2.2278,-2.2208,-2.3459,-2.4092,-2.4092,-2.533,-2.5893,-2.5893,-2.5893,-2.5893,-2.5893,-2.5893,-2.5893,-2.5893,-2.5893,-2.5893,-2.5893,-2.5893,-2.5893,-2.5893,-2.5893,-2.5893,-2.5809,-2.5312,-2.5312,-2.5312,-2.5312,-2.5312,-2.5312,-2.5312,-2.5312,-2.5312,-2.5312,-2.5312,-2.5312,-2.5312,-2.5312,-2.5312,-2.5312,-2.5826,-2.5931,-2.5347,-2.5826,-2.5896,-2.5347,-2.5312,-2.5581,-2.6139,-2.6173,-2.6552,-2.7284,-2.7417,-2.7518,-2.7532,-2.8355,-2.8634,-2.8492,-2.8492,-2.8427,-2.8279,-2.7887,-2.8019,-2.8524,-2.8666,-2.9075,-2.9571,-2.9432,-2.9369,-2.9369,-2.9369,-2.9369,-2.9401,-2.954,-2.9602,-2.9602,-2.9602,-2.9195,-2.8577,-2.7988,-2.7312,-2.6652,-2.5924,-2.5811,-2.5866,-2.5729,-2.5811,-2.5893,-2.5893,-2.5893,-2.5893,-2.5893,-2.5893,-2.5866,-2.5729,-2.5811,-2.5866,-2.5729,-2.5425,-2.5146,-2.5033,-2.5005,-2.4765,0.0,0.0,0.0,-2.3205,-2.3242,-2.3008,-2.2261,-2.2208,-2.2208,-2.2208,-2.2208,-2.2208,-2.2208,-2.2208,-2.2208,-2.2208,-2.3459,-2.4092,-2.4092,-2.533,-2.5893,-2.5893,-2.5893,-2.5893,-2.5893,-2.5893,-2.5893,-2.5893,-2.5893,-2.5893,-2.5893,-2.5893,-2.5893,-2.5893,-2.5893,-2.5893,-2.5823,-2.5312,-2.5312,-2.5312,-2.5312,-2.5312,-2.5312,-2.5312,-2.5312,-2.5312,-2.5312,-2.5312,-2.5312,-2.5312,-2.5312,-2.5312,-2.5312,-2.5382,-2.5382,-2.5312,-2.5382,-2.5382,-2.5312,-2.5312,-2.5335,-2.5418,-2.5418,-2.5756,-2.6483,-2.7183,-2.7538,-2.7633,-2.8917,-2.9153,-2.8492,-2.8492,-2.8149,-2.7637,-2.8182,-2.8427,-2.8556,-2.923,-2.954,-2.954,-2.8839,-2.8602,-2.8602,-2.8602,-2.8602,-2.8698,-2.9355,-2.9602,-2.9602,-2.9602,-2.9195,-2.8577,-2.7988,-2.7312,-2.6567,-2.5394,-2.5481,-2.5784,-2.523,-2.5508,-2.5893,-2.5893,-2.5893,-2.5893,-2.5893,-2.5893,-2.5729,-2.5202,-2.5536,-2.5729,-2.5174,-2.5508,-2.5619,-2.509,-2.5005,-2.4765,-2.4092,0.0,0.0,-2.3214,-2.3645,-2.3506,-2.2289,-2.2207,-2.2208,-2.2208,-2.2208,-2.2208,-2.2208,-2.2208,-2.2208,-2.2208,-2.3459,-2.4092,-2.4092,-2.533,-2.5893,-2.5893,-2.5893,-2.5893,-2.5893,-2.5893,-2.5893,-2.5893,-2.5893,-2.5893,-2.5893,-2.5893,-2.5893,-2.5893,-2.5893,-2.5893,-2.5879,-2.5312,-2.5312,-2.5312,-2.5312,-2.5312,-2.5312,-2.5312,-2.5312,-2.5312,-2.5312,-2.5312,-2.5312,-2.5312,-2.5312,-2.5312,-2.5312,-2.5687,-2.5756,-2.5347,-2.5721,-2.5756,-2.5312,-2.5312,-2.5312,-2.5312,-2.5312,-2.5441,-2.5721,-2.6022,-2.6174,-2.6232,-2.7233,-2.7769,-2.7887,-2.7887,-2.7769,-2.7517,-2.7802,-2.8149,-2.8492,-2.8371,-2.8849,-2.9477,-2.8325,-2.8422,-2.9089,-2.8666,-2.8492,-2.8602,-2.9355,-2.9602,-2.9546,-2.9167,-2.8647,-2.8015,-2.7383,-2.675,-2.6147,-2.5689,-2.5729,-2.5839,-2.5591,-2.5729,-2.5893,-2.5893,-2.5893,-2.5893,-2.5893,-2.5893,-2.5729,-2.5118,-2.5202,-2.516,-2.4509,-2.4295,-2.4253,-2.4394,-2.4105,-2.3771,-2.3492,0.0,-2.3667,-2.3139,-2.3016,-2.2761,-2.2295,-2.2211,-2.2208,-2.2208,-2.2208,-2.2208,-2.2208,-2.2208,-2.2376,-2.2732,-2.3642,-2.4275,-2.4655,-2.5486,-2.5893,-2.5893,-2.5893,-2.5893,-2.5893,-2.5893,-2.5893,-2.5893,-2.5893,-2.5893,-2.5893,-2.5893,-2.5893,-2.5893,-2.5893,-2.5893,-2.5893,-2.5312,-2.5312,-2.5312,-2.5312,-2.5312,-2.5312,-2.5312,-2.5312,-2.5312,-2.5312,-2.5312,-2.5312,-2.5312,-2.5312,-2.5312,-2.5312,-2.5791,-2.5873,-2.5335,-2.5791,-2.5826,-2.5312,-2.5312,-2.5312,-2.5312,-2.5312,-2.5418,-2.5616,-2.5616,-2.5636,-2.5672,-2.6185,-2.668,-2.7183,-2.7183,-2.7048,-2.6867,-2.7069,-2.7438,-2.7841,-2.7604,-2.8111,-2.8849,-2.765,-2.7782,-2.8578,-2.8051,-2.7874,-2.7992,-2.877,-2.9011,-2.8972,-2.8769,-2.8141,-2.7397,-2.6947,-2.6371,-2.5893,-2.5893,-2.5893,-2.5893,-2.5893,-2.5893,-2.5893,-2.5893,-2.5893,-2.5893,-2.5893,-2.5893,-2.5729,-2.5118,-2.5005,-2.4793,-2.4108,-2.364,-2.3433,-2.3699,-2.3374,-2.3027,-2.2859,-2.3148,-2.3234,-2.2869,-2.2771,-2.2603,-2.2287,-2.2226,-2.213,-2.1973,-2.2114,-2.2208,-2.2208,-2.2376,-2.2662,-2.3097,-2.3938,-2.4585,-2.5021,-2.5598,-2.5893,-2.5893,-2.5893,-2.5893,-2.5893,-2.5893,-2.5893,-2.5893,-2.5893,-2.5893,-2.5893,-2.5893,-2.5893,-2.5893,-2.5893,-2.5784,-2.5647,-2.5312,-2.5312,-2.5312,-2.5312,-2.5312,-2.5312,-2.5312,-2.5312,-2.5312,-2.5312,-2.5312,-2.5312,-2.5312,-2.5312,-2.5312,-2.5312,-2.5312,-2.5312,-2.5312,-2.5312,-2.5312,-2.5312,-2.5312,-2.5312,-2.5312,-2.5312,-2.5652,-2.638,-2.638,-2.6417,-2.6498,-2.6498,-2.6462,-2.6414,-2.6414,-2.6,-2.5382,-2.6104,-2.6414,-2.6483,-2.7217,-2.7517,-2.7438,-2.6688,-2.6414,-2.6449,-2.6414,-2.6427,-2.6531,-2.7346,-2.7602,-2.774,-2.8463,-2.7832,-2.6821,-2.6807,-2.6371,-2.5893,-2.5893,-2.5893,-2.5893,-2.5893,-2.5893,-2.5893,-2.5893,-2.5893,-2.5893,-2.5893,-2.5893,-2.5729,-2.5118,-2.5005,-2.4793,-2.4108,-2.3992,-2.3787,-2.3207,-2.3088,-2.2889,-2.2278,-2.325,-2.3505,-2.2328,-2.3282,-2.3465,-2.2275,-2.2206,-2.1959,-2.1426,-2.1926,-2.2208,-2.2208,-2.2774,-2.3083,-2.3097,-2.4374,-2.4992,-2.5021,-2.5598,-2.5893,-2.5893,-2.5893,-2.5893,-2.5893,-2.5893,-2.5893,-2.5893,-2.5893,-2.5893,-2.5893,-2.5893,-2.5893,-2.5893,-2.5893,-2.5536,-2.5005,-2.5312,-2.5312,-2.5312,-2.5312,-2.5312,-2.5312,-2.5312,-2.5312,-2.5312,-2.5312,-2.5312,-2.5312,-2.5312,-2.5312,-2.5312,-2.5312,-2.5312,-2.5312,-2.5312,-2.5312,-2.5312,-2.5312,-2.5312,-2.5312,-2.5312,-2.5312,-2.5418,-2.5652,-2.5652,-2.5671,-2.5682,-2.5682,-2.5689,-2.5652,-2.6173,-2.6277,-2.6104,-2.6845,-2.7149,-2.7116,-2.6845,-2.7048,-2.7371,-2.6126,-2.6264,-2.7082,-2.6586,-2.6722,-2.7258,-2.7967,-2.7945,-2.7659,-2.7975,-2.7481,-2.6722,-2.6315,-2.6048,-2.5893,-2.5893,-2.5893,-2.5893,-2.5893,-2.5893,-2.5893,-2.5893,-2.5591,-2.5286,-2.5286,-2.5286,-2.523,-2.5033,-2.5005,-2.465,-2.3564,-2.3386,-2.3314,-2.3118,-2.275,-2.2561,-2.2781,-2.2793,-2.2732,-2.2671,-2.2744,-2.2576,-2.2156,-2.1843,-2.1754,-2.1934,-2.2124,-2.2208,-2.2208,-2.2774,-2.3308,-2.3783,-2.4599,-2.5217,-2.5612,-2.5809,-2.5893,-2.5893,-2.5481,-2.5508,-2.5866,-2.5481,-2.5536,-2.5893,-2.5893,-2.5893,-2.5893,-2.5893,-2.5893,-2.5839,-2.5453,-2.5174,-2.4935,-2.5889,-2.5889,-2.5853,-2.5636,-2.5612,-2.554,-2.5336,-2.5312,-2.5312,-2.5312,-2.5312,-2.5312,-2.5312,-2.5312,-2.5312,-2.5312,-2.5312,-2.5312,-2.5312,-2.5312,-2.5312,-2.5312,-2.5312,-2.5312,-2.5312,-2.5312,-2.5312,-2.5312,-2.5312,-2.5312,-2.5312,-2.5312,-2.5312,-2.5312,-2.5791,-2.6,-2.6035,-2.6471,-2.6663,-2.6629,-2.6161,-2.6264,-2.6561,-2.5652,-2.5884,-2.6595,-2.6139,-2.6264,-2.6794,-2.7524,-2.7509,-2.7261,-2.7678,-2.734,-2.6694,-2.6076,-2.5893,-2.5893,-2.5893,-2.5893,-2.5893,-2.5893,-2.5893,-2.5839,-2.5619,-2.5286,-2.492,-2.4666,-2.4637,-2.4637,-2.4637,-2.4408,-2.4018,-2.3386,-2.2889,-2.2659,-2.2902,-2.2439,-2.2266,-2.2689,-2.2641,-2.2561,-2.2641,-2.2531,-2.2379,-2.2167,-2.1813,-2.1776,-2.2166,-2.1993,-2.2004,-2.2235,-2.3014,-2.3754,-2.443,-2.5049,-2.5514,-2.5893,-2.5893,-2.5893,-2.5866,-2.5286,-2.5202,-2.5536,-2.4893,-2.4836,-2.5189,-2.5189,-2.5342,-2.5564,-2.5564,-2.5564,-2.5536,-2.5146,-2.4708,-2.4221,-2.6898,-2.6898,-2.6729,-2.625,-2.6117,-2.5925,-2.5432,-2.5336,-2.5312,-2.5312,-2.5312,-2.5312,-2.5312,-2.5312,-2.5312,-2.5312,-2.5312,-2.5312,-2.5312,-2.5312,-2.5312,-2.5312,-2.5312,-2.5312,-2.5312,-2.5312,-2.5312,-2.5312,-2.5312,-2.5312,-2.5312,-2.5312,-2.5312,-2.5312,-2.5312,-2.5312,-2.5312,-2.5312,-2.5312,-2.5312,-2.5312,-2.5312,-2.5312,-2.5312,-2.5312,-2.5312,-2.5312,-2.5335,-2.5496,-2.624,-2.6551,-2.6767,-2.7541,-2.7368,-2.675,-2.6132,-2.5921,-2.5893,-2.5893,-2.5893,-2.5893,-2.5893,-2.5893,-2.5729,-2.5146,-2.4977,-2.4765,-2.4121,-2.3962,-2.3962,-2.3992,-2.3446,-2.31,-2.3488,-2.2549,-2.198,-2.2567,-2.2216,-2.1968,-2.2123,-2.2659,-2.2811,-2.2216,-2.258,-2.2659,-2.2216,-2.1975,-2.1939,-2.2126,-2.1677,-2.1668,-2.2258,-2.3392,-2.4272,-2.4861,-2.5557,-2.5866,-2.5839,-2.5839,-2.5811,-2.5757,-2.5202,-2.492,-2.4878,-2.4237,-2.3962,-2.3992,-2.3992,-2.4366,-2.492,-2.492,-2.492,-2.492,-2.4878,-2.4134,-2.3088,-2.6898,-2.6898,-2.6849,-2.6717,-2.6382,-2.6057,-2.5925,-2.5564,-2.5312,-2.5312,-2.5312,-2.5312,-2.5312,-2.5312,-2.5312,-2.5312,-2.5312,-2.5312,-2.5312,-2.5312,-2.5312,-2.5312,-2.5312,-2.5312,-2.5312,-2.5312,-2.5312,-2.5312,-2.5312,-2.5312,-2.5312,-2.5312,-2.5312,-2.5312,-2.5312,-2.5312,-2.5312,-2.5312,-2.5312,-2.5312,-2.5312,-2.5312,-2.5312,-2.5312,-2.5312,-2.5312,-2.5312,-2.5652,-2.6161,-2.6354,-2.715,-2.7988,-2.7731,-2.7598,-2.7425,-2.6778,-2.6259,-2.5893,-2.5893,-2.5893,-2.5893,-2.5893,-2.5893,-2.5729,-2.5146,-2.4609,-2.4179,-2.4021,-2.364,-2.3433,-2.3904,-2.3758,-2.3475,-2.313,-2.2677,-2.2292,-2.1968,-2.1824,-2.1761,-2.1824,-2.2018,-2.208,-2.1855,-2.2154,-2.2266,-2.1999,-2.168,-2.1529,-2.1588,-2.1462,-2.1663,-2.2219,-2.3393,-2.385,-2.3561,-2.5122,-2.5674,-2.5202,-2.5202,-2.495,-2.4425,-2.4295,-2.4237,-2.4208,-2.3581,-2.3581,-2.3992,-2.3992,-2.4092,-2.4237,-2.4237,-2.4237,-2.4179,-2.3712,-2.3357,-2.3027,-2.7618,-2.7618,-2.7534,-2.7294,-2.7006,-2.6671,-2.6178,-2.5853,-2.5588,-2.5336,-2.5312,-2.5312,-2.5312,-2.5312,-2.5312,-2.5312,-2.5312,-2.5312,-2.5312,-2.5312,-2.5312,-2.5312,-2.5312,-2.5312,-2.5312,-2.554,-2.5673,-2.5673,-2.5432,-2.5312,-2.5312,-2.5312,-2.5312,-2.5312,-2.5312,-2.5312,-2.5312,-2.5312,-2.5312,-2.5312,-2.5312,-2.5312,-2.5312,-2.5312,-2.5312,-2.5312,-2.5312,-2.5558,-2.6,-2.6676,-2.7404,-2.8096,-2.842,-2.8358,-2.8101,-2.7439,-2.661,-2.5893,-2.5893,-2.5893,-2.5893,-2.5893,-2.5893,-2.566,-2.4751,-2.4208,-2.3771,-2.328,-2.2841,-2.2647,-2.298,-2.2919,-2.2781,-2.2567,-2.2218,-2.1951,-2.1937,-2.1718,-2.158,-2.1698,-2.1761,-2.1781,-2.1698,-2.1855,-2.1937,-2.1894,-2.1737,-2.1673,-2.1765,-2.1765,-2.1905,-2.2227,-2.3121,-2.3563,-2.3506,-2.4535,-2.4879,-2.4551,-2.4551,-2.4366,-2.3992,-2.3699,-2.3581,-2.3551,-2.2962,-2.2871,-2.3173,-2.3173,-2.3327,-2.3581,-2.3581,-2.3581,-2.3551,-2.3225,-2.2919,-2.2641,-2.851,-2.851,-2.8366,-2.7921,-2.7738,-2.7378,-2.6478,-2.6202,-2.5937,-2.5492,-2.536,-2.5312,-2.5312,-2.5312,-2.5312,-2.5312,-2.5312,-2.5312,-2.5312,-2.5312,-2.5312,-2.5312,-2.5312,-2.5312,-2.5312,-2.5829,-2.6093,-2.6093,-2.5648,-2.5432,-2.5432,-2.5348,-2.5312,-2.5312,-2.5312,-2.5312,-2.5312,-2.5312,-2.5312,-2.5312,-2.5312,-2.5312,-2.5312,-2.5312,-2.5312,-2.5312,-2.5312,-2.5382,-2.5652,-2.6765,-2.7371,-2.7835,-2.8944,-2.9013,-2.8577,-2.7988,-2.6947,-2.602,-2.5921,-2.5893,-2.5893,-2.5893,-2.5893,-2.5605,-2.4467,-2.4005,-2.3535,-2.2561,-2.208,-2.1874,-2.1874,-2.1749,-2.1718,-2.1975,-2.1537,-2.1391,-2.1968,-2.1663,-2.1443,-2.1592,-2.1635,-2.1667,-2.1667,-2.1667,-2.1761,-2.1894,-2.1874,-2.1968,-2.2123,-2.2135,-2.2153,-2.2234,-2.2819,-2.3374,-2.3992,-2.3816,-2.3758,-2.3875,-2.3846,-2.38,-2.3712,-2.3237,-2.2997,-2.2889,-2.2359,-2.2135,-2.2154,-2.2154,-2.2469,-2.295,-2.295,-2.295,-2.295,-2.295,-2.2641,-2.2197,-2.851,-2.851,-2.8486,-2.8402,-2.7978,-2.763,-2.75,-2.6683,-2.6069,-2.5985,-2.5588,-2.5312,-2.5312,-2.5312,-2.5312,-2.5312,-2.5312,-2.5312,-2.5312,-2.5312,-2.5312,-2.5312,-2.5312,-2.5312,-2.5312,-2.5829,-2.6093,-2.6093,-2.6021,-2.5973,-2.5961,-2.5516,-2.5312,-2.5312,-2.5312,-2.5312,-2.5312,-2.5312,-2.5312,-2.5312,-2.5312,-2.5312,-2.5312,-2.5312,-2.5312,-2.5312,-2.5312,-2.5687,-2.6173,-2.5791,-2.6841,-2.8266,-2.7934,-2.8234,-2.8577,-2.7988,-2.7256,-2.6554,-2.6034,-2.5893,-2.5893,-2.5893,-2.5893,-2.5784,-2.5355,-2.4494,-2.3682,-2.3225,-2.2396,-2.173,-2.173,-2.158,-2.1463,-2.1482,-2.1348,-2.1221,-2.1348,-2.1285,-2.1221,-2.1253,-2.138,-2.1463,-2.1463,-2.158,-2.1761,-2.1894,-2.1812,-2.1781,-2.1937,-2.1855,-2.1839,-2.1949,-2.2688,-2.3374,-2.3992,-2.3005,-2.2732,-2.3237,-2.3118,-2.2871,-2.2482,-2.2616,-2.2463,-2.2068,-2.1874,-2.1843,-2.1968,-2.1968,-2.208,-2.2328,-2.2328,-2.2328,-2.2328,-2.2328,-2.2278,-2.2197,-2.851,-2.851,-2.851,-2.851,-2.8306,-2.8014,-2.7726,-2.7296,-2.6755,-2.6178,-2.5877,-2.5624,-2.5336,-2.5312,-2.5312,-2.5312,-2.5312,-2.5312,-2.5312,-2.5312,-2.5312,-2.5312,-2.5312,-2.5576,-2.6129,-2.6129,-2.6382,-2.6971,-2.6683,-2.655,-2.6538,-2.5985,-2.5733,-2.5721,-2.5432,-2.5312,-2.5312,-2.5312,-2.5312,-2.5312,-2.5312,-2.5312,-2.5312,-2.5312,-2.5312,-2.5312,-2.5312,-2.5511,-2.5826,-2.5861,-2.6561,-2.7458,-2.7887,-2.8062,-2.8063,-2.7856,-2.7116,-2.6245,-2.5978,-2.5674,-2.5481,-2.5811,-2.5674,-2.5342,-2.5033,-2.4279,-2.3463,-2.2919,-2.2137,-2.1537,-2.1537,-2.1463,-2.1388,-2.1305,-2.1253,-2.119,-2.119,-2.119,-2.119,-2.119,-2.1253,-2.1273,-2.1273,-2.1443,-2.1569,-2.1632,-2.1655,-2.173,-2.1781,-2.173,-2.173,-2.1781,-2.2223,-2.2628,-2.3022,-2.2377,-2.2235,-2.261,-2.2427,-2.2254,-2.203,-2.2099,-2.2006,-2.1781,-2.173,-2.173,-2.1781,-2.1781,-2.1855,-2.1949,-2.1999,-2.203,-2.2061,-2.2166,-2.2197,-2.2185,-2.851,-2.851,-2.851,-2.851,-2.851,-2.8378,-2.7969,-2.7762,-2.7378,-2.6586,-2.637,-2.6081,-2.5552,-2.5492,-2.5444,-2.5312,-2.5312,-2.5312,-2.5312,-2.5312,-2.5312,-2.5312,-2.5312,-2.5709,-2.6501,-2.6382,-2.6707,-2.7498,-2.7222,-2.7078,-2.7066,-2.655,-2.6298,-2.6274,-2.5733,-2.5492,-2.548,-2.536,-2.5312,-2.5312,-2.5312,-2.5312,-2.5312,-2.5312,-2.5312,-2.5312,-2.5312,-2.5418,-2.5616,-2.6,-2.638,-2.6786,-2.7597,-2.7608,-2.7359,-2.7187,-2.6353,-2.5508,-2.5839,-2.5564,-2.5286,-2.5619,-2.5397,-2.4977,-2.4523,-2.3888,-2.3225,-2.258,-2.187,-2.1368,-2.1368,-2.1368,-2.1305,-2.1221,-2.119,-2.119,-2.119,-2.119,-2.119,-2.119,-2.119,-2.119,-2.119,-2.1273,-2.1368,-2.1388,-2.1517,-2.1604,-2.1624,-2.1592,-2.1604,-2.1624,-2.1781,-2.1937,-2.2123,-2.1937,-2.1937,-2.2123,-2.1894,-2.18,-2.1843,-2.1655,-2.1592,-2.1624,-2.1604,-2.1592,-2.1624,-2.1624,-2.1655,-2.1698,-2.1812,-2.1843,-2.1874,-2.2042,-2.2061,-2.2073,-2.851,-2.851,-2.851,-2.851,-2.851,-2.8498,-2.8462,-2.8041,-2.7654,-2.757,-2.7138,-2.6621,-2.6105,-2.6045,-2.5841,-2.5348,-2.5312,-2.5312,-2.5312,-2.5312,-2.5312,-2.5312,-2.5312,-2.5348,-2.5432,-2.6333,-2.6873,-2.6958,-2.7402,-2.763,-2.7618,-2.709,-2.6837,-2.6813,-2.6286,-2.6045,-2.6009,-2.5516,-2.5312,-2.5312,-2.5312,-2.5312,-2.5312,-2.5312,-2.5312,-2.5312,-2.5312,-2.5721,-2.6208,-2.5581,-2.6299,-2.7226,-2.6133,-2.6238,-2.6572,-2.5515,-2.4708,-2.4397,-2.5578,-2.5866,-2.5702,-2.5202,-2.5285,-2.5229,-2.4334,-2.3607,-2.3027,-2.2665,-2.1846,-2.1221,-2.1221,-2.1221,-2.1221,-2.119,-2.119,-2.119,-2.119,-2.119,-2.119,-2.119,-2.119,-2.119,-2.119,-2.1221,-2.1285,-2.1388,-2.1316,-2.1285,-2.1431,-2.1316,-2.1285,-2.1431,-2.1612,-2.1781,-2.1937,-2.1781,-2.1781,-2.1937,-2.1588,-2.1537,-2.1698,-2.1391,-2.1316,-2.1431,-2.1285,-2.1316,-2.142,-2.142,-2.1549,-2.1698,-2.1698,-2.1698,-2.173,-2.173,-2.173,-2.173,-2.851,-2.851,-2.851,-2.851,-2.851,-2.851,-2.851,-2.8342,-2.8089,-2.7726,-2.751,-2.7186,-2.6633,-2.6175,-2.5888,-2.5817,-2.5397,-2.5218,-2.5276,-2.5312,-2.5312,-2.5312,-2.5312,-2.5456,-2.5793,-2.6067,-2.6605,-2.739,-2.7466,-2.7768,-2.8158,-2.7669,-2.739,-2.7366,-2.6863,-2.661,-2.6561,-2.6369,-2.6273,-2.6273,-2.6273,-2.6105,-2.5793,-2.5793,-2.5588,-2.5312,-2.5312,-2.5476,-2.5687,-2.537,-2.5687,-2.6061,-2.5695,-2.5524,-2.5307,-2.458,-2.4204,-2.4079,-2.4496,-2.4381,-2.4179,-2.425,-2.4076,-2.3813,-2.3547,-2.3058,-2.2573,-2.2249,-2.1639,-2.119,-2.119,-2.119,-2.119,-2.119,-2.119,-2.119,-2.119,-2.119,-2.119,-2.119,-2.119,-2.119,-2.119,-2.119,-2.1221,-2.1285,-2.1221,-2.1221,-2.1285,-2.1221,-2.1221,-2.1285,-2.136,-2.1529,-2.1761,-2.1612,-2.1612,-2.1761,-2.1526,-2.1431,-2.1506,-2.1296,-2.1221,-2.1285,-2.1221,-2.1221,-2.1273,-2.1273,-2.1316,-2.1391,-2.1474,-2.1506,-2.1549,-2.1667,-2.1698,-2.1667,-2.851,-2.851,-2.851,-2.851,-2.851,-2.851,-2.851,-2.851,-2.8378,-2.8017,-2.7969,-2.7726,-2.7122,-2.6625,-2.6253,-2.6185,-2.5587,-2.529,-2.5457,-2.5373,-2.5312,-2.5312,-2.5312,-2.548,-2.5841,-2.6055,-2.6556,-2.7349,-2.7555,-2.7874,-2.8311,-2.802,-2.7852,-2.7828,-2.7378,-2.7138,-2.7138,-2.697,-2.6898,-2.6898,-2.6898,-2.6669,-2.6358,-2.6358,-2.6129,-2.5781,-2.5781,-2.5781,-2.5781,-2.5781,-2.5781,-2.5768,-2.5576,-2.4884,-2.4057,-2.3485,-2.3327,-2.3297,-2.319,-2.2889,-2.2768,-2.3297,-2.3177,-2.295,-2.2829,-2.2494,-2.2187,-2.1939,-2.1526,-2.119,-2.119,-2.119,-2.119,-2.119,-2.119,-2.119,-2.119,-2.119,-2.119,-2.119,-2.119,-2.119,-2.119,-2.119,-2.119,-2.119,-2.119,-2.119,-2.119,-2.119,-2.127,-2.1431,-2.1399,-2.1608,-2.2019,-2.1704,-2.1655,-2.1838,-2.1655,-2.1499,-2.1336,-2.1253,-2.119,-2.119,-2.119,-2.119,-2.119,-2.119,-2.119,-2.1221,-2.1305,-2.1336,-2.1336,-2.1486,-2.1529,-2.1529,-2.851,-2.851,-2.851,-2.851,-2.851,-2.851,-2.851,-2.851,-2.851,-2.851,-2.851,-2.8227,-2.7493,-2.7406,-2.7103,-2.6353,-2.5798,-2.5579,-2.58,-2.5469,-2.5312,-2.5312,-2.5312,-2.5312,-2.5312,-2.6333,-2.681,-2.6621,-2.7656,-2.8099,-2.7893,-2.8111,-2.8219,-2.8195,-2.784,-2.769,-2.7654,-2.7138,-2.691,-2.691,-2.691,-2.691,-2.691,-2.691,-2.6898,-2.6898,-2.6898,-2.6898,-2.6898,-2.6898,-2.6898,-2.6705,-2.5648,-2.4242,-2.2851,-2.2123,-2.1906,-2.1874,-2.173,-2.1698,-2.1843,-2.2433,-2.2847,-2.2907,-2.2242,-2.1982,-2.1877,-2.1877,-2.1526,-2.119,-2.119,-2.119,-2.119,-2.119,-2.119,-2.119,-2.119,-2.119,-2.119,-2.119,-2.119,-2.119,-2.119,-2.119,-2.119,-2.119,-2.119,-2.119,-2.1201,-2.1201,-2.1399,-2.1883,-2.1906,-2.218,-2.2719,-2.218,-2.2004,-2.2201,-2.2004,-2.1663,-2.1201,-2.1201,-2.1201,-2.119,-2.119,-2.119,-2.119,-2.119,-2.119,-2.119,-2.119,-2.119,-2.119,-2.119,-2.119,-2.119,-2.851,-2.851,-2.851,-2.851,-2.851,-2.851,-2.851,-2.851,-2.8471,-2.8299,-2.8299,-2.8159,-2.7778,-2.7277,-2.6956,-2.6882,-2.6235,-2.5791,-2.5591,-2.5499,-2.5276,-2.4969,-2.5087,-2.5147,-2.5147,-2.5523,-2.593,-2.6382,-2.6948,-2.7437,-2.7893,-2.7962,-2.8002,-2.799,-2.8024,-2.806,-2.806,-2.8023,-2.8041,-2.8041,-2.8041,-2.7813,-2.745,-2.745,-2.7222,-2.6898,-2.6898,-2.6898,-2.6898,-2.6898,-2.6898,-2.6705,-2.5648,-2.4677,-2.3738,-2.2733,-2.2376,-2.2133,-2.1631,-2.1506,-2.1526,-2.169,-2.1846,-2.1815,-2.1537,-2.1443,-2.14,-2.14,-2.1285,-2.119,-2.119,-2.119,-2.119,-2.119,-2.119,-2.119,-2.119,-2.119,-2.119,-2.119,-2.119,-2.119,-2.119,-2.119,-2.119,-2.119,-2.119,-2.1351,-2.1675,-2.1697,-2.1927,-2.2444,-2.2455,-2.2708,-2.3178,-2.2708,-2.2489,-2.2556,-2.2489,-2.2191,-2.1697,-2.1697,-2.1502,-2.119,-2.119,-2.119,-2.119,-2.119,-2.119,-2.119,-2.119,-2.119,-2.119,-2.119,-2.119,-2.119,-2.8271,-2.8311,-2.8351,-2.8271,-2.8283,-2.8283,-2.8283,-2.8283,-2.8243,-2.8111,-2.807,-2.799,-2.7788,-2.7347,-2.7081,-2.7144,-2.6616,-2.6093,-2.5733,-2.5761,-2.5612,-2.5107,-2.5108,-2.5074,-2.4992,-2.5423,-2.58,-2.6165,-2.6772,-2.7243,-2.7598,-2.7708,-2.7748,-2.7748,-2.8059,-2.8219,-2.8219,-2.8431,-2.851,-2.851,-2.851,-2.8318,-2.8041,-2.8041,-2.7837,-2.7522,-2.7522,-2.7522,-2.7522,-2.7522,-2.7339,-2.694,-2.5993,-2.5123,-2.4271,-2.3376,-2.2735,-2.2218,-2.173,-2.1455,-2.1305,-2.1305,-2.1305,-2.1305,-2.1221,-2.119,-2.119,-2.119,-2.119,-2.119,-2.119,-2.119,-2.119,-2.119,-2.119,-2.119,-2.119,-2.119,-2.119,-2.119,-2.119,-2.119,-2.119,-2.119,-2.119,-2.119,-2.1385,-2.1606,-2.1883,-2.2111,-2.2455,-2.296,-2.2983,-2.3224,-2.3705,-2.3431,-2.3178,-2.2983,-2.2983,-2.2719,-2.2214,-2.1986,-2.1766,-2.1456,-2.1282,-2.119,-2.119,-2.119,-2.119,-2.119,-2.119,-2.119,-2.119,-2.119,-2.119,-2.119,-2.7962,-2.803,-2.8099,-2.7921,-2.7893,-2.7893,-2.7893,-2.7893,-2.7881,-2.7893,-2.7841,-2.7748,-2.7482,-2.7482,-2.7412,-2.7231,-2.6904,-2.6537,-2.6089,-2.6235,-2.6066,-2.555,-2.5294,-2.505,-2.4788,-2.5716,-2.6095,-2.5915,-2.6878,-2.7256,-2.7121,-2.7342,-2.7435,-2.7482,-2.7926,-2.8127,-2.8139,-2.8351,-2.8431,-2.8431,-2.8431,-2.8431,-2.8431,-2.8431,-2.8431,-2.8431,-2.8431,-2.8431,-2.8431,-2.8431,-2.7989,-2.7331,-2.6618,-2.5693,-2.474,-2.3979,-2.3108,-2.2309,-2.2052,-2.1617,-2.1259,-2.1259,-2.1224,-2.119,-2.119,-2.119,-2.119,-2.119,-2.119,-2.119,-2.119,-2.119,-2.119,-2.119,-2.119,-2.119,-2.119,-2.119,-2.119,-2.119,-2.119,-2.1213,-2.1259,-2.1305,-2.1328,-2.1328,-2.1732,-2.1986,-2.202,-2.2501,-2.2983,-2.3465,-2.3476,-2.3694,-2.4189,-2.42,-2.3959,-2.3476,-2.3476,-2.3212,-2.2731,-2.2226,-2.194,-2.186,-2.142,-2.119,-2.119,-2.119,-2.119,-2.119,-2.119,-2.119,-2.119,-2.119,-2.119,-2.119,-2.7933,-2.7921,-2.7962,-2.7933,-2.7893,-2.7893,-2.7893,-2.7893,-2.7841,-2.7603,-2.7574,-2.7493,-2.7301,-2.726,-2.726,-2.719,-2.7128,-2.6881,-2.6414,-2.6419,-2.6228,-2.5681,-2.5217,-2.4941,-2.4874,-2.5082,-2.5197,-2.5133,-2.5804,-2.6272,-2.6634,-2.6702,-2.691,-2.726,-2.7522,-2.7644,-2.7684,-2.7909,-2.8042,-2.8042,-2.8042,-2.8042,-2.8042,-2.8042,-2.8042,-2.8042,-2.8042,-2.8042,-2.8042,-2.8042,-2.7919,-2.7702,-2.7105,-2.666,-2.6073,-2.4722,-2.4058,-2.3605,-2.2765,-2.2145,-2.1766,-2.1766,-2.1456,-2.119,-2.119,-2.119,-2.119,-2.119,-2.119,-2.119,-2.119,-2.119,-2.119,-2.119,-2.119,-2.119,-2.119,-2.119,-2.119,-2.119,-2.119,-2.1351,-2.172,-2.2122,-2.2385,-2.2385,-2.2489,-2.2696,-2.3063,-2.3189,-2.3476,-2.4016,-2.4028,-2.4085,-2.42,-2.42,-2.4143,-2.4028,-2.4028,-2.3764,-2.3224,-2.2754,-2.2306,-2.186,-2.142,-2.119,-2.119,-2.119,-2.119,-2.119,-2.119,-2.119,-2.119,-2.119,-2.119,-2.119,-2.7598,-2.7626,-2.7667,-2.7598,-2.7557,-2.7557,-2.7557,-2.7557,-2.7516,-2.7371,-2.7371,-2.7342,-2.7231,-2.719,-2.719,-2.719,-2.719,-2.7116,-2.6852,-2.6829,-2.66,-2.6094,-2.5807,-2.5417,-2.4923,-2.4912,-2.4912,-2.4912,-2.5451,-2.5968,-2.6501,-2.6501,-2.6737,-2.7231,-2.7412,-2.7522,-2.7522,-2.78,-2.7893,-2.7893,-2.7893,-2.7893,-2.7893,-2.7893,-2.7893,-2.7893,-2.7893,-2.7893,-2.7881,-2.7748,-2.7708,-2.7661,-2.7283,-2.6908,-2.651,-2.5712,-2.501,-2.4372,-2.3615,-2.3029,-2.2559,-2.234,-2.2088,-2.1799,-2.1305,-2.119,-2.119,-2.119,-2.119,-2.119,-2.119,-2.119,-2.119,-2.119,-2.119,-2.1282,-2.1491,-2.1525,-2.1617,-2.1891,-2.1914,-2.2017,-2.226,-2.2524,-2.2719,-2.2719,-2.2903,-2.3121,-2.3396,-2.3637,-2.3925,-2.4189,-2.42,-2.42,-2.42,-2.42,-2.42,-2.42,-2.42,-2.4062,-2.3775,-2.3018,-2.2536,-2.2249,-2.1523,-2.119,-2.119,-2.119,-2.119,-2.119,-2.119,-2.119,-2.119,-2.119,-2.119,-2.119,-2.7272,-2.733,-2.7412,-2.7231,-2.719,-2.719,-2.719,-2.719,-2.719,-2.719,-2.719,-2.719,-2.719,-2.719,-2.719,-2.719,-2.719,-2.719,-2.719,-2.719,-2.7047,-2.6651,-2.6547,-2.6099,-2.5199,-2.5096,-2.4969,-2.4786,-2.5233,-2.5761,-2.6375,-2.6283,-2.6565,-2.7179,-2.7279,-2.736,-2.7441,-2.7667,-2.7771,-2.7771,-2.7771,-2.7771,-2.7771,-2.7771,-2.7771,-2.7771,-2.7771,-2.7771,-2.776,-2.7534,-2.7441,-2.74,-2.726,-2.6932,-2.6616,-2.6536,-2.5853,-2.5073,-2.459,-2.4028,-2.3453,-2.3144,-2.2903,-2.2512,-2.1753,-2.1454,-2.1328,-2.1328,-2.1259,-2.1224,-2.1305,-2.1328,-2.1351,-2.1443,-2.1454,-2.1604,-2.1996,-2.2053,-2.2214,-2.2661,-2.2754,-2.2811,-2.2811,-2.2891,-2.2972,-2.2972,-2.3339,-2.3533,-2.3533,-2.3971,-2.42,-2.42,-2.42,-2.42,-2.42,-2.42,-2.42,-2.42,-2.42,-2.42,-2.4166,-2.3236,-2.2765,-2.2661,-2.173,-2.127,-2.119,-2.119,-2.119,-2.119,-2.119,-2.119,-2.119,-2.119,-2.119,-2.119,-2.7231,-2.7231,-2.7231,-2.719,-2.719,-2.719,-2.719,-2.719,-2.719,-2.719,-2.719,-2.719,-2.719,-2.719,-2.719,-2.719,-2.719,-2.719,-2.719,-2.719,-2.7156,-2.7087,-2.6703,-2.6432,-2.6295,-2.583,-2.5176,-2.4292,-2.4372,-2.4889,-2.5807,-2.5337,-2.5876,-2.7167,-2.68,-2.6846,-2.7219,-2.7272,-2.7313,-2.7313,-2.7313,-2.7313,-2.7313,-2.7313,-2.7313,-2.7313,-2.7313,-2.7313,-2.7272,-2.726,-2.7219,-2.7219,-2.7231,-2.7144,-2.7047,-2.6639,-2.6409,-2.6191,-2.5647,-2.482,-2.4177,-2.4522,-2.3638,-2.2765,-2.3029,-2.2421,-2.1824,-2.1824,-2.1468,-2.1328,-2.1743,-2.1824,-2.1962,-2.2431,-2.2512,-2.2535,-2.257,-2.257,-2.2604,-2.2707,-2.3075,-2.3304,-2.3304,-2.3741,-2.3994,-2.3994,-2.4062,-2.4097,-2.4097,-2.4154,-2.42,-2.42,-2.42,-2.42,-2.42,-2.42,-2.42,-2.42,-2.42,-2.42,-2.4177,-2.3568,-2.3098,-2.2684,-2.2076,-2.1571,-2.119,-2.119,-2.119,-2.119,-2.119,-2.119,-2.119,-2.119,-2.119,-2.119,-2.719,-2.719,-2.719,-2.719,-2.719,-2.719,-2.719,-2.719,-2.719,-2.719,-2.719,-2.719,-2.719,-2.719,-2.719,-2.719,-2.719,-2.719,-2.719,-2.719,-2.719,-2.719,-2.7013,-2.676,-2.6513,-2.6283,-2.5773,-2.5038,-2.474,-2.4832,-2.5268,-2.5027,-2.5589,-2.6795,-2.6605,-2.6749,-2.719,-2.719,-2.719,-2.719,-2.719,-2.719,-2.719,-2.719,-2.719,-2.719,-2.719,-2.719,-2.719,-2.719,-2.719,-2.719,-2.719,-2.719,-2.7144,-2.6955,-2.6887,-2.6726,-2.5922,-2.5383,-2.4958,-2.4602,-2.4016,-2.358,-2.381,-2.327,-2.2662,-2.2409,-2.2168,-2.2109,-2.2306,-2.2352,-2.2421,-2.2673,-2.2719,-2.2777,-2.3064,-2.311,-2.3213,-2.3488,-2.3729,-2.3867,-2.3867,-2.4062,-2.42,-2.42,-2.42,-2.42,-2.42,-2.42,-2.42,-2.42,-2.42,-2.42,-2.42,-2.42,-2.42,-2.42,-2.42,-2.42,-2.4177,-2.3637,-2.3281,-2.3064,-2.2238,-2.1768,-2.1571,-2.1316,-2.119,-2.119,-2.119,-2.119,-2.119,-2.119,-2.119,-2.119]},{"header":{"parameterUnit":"m.s-1","parameterCategory":1,"la1":30.6,"la2":28.766,"lo1":-90.7593,"lo2":-88.6598,"dy":0.0162,"dx":0.0183,"nx":116,"ny":114,"refTime":"2023-09-03T12:00:00:Z","depth":0,"parameterNumber":3,"parameterNumberName":"V-component_of_WINDS"},"data":[0.0,0.0,0.0,0.0,0.0,0.0,0.0,0.0,0.0,0.0,0.0,0.0,0.0,0.0,0.0,0.0,0.0,0.0,0.0,0.0,0.0,0.0,0.0,0.0,0.0,0.0,0.0,0.0,0.0,0.0,0.0,0.0,0.0,0.0,0.0,0.0,0.0,0.0,0.0,0.0,0.0,0.0,0.0,0.0,0.0,0.0,0.0,0.0,0.0,0.0,0.0,0.0,0.0,0.0,0.0,0.0,0.0,0.0,0.0,0.0,0.0,0.0,0.0,0.0,0.0,0.0,0.0,0.0,0.0,0.0,0.0,0.0,0.0,0.0,0.0,0.0,0.0,0.0,0.0,0.0,0.0,0.0,0.0,0.0,0.0,0.0,0.0,0.0,0.0,0.0,0.0,0.0,0.0,0.0,0.0,0.0,0.0,0.0,0.0,0.0,0.0,0.0,0.0,0.0,0.0,0.0,0.0,0.0,0.0,0.0,0.0,0.0,0.0,0.0,0.0,0.0,0.0,0.0,0.0,0.0,0.0,0.0,0.0,0.0,0.0,0.0,0.0,0.0,0.0,0.0,0.0,0.0,0.0,0.0,0.0,0.0,0.0,0.0,0.0,0.0,0.0,0.0,0.0,0.0,0.0,0.0,0.0,0.0,0.0,0.0,0.0,0.0,0.0,0.0,0.0,0.0,0.0,0.0,0.0,0.0,0.0,0.0,0.0,0.0,0.0,0.0,0.0,0.0,0.0,0.0,0.0,0.0,0.0,0.0,0.0,0.0,0.0,0.0,0.0,0.0,0.0,0.0,0.0,0.0,0.0,0.0,0.0,0.0,0.0,0.0,0.0,0.0,0.0,0.0,0.0,0.0,0.0,0.0,0.0,0.0,0.0,0.0,0.0,0.0,0.0,0.0,0.0,0.0,0.0,0.0,0.0,0.0,0.0,0.0,0.0,0.0,0.0,0.0,0.0,0.0,0.0,0.0,0.0,0.0,0.0,0.0,0.0,0.0,0.0,0.0,0.0,0.0,0.0,0.0,0.0,0.0,0.0,0.0,0.0,0.0,0.0,0.0,0.0,0.0,0.0,0.0,0.0,0.0,0.0,0.0,0.0,0.0,0.0,0.0,0.0,0.0,0.0,0.0,0.0,0.0,0.0,0.0,0.0,0.0,0.0,0.0,0.0,0.0,0.0,0.0,0.0,0.0,0.0,0.0,0.0,0.0,0.0,0.0,0.0,0.0,0.0,0.0,0.0,0.0,0.0,0.0,0.0,0.0,0.0,0.0,0.0,0.0,0.0,0.0,0.0,0.0,0.0,0.0,0.0,0.0,0.0,0.0,0.0,0.0,0.0,0.0,0.0,0.0,0.0,0.0,0.0,0.0,0.0,0.0,0.0,0.0,0.0,0.0,0.0,0.0,0.0,0.0,0.0,0.0,0.0,0.0,0.0,0.0,0.0,0.0,0.0,0.0,0.0,0.0,0.0,0.0,0.0,0.0,0.0,0.0,0.0,0.0,0.0,0.0,0.0,0.0,0.0,0.0,0.0,0.0,0.0,0.0,0.0,0.0,0.0,0.0,0.0,0.0,0.0,0.0,0.0,0.0,0.0,0.0,0.0,0.0,0.0,0.0,0.0,0.0,0.0,0.0,0.0,0.0,0.0,0.0,0.0,0.0,0.0,0.0,0.0,0.0,0.0,0.0,0.0,0.0,0.0,0.0,0.0,0.0,0.0,0.0,0.0,0.0,0.0,0.0,0.0,0.0,0.0,0.0,0.0,0.0,0.0,0.0,0.0,0.0,0.0,0.0,0.0,0.0,0.0,0.0,0.0,0.0,0.0,0.0,0.0,0.0,0.0,0.0,0.0,0.0,0.0,0.0,0.0,0.0,0.0,0.0,0.0,0.0,0.0,0.0,0.0,0.0,0.0,0.0,0.0,0.0,0.0,0.0,0.0,0.0,0.0,0.0,0.0,0.0,0.0,0.0,0.0,0.0,0.0,0.0,0.0,0.0,0.0,0.0,0.0,0.0,0.0,0.0,0.0,0.0,0.0,0.0,0.0,0.0,0.0,0.0,0.0,0.0,0.0,0.0,0.0,0.0,0.0,0.0,0.0,0.0,0.0,0.0,0.0,0.0,0.0,0.0,0.0,0.0,0.0,0.0,0.0,0.0,0.0,0.0,0.0,0.0,0.0,0.0,0.0,0.0,0.0,0.0,0.0,0.0,0.0,0.0,0.0,0.0,0.0,0.0,0.0,0.0,0.0,0.0,0.0,0.0,0.0,0.0,0.0,0.0,0.0,0.0,0.0,0.0,0.0,0.0,0.0,0.0,0.0,0.0,0.0,0.0,0.0,0.0,0.0,0.0,0.0,0.0,0.0,0.0,0.0,0.0,0.0,0.0,0.0,0.0,0.0,0.0,0.0,0.0,0.0,0.0,0.0,0.0,0.0,0.0,0.0,0.0,0.0,0.0,0.0,0.0,0.0,0.0,0.0,0.0,0.0,0.0,0.0,0.0,0.0,0.0,0.0,0.0,0.0,0.0,0.0,0.0,0.0,0.0,0.0,0.0,0.0,0.0,0.0,0.0,0.0,0.0,0.0,0.0,0.0,0.0,0.0,0.0,0.0,0.0,0.0,0.0,0.0,0.0,0.0,0.0,0.0,0.0,0.0,0.0,0.0,0.0,0.0,0.0,0.0,0.0,0.0,0.0,0.0,0.0,0.0,0.0,0.0,0.0,0.0,0.0,0.0,0.0,0.0,0.0,0.0,0.0,0.0,0.0,0.0,0.0,0.0,0.0,0.0,0.0,0.0,0.0,0.0,0.0,0.0,0.0,0.0,0.0,0.0,0.0,0.0,0.0,0.0,0.0,0.0,0.0,0.0,0.0,0.0,0.0,0.0,0.0,0.0,0.0,0.0,0.0,0.0,0.0,0.0,0.0,0.0,0.0,0.0,0.0,0.0,0.0,0.0,0.0,0.0,0.0,0.0,0.0,0.0,0.0,0.0,0.0,0.0,0.0,0.0,0.0,0.0,0.0,0.0,0.0,0.0,0.0,0.0,0.0,0.0,0.0,0.0,0.0,0.0,0.0,0.0,0.0,0.0,0.0,0.0,0.0,0.0,0.0,0.0,0.0,0.0,0.0,0.0,0.0,0.0,0.0,0.0,0.0,0.0,0.0,0.0,0.0,0.0,0.0,0.0,0.0,0.0,0.0,0.0,0.0,0.0,0.0,0.0,0.0,0.0,0.0,0.0,0.0,0.0,0.0,0.0,0.0,0.0,0.0,0.0,0.0,0.0,0.0,0.0,0.0,0.0,0.0,0.0,0.0,0.0,0.0,0.0,0.0,0.0,0.0,0.0,0.0,0.0,0.0,0.0,0.0,0.0,0.0,0.0,0.0,0.0,0.0,0.0,0.0,0.0,0.0,0.0,0.0,0.0,0.0,0.0,0.0,0.0,0.0,0.0,0.0,0.0,0.0,0.0,0.0,0.0,0.0,0.0,0.0,0.0,0.0,0.0,0.0,0.0,0.0,0.0,0.0,0.0,0.0,0.0,0.0,0.0,0.0,0.0,0.0,0.0,0.0,0.0,0.0,0.0,0.0,0.0,0.0,0.0,0.0,0.0,0.0,0.0,0.0,0.0,0.0,0.0,0.0,0.0,0.0,0.0,0.0,0.0,0.0,0.0,0.0,0.0,0.0,0.0,0.0,0.0,0.0,0.0,0.0,0.0,0.0,0.0,0.0,0.0,0.0,0.0,0.0,0.0,0.0,0.0,0.0,0.0,0.0,0.0,0.0,0.0,0.0,0.0,0.0,0.0,0.0,0.0,0.0,0.0,0.0,0.0,0.0,0.0,0.0,0.0,0.0,0.0,0.0,0.0,0.0,0.0,0.0,0.0,0.0,0.0,0.0,0.0,0.0,0.0,0.0,0.0,0.0,0.0,0.0,0.0,0.0,0.0,0.0,0.0,0.0,0.0,0.0,0.0,0.0,0.0,0.0,0.0,0.0,0.0,0.0,0.0,0.0,0.0,0.0,0.0,0.0,0.0,0.0,0.0,0.0,0.0,0.0,0.0,0.0,0.0,0.0,0.0,0.0,0.0,0.0,0.0,0.0,0.0,0.0,0.0,0.0,0.0,0.0,0.0,0.0,0.0,0.0,0.0,0.0,0.0,0.0,0.0,0.0,0.0,0.0,0.0,0.0,0.0,0.0,0.0,0.0,0.0,0.0,0.0,0.0,0.0,0.0,0.0,0.0,0.0,0.0,0.0,0.0,0.0,0.0,0.0,0.0,0.0,0.0,0.0,0.0,0.0,0.0,0.0,0.0,0.0,0.0,0.0,0.0,0.0,0.0,0.0,0.0,0.0,0.0,0.0,0.0,0.0,0.0,0.0,0.0,0.0,0.0,0.0,0.0,0.0,0.0,0.0,0.0,0.0,0.0,0.0,0.0,0.0,0.0,0.0,0.0,0.0,0.0,0.0,0.0,0.0,0.0,0.0,0.0,0.0,0.0,0.0,0.0,0.0,0.0,0.0,0.0,0.0,0.0,0.0,0.0,0.0,0.0,0.0,0.0,0.0,0.0,0.0,0.0,0.0,0.0,0.0,0.0,0.0,0.0,0.0,0.0,0.0,0.0,0.0,0.0,0.0,0.0,0.0,0.0,0.0,0.0,0.0,0.0,0.0,0.0,0.0,0.0,0.0,0.0,0.0,0.0,0.0,0.0,0.0,0.0,0.0,0.0,0.0,0.0,0.0,0.0,0.0,0.0,0.0,0.0,0.0,0.0,0.0,0.0,0.0,0.0,0.0,0.0,0.0,0.0,0.0,0.0,0.0,0.0,0.0,0.0,0.0,0.0,0.0,0.0,0.0,0.0,0.0,0.0,0.0,0.0,0.0,0.0,0.0,0.0,0.0,0.0,0.0,0.0,0.0,0.0,0.0,0.0,0.0,0.0,0.0,0.0,0.0,0.0,0.0,0.0,0.0,0.0,0.0,0.0,0.0,0.0,0.0,0.0,0.0,0.0,0.0,0.0,0.0,0.0,0.0,0.0,0.0,0.0,0.0,0.0,0.0,0.0,0.0,0.0,0.0,0.0,0.0,0.0,0.0,0.0,0.0,0.0,0.0,0.0,0.0,0.0,0.0,0.0,0.0,0.0,0.0,0.0,0.0,0.0,0.0,0.0,0.0,0.0,0.0,0.0,0.0,0.0,0.0,0.0,0.0,0.0,0.0,0.0,0.0,0.0,0.0,0.0,0.0,0.0,0.0,0.0,0.0,0.0,0.0,0.0,0.0,0.0,0.0,0.0,0.0,0.0,0.0,0.0,0.0,0.0,0.0,0.0,0.0,0.0,0.0,0.0,0.0,0.0,0.0,0.0,0.0,0.0,0.0,0.0,0.0,0.0,0.0,0.0,0.0,0.0,0.0,0.0,0.0,0.0,0.0,0.0,0.0,0.0,0.0,0.0,0.0,0.0,0.0,0.0,0.0,0.0,0.0,0.0,0.0,0.0,0.0,0.0,0.0,0.0,0.0,0.0,0.0,0.0,0.0,0.0,0.0,0.0,0.0,0.0,0.0,0.0,0.0,0.0,0.0,0.0,0.0,0.0,0.0,0.0,0.0,0.0,0.0,0.0,0.0,0.0,0.0,0.0,0.0,0.0,0.0,0.0,0.0,0.0,0.0,0.0,0.0,0.0,0.0,0.0,0.0,0.0,0.0,0.0,0.0,0.0,0.0,0.0,0.0,0.0,0.0,0.0,0.0,0.0,0.0,0.0,0.0,0.0,0.0,0.0,0.0,0.0,0.0,0.0,0.0,0.0,0.0,0.0,0.0,0.0,0.0,0.0,0.0,0.0,0.0,0.0,0.0,0.0,0.0,0.0,0.0,0.0,0.0,0.0,0.0,0.0,0.0,0.0,0.0,0.0,0.0,0.0,0.0,0.0,0.0,0.0,0.0,0.0,0.0,0.0,0.0,0.0,0.0,0.0,0.0,0.0,0.0,0.0,0.0,0.0,0.0,0.0,0.0,0.0,0.0,0.0,0.0,0.0,0.0,0.0,0.0,0.0,0.0,0.0,0.0,0.0,0.0,0.0,0.0,0.0,-0.1911,-0.208,0.0,0.0,0.0,0.0,0.0,0.0,0.0,0.0,0.0,0.0,0.0,0.0,0.0,0.0,0.0,0.0,0.0,0.0,0.0,0.0,0.0,0.0,0.0,0.0,0.0,0.0,0.0,0.0,0.0,0.0,0.0,0.0,0.0,0.0,0.0,0.0,0.0,0.0,0.2785,0.3558,0.4061,0.4233,0.43,0.43,0.0,0.0,0.0,0.0,0.0,0.0,0.0,0.0,0.0,0.0,0.0,0.0,0.0,0.0,0.0,0.0,0.0,0.0,0.0,0.0,0.0,0.0,0.0,0.0,0.0,0.0,0.0,0.0,0.0,0.0,0.0,0.0,0.0,0.0,0.0,0.0,0.0,0.0,0.0,0.0,0.0,0.0,0.0,0.0,0.0,0.0,0.0,0.0,0.0,0.0,0.0,0.0,0.0,0.0,0.0,0.0,0.0,0.0,0.0,0.0,0.0,0.0,0.0,0.0,0.0,0.0,0.0,0.0,0.0,0.0,-0.1575,-0.176,0.0,0.0,0.0,0.0,0.0,0.0,0.0,0.0,0.0,0.0,0.0,0.0,0.0,0.0,0.0,0.0,0.0,0.0,0.0,0.0,0.0,0.0,0.0,-0.1109,-0.1109,-0.1109,-0.1109,-0.1109,0.0,0.0,0.0,0.0,0.0,0.0,0.0,0.0336,0.1108,0.2078,0.2618,0.3188,0.3792,0.4097,0.4233,0.4334,0.4761,0.0,0.0,0.0,0.0,0.0,0.0,0.0,0.0,0.0,0.0,0.0,0.0,0.0,0.0,0.0,0.0,0.0,0.0,0.0,0.0,0.0,0.0,0.0,0.0,0.0,0.0,0.0,0.0,0.0,0.0,0.0,0.0,0.0,0.0,0.0,0.0,0.0,0.0,0.0,0.0,0.0,0.0,0.0,0.0,0.0,0.0,0.0,0.0,0.0,0.0,0.0,0.0,0.0,0.0,0.0,0.0,0.0,0.0,0.0,0.0,0.0,0.0,0.0,0.0502,0.0322,-0.0057,-0.0029,-0.0293,-0.0821,-0.135,-0.1488,-0.1345,-0.163,0.0,0.0,0.0,0.0,0.0,0.0,0.0,0.0,0.0,0.0,0.0,0.0,0.0,0.0,0.0,0.0,0.0,0.0,0.0,0.0,0.0,-0.1109,-0.1109,-0.1109,-0.1109,-0.1109,-0.1109,0.0,0.0,0.0,0.0,0.0,0.0202,0.0739,0.1611,0.2846,0.3387,0.3692,0.3792,0.3859,0.4028,0.43,0.4367,0.4829,0.5548,0.0,0.0,0.0,0.0,0.0,0.0,0.0,0.0,0.0,0.0,0.0,0.0,0.0,0.0,0.0,0.0,0.0,0.0,0.0,0.0,0.0,0.0,0.0,0.0,0.0,0.0,0.0,0.0,0.0,0.0,0.0,0.0,0.0,0.0,0.0,0.0,0.0,0.0,0.0,0.0,0.0,0.0578,0.0578,0.0,0.0,0.0,0.0,0.0,0.0,0.0,0.0,0.0,0.0,0.0,0.0,0.0,0.0497,0.0426,0.0426,0.0425,0.0424,0.0537,0.055,0.0488,0.0627,0.0307,-0.0307,-0.0335,0.0,-0.0981,-0.1068,0.0,0.0,0.0,0.0,0.0,0.0,0.0,0.0,0.0,0.0,0.0,0.0,0.0,0.0,0.0,0.0,0.0,0.0,0.0,0.0,0.0,-0.1109,-0.1109,-0.1109,-0.1109,-0.1109,-0.1109,-0.1109,0.0,0.0,0.0,-0.0168,0.084,0.1076,0.1746,0.2817,0.3489,0.3792,0.3792,0.3995,0.4164,0.43,0.4628,0.5124,0.5816,0.651,0.0,0.0,0.0,0.0,0.0,0.0,0.0,0.0,0.0,0.0,0.0,0.0,0.0,0.0,0.0,0.0,0.0,0.0,0.0,0.0,0.0,0.0,0.0,0.0,0.0,0.0,0.0,0.0,0.0,0.0,0.0,0.0,0.0,0.0,0.0,0.0,0.0,0.0,0.0,0.1374,0.1386,0.1386,0.1386,0.1386,0.0,0.0,0.0,0.0,0.0,0.0,0.0,0.0,0.0,0.1396,0.1395,0.1398,0.1404,0.1404,0.1392,0.1368,0.1404,0.1283,0.0986,0.1059,0.079,0.0301,0.0335,0.0233,0.0033,-0.0382,-0.0734,-0.1037,0.0,0.0,0.0,0.0,-0.123,-0.126,0.0,0.0,0.0,0.0,0.0,0.0,0.0,0.0,0.0,0.0,0.0,0.0,-0.1109,-0.1109,-0.1109,-0.1109,-0.1109,-0.1042,-0.0908,-0.0908,-0.0672,-0.0134,-0.0101,0.0403,0.1444,0.1781,0.2217,0.282,0.3489,0.3859,0.3928,0.4126,0.4344,0.4616,0.5184,0.5573,0.5894,0.6883,0.733,0.7418,0.0,0.0,0.0,0.0,0.0,0.0,0.0,0.0,0.0,0.0,0.0,0.0,0.0,0.0,0.0,0.0,0.0,0.0,0.0,0.0,0.0,0.0,0.0,0.0,0.0,0.0,0.0,0.0,0.0,0.0,0.0,0.0,0.0,0.0,0.0,0.0,0.0,0.204,0.2051,0.2051,0.2051,0.2051,0.0,0.0,0.0,0.0,0.0,0.0,0.2132,0.2152,0.2135,0.212,0.2118,0.2141,0.2186,0.2203,0.2196,0.2165,0.2197,0.1985,0.1615,0.1639,0.1396,0.0972,0.0978,0.0922,0.0755,0.0238,-0.0236,-0.0584,-0.0206,-0.0275,-0.0652,-0.0647,-0.0747,-0.088,0.0,0.0,0.0,0.0,0.0,0.0,0.0,0.0,0.0,0.0,0.0,-0.1109,-0.1109,-0.1109,-0.1109,-0.1109,-0.1109,-0.0874,-0.037,-0.0336,-0.0101,0.0437,0.047,0.0906,0.1844,0.3052,0.3525,0.3159,0.3591,0.3961,0.427,0.4035,0.4429,0.5372,0.6036,0.6055,0.5657,0.6436,0.6929,0.7223,0.7413,0.0,0.0,0.0,0.0,0.0,0.0,0.0,0.0,0.0,0.0,0.0,0.0,0.0,0.0,0.0,0.0,0.0,0.0,0.0,0.0,0.0,0.0,0.0,0.0,0.0,0.0,0.0,0.0,0.0,0.0,0.0,0.0,0.0,0.0,0.0,0.0,0.0,0.0,0.2178,0.2178,0.0,0.0,0.0,0.0,0.2196,0.2166,0.219,0.2283,0.2232,0.2208,0.2185,0.2182,0.2185,0.2188,0.2211,0.2232,0.2287,0.2435,0.2448,0.2448,0.2563,0.2284,0.1657,0.1706,0.1402,0.0778,0.0703,0.0653,0.0617,0.0653,0.0617,0.0615,0.0529,0.0175,-0.0244,0.0,0.0,0.0,0.0,0.0,0.0,0.0,0.0,-0.1109,-0.1109,-0.1109,-0.1109,-0.1109,-0.1109,-0.1109,-0.1109,-0.1109,-0.0874,-0.0336,-0.0302,0.0101,0.0975,0.1008,0.1444,0.2383,0.2854,0.3255,0.3591,0.3759,0.4066,0.4446,0.481,0.5187,0.558,0.656,0.6873,0.6724,0.7216,0.7409,0.7389,0.746,0.7489,0.0,0.0,0.0,0.0,0.0,0.0,0.0,0.0,0.0,0.0,0.0,0.0,0.0,0.0,0.0,0.0,0.0,0.0,0.0,0.0,0.0,0.0,0.0,0.0,0.0,0.0,0.0,0.0,0.0,0.0,0.0,0.0,0.0,0.0,0.0,0.0,0.0,0.2237,0.2345,0.0,0.2685,0.2728,0.2685,0.2664,0.2676,0.2734,0.274,0.2764,0.2935,0.327,0.3304,0.3147,0.2863,0.2853,0.269,0.241,0.2491,0.2511,0.2512,0.2555,0.2474,0.2301,0.2305,0.2186,0.201,0.2017,0.1468,0.0729,0.1093,0.1021,0.0691,0.0685,0.0539,0.0323,0.0,0.0,0.0,0.0,0.0,0.0,0.0,0.0,-0.1109,-0.1109,-0.1109,-0.1109,-0.1109,-0.1109,-0.1109,-0.1109,-0.1109,-0.0806,-0.0067,-0.0034,0.047,0.1547,0.1714,0.2058,0.2724,0.2963,0.3317,0.3691,0.4004,0.432,0.4569,0.5336,0.5825,0.6133,0.7049,0.7601,0.777,0.7934,0.7859,0.7598,0.7598,0.7555,0.7489,0.0,0.0,0.0,0.0,0.0,0.0,0.0,0.0,0.0,0.0,0.0,0.0,0.0,0.0,0.0,0.0,0.0,0.0,0.0,0.0,0.0,0.0,0.0,0.0,0.0,0.0,0.0,0.0,0.0,0.0,0.0,0.0,0.0,0.0,0.3125,0.2969,0.2717,0.2828,0.3021,0.3231,0.3307,0.3276,0.3287,0.3537,0.3603,0.3366,0.3633,0.3836,0.3915,0.3953,0.38,0.3489,0.3516,0.3382,0.3123,0.3123,0.3123,0.3123,0.3123,0.3025,0.2944,0.2944,0.2873,0.2723,0.2723,0.2208,0.1419,0.1763,0.1687,0.1377,0.1317,0.1196,0.0932,0.0,0.0,0.0,0.0,0.0,0.0,0.0,-0.1109,-0.1109,-0.1109,-0.1109,-0.1109,-0.1109,-0.1109,-0.1109,-0.1076,-0.1076,-0.0605,0.047,0.0538,0.1042,0.2154,0.2522,0.2725,0.2833,0.3535,0.3759,0.3525,0.4328,0.4731,0.4776,0.5488,0.627,0.7076,0.7607,0.8183,0.8708,0.8505,0.8184,0.784,0.783,0.7693,0.7498,0.0,0.0,0.0,0.0,0.0,0.0,0.0,0.0,0.0,0.0,0.0,0.0,0.0,0.0,0.0,0.0,0.0,0.0,0.0,0.0,0.0,0.0,0.0,0.0,0.0,0.0,0.0,0.0,0.0,0.0,0.0,0.0,0.0,0.4429,0.3694,0.3404,0.3621,0.3644,0.3719,0.3858,0.3915,0.4005,0.4095,0.4751,0.4836,0.4189,0.4769,0.4758,0.4076,0.4036,0.4076,0.4118,0.421,0.4255,0.43,0.43,0.43,0.43,0.43,0.4032,0.3587,0.3587,0.3282,0.2786,0.2786,0.2794,0.274,0.2694,0.2692,0.2679,0.2559,0.2159,0.152,0.0,0.0,0.0,0.0,0.0,0.0,-0.1042,-0.1109,-0.1109,-0.1109,-0.1109,-0.1109,-0.1109,-0.1109,-0.0941,-0.0538,-0.0504,-0.0067,0.1008,0.1076,0.1412,0.2154,0.257,0.2917,0.3221,0.3493,0.3862,0.4362,0.463,0.509,0.5717,0.6468,0.7253,0.8027,0.8631,0.8992,0.9138,0.8935,0.8694,0.8425,0.8118,0.7911,0.7726,0.0,0.0,0.0,0.0,0.0,0.0,0.0,0.0,0.0,0.0,0.0,0.0,0.0,0.0,0.0,0.0,0.0,0.0,0.0,0.0,0.0,0.0,0.0,0.0,0.0,0.0,0.0,0.0,0.0,0.0,0.0,0.6655,0.6323,0.5429,0.5487,0.5386,0.4571,0.4711,0.4982,0.5235,0.5246,0.5485,0.5987,0.58,0.5588,0.5407,0.5155,0.5099,0.5236,0.5236,0.5075,0.4747,0.4775,0.4628,0.43,0.43,0.43,0.43,0.43,0.4032,0.3587,0.3587,0.3309,0.2893,0.2893,0.3059,0.3296,0.2854,0.2692,0.2688,0.2654,0.2246,0.1646,0.0,0.0,0.0,0.0,0.0,0.0,-0.0672,-0.0773,-0.084,-0.1076,-0.1109,-0.1109,-0.1109,-0.0908,-0.0638,-0.0336,-0.0101,0.0403,0.1244,0.1547,0.1995,0.2669,0.2917,0.3256,0.3727,0.3926,0.4232,0.4577,0.4846,0.5365,0.6149,0.6929,0.7743,0.8538,0.9073,0.9333,0.9404,0.9197,0.903,0.8817,0.8571,0.8245,0.793,0.7845,0.7735,0.7617,0.7522,0.7489,0.7489,0.7489,0.0,0.0,0.0,0.0,0.0,0.0,0.0,0.0,0.0,0.0,0.0,0.0,0.0,0.0,0.0,0.0,0.0,0.0,0.0,0.0,0.0,0.0,0.0,0.0,0.7582,0.7459,0.7143,0.6923,0.6577,0.5994,0.6148,0.6357,0.6553,0.6375,0.6372,0.6749,0.6478,0.6152,0.5823,0.5777,0.5722,0.5688,0.5688,0.5552,0.528,0.528,0.5149,0.4882,0.4882,0.4882,0.4882,0.4882,0.4612,0.4166,0.4166,0.3898,0.3499,0.3499,0.3542,0.3534,0.0,0.0,0.0,0.0,0.2481,0.206,0.0,0.0,0.0,0.0,0.0,0.0,-0.0134,-0.0269,-0.047,-0.0941,-0.1076,-0.1109,-0.1109,-0.0605,-0.0269,-0.0202,0.0269,0.0807,0.1379,0.1985,0.2623,0.3324,0.3408,0.371,0.4192,0.4583,0.4675,0.4579,0.5087,0.5712,0.6451,0.7219,0.8004,0.8831,0.922,0.9446,0.9592,0.9399,0.9202,0.9018,0.8995,0.8661,0.8099,0.7954,0.7854,0.7788,0.7593,0.7512,0.7489,0.7489,0.0,0.0,0.0,0.0,0.0,0.0,0.0,0.0,0.0,0.0,0.0,0.0,0.0,0.0,0.0,0.0,0.0,0.0,0.0,0.0,0.0,0.0,0.0,0.0,0.8661,0.8874,0.9028,0.8116,0.7466,0.7596,0.7646,0.7674,0.7699,0.7316,0.6997,0.6912,0.6912,0.6605,0.5863,0.6387,0.0,0.0,0.0,0.5688,0.5688,0.5688,0.5688,0.5688,0.5688,0.5688,0.5688,0.5688,0.546,0.501,0.501,0.4743,0.43,0.43,0.4076,0.3631,0.3141,0.3187,0.3491,0.3031,0.2798,0.2617,0.0,0.0,0.0,0.0,0.0,0.0,0.0437,-0.0034,-0.0336,-0.0437,-0.084,-0.1109,-0.1109,-0.0605,-0.0134,0.0302,0.084,0.1412,0.1985,0.2656,0.2995,0.3008,0.3572,0.3992,0.4262,0.4426,0.4866,0.5628,0.5878,0.6687,0.8,0.8313,0.8801,0.9442,0.9729,0.9762,0.9602,0.9559,0.9418,0.9211,0.9051,0.8746,0.8335,0.8297,0.8075,0.7811,0.7769,0.7641,0.7489,0.7489,0.7489,0.7489,0.7489,0.7489,0.0,0.0,0.0,0.0,0.0,0.0,0.0,0.0,0.0,0.0,0.0,0.0,0.0,0.0,0.0,0.0,0.0,0.0,0.0,0.8869,0.9178,0.9437,0.9479,0.9461,0.9164,0.8451,0.8524,0.8407,0.7829,0.8209,0.8229,0.7658,0.7614,0.7305,0.6605,0.6169,0.5863,0.5688,0.5688,0.5688,0.5688,0.5688,0.5688,0.5688,0.5688,0.0,0.5688,0.5688,0.546,0.501,0.501,0.4743,0.43,0.43,0.4255,0.4121,0.3631,0.3275,0.3051,0.335,0.3167,0.2766,0.0,0.0,0.0,0.0,0.0,0.0,0.0975,0.0672,0.0403,0.0134,-0.0134,-0.0302,-0.0302,0.0168,0.0605,0.0874,0.1412,0.1951,0.242,0.2755,0.3114,0.3493,0.3869,0.4222,0.465,0.467,0.4935,0.544,0.5924,0.6706,0.7797,0.8267,0.886,0.9446,0.9592,0.9639,0.9597,0.9489,0.938,0.9263,0.9065,0.8774,0.8392,0.8283,0.8179,0.8047,0.7769,0.765,0.7636,0.7527,0.7489,0.7489,0.7489,0.7489,0.7489,0.0,0.0,0.0,0.0,0.0,0.0,0.0,0.0,0.0,0.0,0.0,0.0,0.0,0.0,0.8425,0.0,0.0,0.9086,0.9258,0.947,0.9639,0.9786,0.9933,0.9826,0.9375,0.9408,0.9288,0.8934,0.889,0.8759,0.836,0.8009,0.7658,0.7305,0.665,0.6257,0.6257,0.5908,0.5688,0.5688,0.5688,0.5688,0.5688,0.5688,0.5688,0.5688,0.5688,0.5552,0.5371,0.5371,0.5238,0.4971,0.4746,0.4654,0.461,0.4389,0.3853,0.3275,0.3497,0.3298,0.2873,0.0,0.0,0.0,0.0,0.0,0.0,0.0,0.1379,0.1143,0.0706,0.0571,0.0504,0.0504,0.0975,0.1344,0.148,0.1985,0.2388,0.2586,0.2787,0.3227,0.3929,0.4118,0.4438,0.4938,0.4944,0.5107,0.5362,0.6004,0.6748,0.7585,0.8207,0.8769,0.9225,0.9268,0.9357,0.9475,0.9338,0.9258,0.9211,0.9051,0.8798,0.8439,0.8222,0.8203,0.8222,0.7783,0.7769,0.7923,0.7743,0.7684,0.7684,0.7684,0.7619,0.7498,0.7541,0.755,0.0,0.0,0.0,0.0,0.0,0.0,0.0,0.0,0.0,0.8212,0.8255,0.8562,0.8836,0.8878,0.9157,0.9413,0.9625,0.9663,0.9762,0.9971,0.9994,0.9994,0.9994,0.9994,0.9951,0.982,0.9375,0.8978,0.8711,0.8273,0.7965,0.779,0.7305,0.6953,0.6823,0.6213,0.5863,0.5688,0.5688,0.5688,0.5688,0.5688,0.5688,0.5688,0.5688,0.5688,0.5688,0.5688,0.5688,0.5688,0.528,0.5144,0.5144,0.5055,0.452,0.3853,0.3765,0.3454,0.3097,0.0,0.0,0.0,0.0,0.0,0.0,0.0,0.0,0.1277,0.121,0.0806,0.0504,0.0504,0.0975,0.1513,0.2052,0.242,0.252,0.2288,0.3157,0.361,0.348,0.4109,0.4569,0.4812,0.4817,0.5436,0.6672,0.6942,0.766,0.8788,0.9066,0.9147,0.9028,0.9202,0.9197,0.9065,0.9216,0.9183,0.9018,0.8995,0.8878,0.8647,0.8444,0.8151,0.7867,0.8006,0.819,0.8425,0.8404,0.8393,0.8393,0.8393,0.7977,0.7527,0.7721,0.7778,0.7821,0.8025,0.8063,0.8049,0.8077,0.8096,0.8163,0.0,0.0,0.8685,0.8878,0.9096,0.9272,0.9465,0.9536,0.9635,0.9928,0.9961,0.9971,0.9994,0.9994,0.9994,0.9994,0.9994,0.9728,0.9069,0.955,0.9331,0.8009,0.8448,0.8492,0.783,0.7742,0.7394,0.6823,0.6735,0.6343,0.5688,0.5688,0.5688,0.5688,0.5688,0.5688,0.5688,0.5688,0.5688,0.5688,0.5688,0.5688,0.5688,0.5644,0.5644,0.5597,0.5146,0.4921,0.4788,0.4389,0.3942,0.3542,0.0,0.0,0.0,0.0,0.0,0.0,0.0,0.0,0.0,0.1817,0.1614,0.148,0.148,0.1681,0.1918,0.2188,0.2321,0.2522,0.2757,0.3192,0.3637,0.4017,0.4333,0.4586,0.4724,0.4727,0.5229,0.6266,0.6707,0.7407,0.8294,0.8765,0.8916,0.8841,0.8921,0.8987,0.8981,0.8978,0.8911,0.8826,0.8708,0.8533,0.8344,0.8387,0.8217,0.8001,0.8087,0.8258,0.0,0.8856,0.8667,0.8361,0.8808,0.8468,0.7873,0.7963,0.7992,0.0,0.8091,0.8255,0.8439,0.0,0.8538,0.8685,0.8892,0.9001,0.9091,0.9141,0.9324,0.9498,0.9587,0.9743,0.9852,0.998,0.9994,0.9994,0.9994,0.9994,0.9994,0.9994,0.9994,0.9864,0.9554,0.9816,0.9728,0.9113,0.9375,0.9419,0.9109,0.8671,0.8317,0.8009,0.7614,0.7044,0.6343,0.6343,0.6124,0.5688,0.5688,0.5688,0.5688,0.5688,0.5688,0.5688,0.5688,0.5688,0.5688,0.5688,0.5688,0.5688,0.5463,0.5416,0.5371,0.4877,0.4255,0.3676,0.0,0.0,0.0,0.0,0.0,0.0,0.0,0.0,0.0,0.0,0.2188,0.2188,0.2188,0.2188,0.2188,0.2188,0.2287,0.2488,0.2891,0.3192,0.3592,0.4108,0.432,0.4514,0.4635,0.4638,0.5093,0.5962,0.6401,0.7052,0.7893,0.8342,0.8529,0.8529,0.8529,0.8618,0.8755,0.8595,0.8529,0.8524,0.8439,0.8307,0.8193,0.8406,0.8387,0.8245,0.8188,0.837,0.865,0.9089,0.8855,0.8463,0.9066,0.8714,0.8129,0.8151,0.8207,0.8264,0.8325,0.0,0.0,0.8859,0.8992,0.9122,0.9324,0.9371,0.9385,0.9483,0.962,0.9729,0.9729,0.9852,0.9994,0.9994,0.9994,0.9994,0.9994,0.9994,0.9994,0.9994,0.9994,0.9994,0.9994,0.9994,0.9994,0.9994,0.9994,0.9994,0.9994,0.9506,0.9109,0.889,0.836,0.779,0.7085,0.6908,0.6517,0.5994,0.5774,0.5688,0.5688,0.5688,0.5688,0.5688,0.5688,0.5688,0.5688,0.5688,0.5688,0.5688,0.5688,0.5688,0.5644,0.5327,0.4701,0.4076,0.0,0.0,0.0,0.0,0.0,0.0,0.0,0.0,0.0,0.0,0.0,0.0,0.0,0.2188,0.2188,0.2188,0.2487,0.2554,0.2255,0.319,0.3627,0.3263,0.3935,0.4357,0.4506,0.4509,0.5131,0.6384,0.6384,0.6992,0.8099,0.8099,0.8134,0.8134,0.8134,0.8139,0.8144,0.8139,0.8134,0.8153,0.8321,0.8396,0.8415,0.8618,0.8689,0.8656,0.8463,0.8692,0.9066,0.9095,0.909,0.9055,0.909,0.8639,0.8122,0.833,0.8529,0.8727,0.8901,0.8966,0.9023,0.9216,0.9268,0.9329,0.9545,0.9592,0.9649,0.9933,0.998,0.9985,0.9985,0.999,0.9994,0.9994,0.9994,0.9994,0.9994,0.9994,0.9994,0.9994,0.9994,0.9994,0.9994,0.9994,0.9994,0.9994,0.9994,0.9994,0.9994,0.9994,0.9641,0.8934,0.889,0.8492,0.7786,0.7129,0.6779,0.6779,0.6038,0.5688,0.5688,0.5688,0.5688,0.5688,0.5688,0.5688,0.5688,0.5688,0.5688,0.5688,0.5688,0.5688,0.5688,0.5688,0.5371,0.4966,0.0,0.0,0.0,0.0,0.0,0.0,0.0,0.0,0.0,0.0,0.0,0.0,0.0,0.0,0.0,0.0,0.2619,0.2854,0.3224,0.3591,0.3828,0.393,0.4167,0.4319,0.4357,0.4357,0.4993,0.6282,0.6282,0.6896,0.8115,0.8115,0.8115,0.8115,0.8115,0.8115,0.8115,0.8115,0.8039,0.7921,0.7962,0.799,0.8079,0.8821,0.9176,0.939,0.0,0.9591,0.9005,1.0073,0.9706,0.8931,0.9453,0.9121,0.8505,0.8581,0.8751,0.893,0.8966,0.9079,0.9235,0.9442,0.9493,0.955,0.98,0.9852,0.9909,0.998,0.9994,0.9994,0.9994,0.9994,0.9994,0.9994,0.9994,0.9994,0.9994,0.9994,0.9994,0.9994,1.0123,1.0156,1.0009,0.9994,0.9994,0.9994,0.9994,0.9994,0.9994,0.9994,0.9907,0.9641,0.9641,0.9288,0.854,0.8317,0.7746,0.6779,0.6038,0.5688,0.5688,0.5688,0.5688,0.5688,0.5688,0.5688,0.5688,0.5688,0.5688,0.5688,0.5688,0.5688,0.5688,0.5688,0.5599,0.5463,0.0,0.0,0.0,0.0,0.0,0.0,0.0,0.0,0.0,0.0,0.0,0.0,0.0,0.0,0.0,0.0,0.0,0.309,0.3558,0.3725,0.3892,0.4097,0.4233,0.43,0.43,0.4498,0.5071,0.6109,0.6274,0.6907,0.7892,0.7892,0.7892,0.7892,0.7892,0.7892,0.7892,0.7892,0.7864,0.7816,0.7816,0.7872,0.8124,0.9064,0.9516,0.0,1.1156,1.0801,0.982,1.0769,1.0207,0.9236,0.9728,0.9349,0.8718,0.8793,0.8916,0.9018,0.9164,0.9301,0.9446,0.97,0.9757,0.979,0.9966,0.9994,0.9994,0.9994,0.9937,0.9866,0.998,0.9937,0.9866,0.998,0.9994,0.9994,0.9994,1.0061,1.0108,1.0108,1.0298,1.0374,1.0232,1.0217,1.0189,1.0118,1.0175,1.0217,1.0217,1.0217,1.0184,1.0113,1.0108,0.9851,0.9288,0.9026,0.8317,0.7129,0.6432,0.6083,0.6083,0.5822,0.5688,0.5688,0.5688,0.5688,0.5688,0.5688,0.5688,0.5688,0.5688,0.5688,0.5688,0.5688,0.5688,0.5694,0.0,0.0,0.0,0.0,0.0,0.0,0.0,0.0,0.0,0.0,0.0,0.0,0.0,0.0,0.0,0.0,0.0,0.0,0.3259,0.3627,0.3825,0.3825,0.4131,0.43,0.43,0.4827,0.5355,0.5888,0.6445,0.6966,0.7489,0.7489,0.7489,0.7489,0.7489,0.7489,0.7489,0.7489,0.7612,0.7797,0.7797,0.8034,0.85,0.9295,0.9768,1.02,1.197,1.2154,1.1477,1.1248,0.0,0.9884,0.9841,0.9311,0.8746,0.8959,0.899,0.9089,0.9493,0.9611,0.9663,0.9947,0.9994,0.9994,0.9994,0.9985,0.998,0.998,0.9771,0.9649,0.0,0.0,0.9658,0.9961,0.9985,0.998,0.9994,1.018,1.0317,0.0,0.0,0.0,0.0,0.0,1.0569,1.0365,1.0516,1.0621,1.0621,1.0621,1.0531,1.0341,1.0322,1.0217,1.0013,0.9292,0.8536,0.7834,0.7173,0.6868,0.6823,0.6083,0.5777,0.5733,0.5733,0.5688,0.5688,0.5688,0.5688,0.5688,0.5688,0.5688,0.5688,0.5688,0.5688,0.5704,0.0,0.0,0.0,0.0,0.0,0.0,0.0,0.0,0.0,0.0,0.0,0.0,0.0,0.0,0.0,0.0,0.0,0.0,0.4,0.4131,0.4164,0.4164,0.4267,0.43,0.43,0.4827,0.5355,0.5888,0.6445,0.6966,0.7489,0.7489,0.7489,0.7489,0.7489,0.7489,0.7489,0.7489,0.7522,0.7574,0.7574,0.7935,0.8585,0.9536,1.0226,1.0913,1.2382,1.287,1.2756,0.0,0.0,0.0,0.0,0.8856,0.8746,0.8959,0.9089,0.9263,0.9531,0.9757,0.9928,0.998,0.9994,0.9994,0.9994,0.9833,0.9682,0.9682,0.9512,0.9428,0.0,0.0,0.0,0.9933,0.9823,0.0,0.9975,1.018,0.0,1.0317,0.0,1.0749,1.0589,1.0853,1.0953,1.0749,1.0683,1.0621,1.0621,1.0621,1.0597,1.0545,1.0398,1.0293,1.0236,0.9363,0.8803,0.8623,0.7878,0.7526,0.7526,0.6823,0.6517,0.6473,0.5949,0.5688,0.5688,0.5688,0.5688,0.5688,0.5688,0.5688,0.5688,0.5688,0.5688,0.5704,0.0,0.0,0.0,0.0,0.0,0.0,0.0,0.0,0.0,0.0,0.0,0.0,0.0,0.0,0.0,0.0,0.0,0.0,0.0,0.43,0.43,0.43,0.43,0.4398,0.4661,0.519,0.5719,0.6251,0.6773,0.7195,0.7489,0.7489,0.7489,0.7489,0.7489,0.7489,0.7489,0.7489,0.7546,0.0,0.0,0.7829,0.8433,0.9571,1.0284,1.0893,1.2384,1.3066,0.0,0.0,0.0,0.9771,0.897,0.8918,0.9155,0.9131,0.0,1.0429,1.0675,1.0659,1.0618,1.0883,1.0493,0.9994,0.9994,0.9795,0.9602,0.9602,0.9362,0.9244,0.9545,0.9357,0.936,0.0,0.0,0.0,0.9966,1.018,1.035,0.0,1.0693,0.0,1.0849,1.1057,1.1146,1.1038,1.0915,1.0849,1.0849,1.0849,1.0806,1.0716,1.0559,1.036,1.018,0.9657,0.9375,0.9375,0.8627,0.8312,0.8391,0.7722,0.7268,0.7015,0.6569,0.6207,0.5885,0.5831,0.5809,0.5803,0.571,0.5688,0.5688,0.5688,0.5688,0.5696,0.0,0.0,0.0,0.0,0.0,0.0,0.0,0.0,0.0,0.0,0.0,0.0,0.0,0.0,0.0,0.0,0.0,0.0,0.0,0.0,0.43,0.43,0.4367,0.4628,0.5087,0.569,0.6218,0.6708,0.7232,0.7489,0.7489,0.7489,0.7489,0.7489,0.7489,0.7489,0.7489,0.7489,0.7598,0.7754,0.7565,0.7841,0.8458,0.0,1.0202,1.0746,1.2236,0.0,0.0,0.0,1.0846,0.9916,0.897,0.9121,0.9572,0.9423,1.0372,1.152,1.2018,1.1777,1.15,1.2052,1.1292,1.0371,1.0173,1.0003,0.9801,0.9652,0.0,0.915,0.9484,0.9244,0.9228,0.9895,0.0,0.9677,0.9966,1.018,1.0348,1.0592,1.0764,1.0976,1.1175,1.1194,1.1194,1.1194,1.1194,1.1194,1.1194,1.1194,1.1104,1.0905,1.0683,1.0431,1.0042,1.0009,0.9994,0.9994,0.9362,0.9194,0.9317,0.8659,0.8107,0.7587,0.7493,0.7073,0.6405,0.6154,0.6064,0.6053,0.5801,0.5712,0.571,0.5694,0.5688,0.5691,0.0,0.0,0.0,0.0,0.0,0.0,0.0,0.0,0.0,0.0,0.5342,0.4511,0.0,0.0,0.0,0.0,0.0,0.0,0.0,0.0,0.0,0.43,0.4728,0.4987,0.5087,0.605,0.6609,0.6708,0.7232,0.7489,0.7489,0.7489,0.7489,0.7489,0.7489,0.7489,0.7489,0.7489,0.7512,0.7541,0.7503,0.8311,0.9515,0.9763,0.0,0.0,0.0,0.0,0.0,0.0,1.1473,1.0625,0.9155,0.8889,0.9221,0.9746,0.9924,1.0283,1.1655,1.1817,1.1703,1.1974,1.2375,1.2366,1.1037,1.1013,0.0,0.0,0.9403,0.9281,0.9344,0.9145,0.9228,0.9895,0.9776,0.9677,0.9966,1.018,1.0348,0.0,1.0764,1.0976,1.1175,1.1194,0.0,1.1194,1.1194,1.1194,1.1194,1.1194,1.1104,1.0905,1.0683,1.0502,1.0265,1.0085,0.9994,0.9999,1.0042,1.01,1.0097,0.9518,0.9233,0.9076,0.8512,0.8236,0.8045,0.7323,0.7038,0.6976,0.6196,0.5874,0.586,0.5723,0.5688,0.5702,0.0,0.0,0.0,0.0,0.0,0.0,0.0,0.6144,0.6303,0.6747,0.6137,0.5614,0.5503,0.5811,0.584,0.0,0.0,0.0,0.0,0.0,0.0,0.0,0.0,0.0,0.5914,0.6441,0.6839,0.7134,0.0,0.7489,0.7489,0.7489,0.7489,0.7521,0.7879,0.8004,0.8037,0.8393,0.8328,0.8004,0.8004,0.8458,0.916,0.0,0.0,0.0,0.0,0.0,0.0,0.0,1.1843,1.1107,0.9981,0.9804,1.0118,1.0661,1.131,1.2171,1.351,1.3553,1.3336,1.3758,1.3233,1.2433,1.1981,0.0,0.0,0.0,0.9815,0.9458,0.9898,0.9442,0.0,1.0186,1.0118,0.9969,1.0009,1.0255,0.0,1.0436,1.0598,1.0811,1.1019,1.1132,1.134,1.1585,1.1639,1.1487,1.1194,1.1194,1.1104,1.0905,1.0797,1.0641,1.0478,1.0374,1.0317,1.0322,1.0426,1.049,1.0603,1.0365,1.0082,0.9744,0.9408,0.902,0.8627,0.8163,0.7984,0.7923,0.7439,0.6968,0.6536,0.6472,0.6098,0.5696,0.0,0.0,0.0,0.0,0.0,0.0,0.0,0.5979,0.615,0.6635,0.6684,0.6598,0.6363,0.665,0.6568,0.0,0.0,0.0,0.0,0.0,0.0,0.0,0.0,0.0,0.0,0.0,0.0,0.7489,0.7489,0.0,0.0,0.0,0.0,0.0,0.8296,0.8646,0.8807,0.9384,0.9288,0.0,0.0,0.8935,0.0,0.0,0.0,0.0,0.0,0.0,0.0,0.0,1.2179,1.1754,1.1211,1.098,1.1041,1.1514,1.2645,1.4001,1.5148,1.5049,1.4789,1.5304,1.4054,1.2744,1.289,1.1945,0.0,0.0,1.0606,1.0138,1.0701,1.0232,0.9953,0.0,1.075,1.0614,1.0313,1.0549,1.0722,0.0,1.0728,0.0,1.12,1.1375,0.0,1.2122,1.2175,1.198,1.159,1.1536,1.1463,1.1302,1.1158,1.1005,1.0832,1.0691,1.0621,1.0621,1.0622,1.0731,1.0896,1.1034,1.0805,1.0265,1.0364,1.0015,0.9308,0.9024,0.8918,0.8854,0.8634,0.8048,0.7361,0.7328,0.6731,0.5955,0.0,0.0,0.0,0.0,0.0,0.0,0.0,0.6186,0.6341,0.6569,0.6599,0.6737,0.7069,0.7283,0.7391,0.0,0.0,0.0,0.0,0.0,0.0,0.0,0.0,0.0,0.0,0.0,0.0,0.7489,0.7489,0.0,0.0,0.0,0.0,0.0,0.0,0.9064,0.9709,0.9862,0.0,0.0,0.0,0.0,0.0,0.0,0.0,0.0,0.0,0.0,0.0,0.0,0.0,1.3001,1.2827,1.1983,1.115,1.1644,0.0,0.0,1.4605,1.476,1.4577,1.4903,1.5164,1.4972,1.3571,0.0,0.0,1.2446,1.2107,1.189,1.151,1.1814,1.1976,1.1326,1.1735,1.1901,1.1278,1.1198,1.1288,1.1439,0.0,0.0,1.223,1.2289,1.239,1.2694,1.2716,1.271,1.2667,1.2667,1.2657,1.2635,1.2002,1.1599,1.1579,1.0949,1.0621,1.0621,1.0773,1.0877,1.0901,1.1569,1.1614,1.1096,1.1585,1.1487,1.0895,1.0194,0.9895,0.9776,0.8906,0.8408,0.8203,0.8101,0.7489,0.671,0.0,0.0,0.0,0.0,0.0,0.0,0.5905,0.5967,0.6092,0.6386,0.6429,0.6565,0.692,0.719,0.7356,0.7479,0.0,0.0,0.0,0.0,0.0,0.0,0.0,0.0,0.0,0.0,0.7489,0.7489,0.7689,0.0,0.0,0.0,0.0,0.0,0.0,1.0135,1.0433,1.1007,0.0,0.0,0.0,0.0,0.0,0.0,0.0,0.0,0.0,0.0,0.0,0.0,0.0,0.0,1.3083,1.2934,0.0,0.0,1.3509,1.3928,1.5077,1.5287,1.5248,1.5365,1.5119,1.4797,1.4524,0.0,1.341,1.3229,1.2718,1.2361,1.2556,1.2557,1.2394,1.2058,1.2427,0.0,1.1408,0.0,1.1661,1.1462,1.1513,0.0,0.0,0.0,1.2606,1.3184,1.3534,1.3721,1.3721,1.3147,1.2813,1.2813,1.2528,1.2192,1.1897,1.1902,1.176,1.1474,1.1672,1.1799,1.1794,1.1926,1.1984,1.1927,1.1831,1.1709,1.1634,1.0998,1.0703,1.0699,1.032,0.9714,0.9021,0.8999,0.8332,0.7401,0.0,0.0,0.0,0.0,0.0,0.6241,0.6359,0.6386,0.6522,0.6753,0.6637,0.6635,0.6934,0.6975,0.7109,0.738,0.7455,0.0,0.0,0.0,0.0,0.0,0.0,0.0,0.0,0.0,0.8134,0.8226,0.8431,0.8683,0.0,0.0,0.9518,0.9983,0.0,0.0,0.0,0.0,0.0,0.0,0.0,0.0,0.0,0.0,0.0,0.0,0.0,0.0,0.0,0.0,0.0,0.0,0.0,0.0,0.0,0.0,1.4335,1.4727,1.5383,1.5569,1.5569,1.5569,1.4961,1.449,0.0,0.0,1.3513,1.3941,1.3455,1.311,1.348,1.3432,1.3225,1.3018,1.3208,1.3031,1.2132,1.21,0.0,0.0,0.0,1.2143,1.2432,1.275,1.3202,1.3715,1.4106,1.4298,1.4298,1.3624,1.3244,1.3244,1.3104,1.2813,1.2467,1.2667,1.2619,1.2219,1.2337,1.2414,1.2409,1.2248,1.227,1.2367,1.2173,1.2013,1.198,1.1585,1.134,1.1194,1.1194,1.0646,0.982,0.982,0.9116,0.8141,0.0,0.0,0.0,0.0,0.0,0.0,0.767,0.7797,0.7871,0.7877,0.7429,0.7176,0.7374,0.6872,0.6705,0.7157,0.7375,0.0,0.0,0.0,0.0,0.0,0.0,0.0,0.0,0.0,0.964,0.9983,0.9831,0.9862,0.999,0.9983,1.0363,1.0979,0.0,0.0,0.0,0.0,0.0,0.0,0.0,0.0,0.0,0.0,0.0,0.0,0.0,0.0,0.0,0.0,0.0,0.0,0.0,0.0,0.0,0.0,1.4456,1.5181,1.5189,1.5226,1.5226,1.5226,1.4919,1.4613,0.0,1.4605,1.4569,1.4605,1.4569,1.4499,1.4253,1.4733,1.4949,1.4294,1.4191,1.4056,1.3733,1.3094,0.0,0.0,0.0,1.3185,1.3444,1.3984,1.4292,1.4298,1.4298,1.4298,1.4298,1.4298,1.4298,1.4298,1.3775,1.3491,1.3491,1.3055,1.2813,1.2807,1.2527,1.2414,1.2409,1.2618,1.2594,1.2414,1.2869,1.267,1.198,1.198,1.1683,1.1194,1.1194,1.0943,1.0575,1.0575,0.9854,0.889,0.0,0.0,0.0,0.0,0.0,0.0,0.0,0.7871,0.7898,0.7898,0.7744,0.7666,0.7748,0.7694,0.7722,0.7877,0.7506,0.0,0.0,0.0,0.0,0.0,0.0,0.0,0.0,0.0,0.9805,0.9983,1.0174,1.0426,1.0703,1.0975,1.1327,1.1763,1.1919,1.2112,0.0,0.0,0.0,0.0,0.0,0.0,0.0,0.0,0.0,0.0,0.0,0.0,0.0,0.0,0.0,0.0,0.0,0.0,0.0,1.4316,0.0,0.0,1.4779,1.4779,1.4779,1.4779,1.4692,1.4605,1.4605,1.4605,1.4605,1.4605,1.4605,1.4565,1.4494,1.4867,1.4991,1.4315,1.4197,1.4022,0.0,0.0,0.0,1.3392,1.4021,1.4572,1.4917,1.5238,1.5443,1.5305,1.5166,1.4906,1.4576,1.4401,1.4298,1.4298,1.4154,1.3871,1.3491,1.3727,1.363,1.3292,1.3377,1.3351,1.313,1.3048,1.3027,1.3135,1.294,1.2899,1.3001,1.2667,1.2467,1.2257,1.2102,1.167,1.1109,1.0919,1.0365,0.9641,0.0,0.0,0.0,0.0,0.0,0.0,0.0,0.8527,0.8527,0.8527,0.8375,0.8243,0.8243,0.8157,0.811,0.8189,0.7933,0.0,0.0,0.0,0.0,0.0,0.0,0.0,1.0717,1.0692,1.0787,1.0968,1.1125,1.1313,1.1624,1.1864,1.2089,1.2313,1.2605,1.275,0.0,0.0,0.0,0.0,0.0,0.0,1.3368,0.0,0.0,0.0,0.0,0.0,0.0,0.0,0.0,0.0,0.0,0.0,0.0,0.0,1.4605,1.4605,0.0,1.4605,1.4605,1.4605,1.4605,0.0,1.4605,1.4605,1.4605,1.4605,1.4605,1.4605,1.4605,1.4787,1.4875,1.4636,1.4477,1.4292,0.0,0.0,0.0,1.4222,0.0,0.0,1.5527,1.5729,1.5771,1.5671,1.5538,1.5331,1.5,1.4606,1.4372,1.4372,1.4332,1.4154,1.3823,1.4106,1.4106,1.3817,1.3749,1.367,1.3501,1.3133,1.3169,1.3468,1.3144,1.3205,0.0,1.3201,1.2958,1.2797,1.2603,1.2156,1.1614,1.1429,1.0998,1.0511,0.0,0.0,0.0,0.0,0.0,0.0,0.0,0.9588,0.9588,0.9588,0.9164,0.8856,0.8856,0.8349,0.8108,0.8281,0.0,0.0,0.0,0.0,0.0,0.0,0.0,0.0,1.2274,1.2182,1.2282,1.259,1.2398,1.2428,1.259,1.259,1.2621,1.2683,1.3246,1.3541,1.3593,1.4231,1.4499,1.4499,1.4499,1.4499,0.0,0.0,0.0,0.0,0.0,0.0,0.0,0.0,0.0,0.0,0.0,0.0,0.0,0.0,0.0,0.0,0.0,1.4605,0.0,0.0,0.0,0.0,1.4605,1.4605,0.0,1.4605,1.4605,1.4605,1.4605,1.4605,1.4716,1.5094,1.4889,0.0,0.0,1.4936,0.0,0.0,1.5211,1.5323,1.5653,1.5623,1.563,1.5627,1.5606,1.5562,1.5538,1.4899,1.4578,1.4578,1.4447,1.4333,1.4244,1.4285,1.4285,1.4238,1.3749,1.3513,1.3501,1.297,1.3019,1.3513,1.3495,1.3507,1.3511,1.3511,1.3281,1.2905,1.2888,1.2558,1.2064,1.2027,1.1731,1.1348,0.0,0.0,0.0,0.0,0.0,0.0,0.0,0.0,0.0,0.0,0.9484,0.9406,0.9406,0.9295,0.9218,0.0,0.0,0.0,0.0,0.0,0.0,0.0,0.0,0.0,1.2305,1.2274,1.2367,1.259,1.256,1.256,1.259,1.259,1.2858,1.3299,1.345,1.3782,1.4291,1.444,1.4499,1.4499,1.4499,1.4499,0.0,0.0,0.0,0.0,1.5778,1.5507,0.0,0.0,0.0,0.0,0.0,0.0,0.0,0.0,1.5226,1.5374,1.4784,0.0,1.4605,1.4605,1.4605,1.4605,0.0,1.4605,1.4605,1.4605,0.0,1.4605,1.4605,1.4605,1.4629,1.4716,0.0,1.4416,1.4775,0.0,0.0,1.6672,1.6514,1.6584,1.7177,1.7016,1.6824,1.6734,1.6551,1.6247,1.5836,1.5455,1.5243,1.5243,1.5244,1.4735,1.3701,1.4193,1.4193,1.3701,1.3574,1.3513,1.3507,1.3175,1.3206,1.3507,1.3258,1.3423,1.3814,1.3814,1.388,1.3944,1.3696,1.3356,1.2875,1.2457,1.2021,1.1585,0.0,0.0,0.0,0.0,0.0,0.0,0.0,0.0,0.0,0.0,0.0,1.0233,1.001,0.995,0.0,0.0,0.0,0.0,0.0,0.0,0.0,0.0,0.0,1.2375,1.2428,1.2428,1.2644,1.3003,1.3003,1.3003,1.3011,1.3338,1.3489,1.3541,1.4103,1.4726,1.5362,1.5362,1.5362,1.5362,1.5362,0.0,0.0,0.0,0.0,0.0,1.6259,1.5961,0.0,1.541,1.5001,1.4572,0.0,0.0,0.0,0.0,1.5428,1.5621,1.4812,1.4605,1.4605,1.4605,1.4605,1.4605,1.4605,0.0,0.0,0.0,0.0,0.0,0.0,0.0,0.0,0.0,1.4613,0.0,0.0,0.0,1.6389,1.6959,1.6816,1.684,1.7254,1.7135,1.6972,1.6901,1.6763,1.6561,1.6293,1.5836,1.5569,1.5569,1.5569,1.5226,1.4443,1.4802,1.4802,1.4398,1.4089,1.4071,1.4205,1.3447,1.3393,1.3948,1.3497,1.3598,1.4087,1.4087,1.4171,1.4286,1.4141,1.3867,1.3496,1.322,1.2788,1.232,0.0,0.0,0.0,0.0,0.0,0.0,0.0,0.0,0.0,0.0,0.0,0.0,0.0,0.0,0.0,0.0,0.0,0.0,0.0,0.0,0.0,0.0,1.2705,1.2744,1.2744,1.2828,1.3125,1.3653,1.3653,1.3653,1.3662,1.4231,1.4261,1.3833,1.503,1.5865,1.6413,1.6413,1.6413,1.6413,1.6413,0.0,0.0,0.0,0.0,0.0,0.0,0.0,0.0,1.5555,1.5206,1.4831,1.5126,0.0,0.0,0.0,0.0,0.0,1.5026,1.4883,1.4883,1.4677,1.4605,1.4605,1.4605,0.0,0.0,0.0,0.0,0.0,0.0,1.4605,0.0,0.0,0.0,0.0,1.6039,1.6476,1.6713,1.6768,1.6729,1.6713,1.6768,1.6729,1.6689,1.6689,1.6689,1.6689,1.6689,1.6154,1.5888,1.594,1.594,1.593,1.5859,1.5683,1.5574,1.5441,1.4955,1.4919,1.5241,1.407,1.3983,1.4733,1.4114,1.4109,1.4566,1.447,1.4453,1.4436,1.434,1.4159,1.396,1.3924,1.3628,1.3227,0.0,0.0,0.0,0.0,0.0,0.0,0.0,0.0,0.0,0.0,0.0,0.0,0.0,0.0,0.0,0.0,0.0,0.0,0.0,0.0,0.0,1.4172,1.3662,1.3359,1.3359,1.3932,1.4261,1.435,1.435,1.435,1.435,1.444,1.4706,1.5147,1.5894,1.6288,1.6413,1.6413,1.6413,1.6413,1.6413,0.0,0.0,0.0,0.0,0.0,0.0,0.0,0.0,1.6259,1.6163,1.6126,1.6158,0.0,0.0,0.0,0.0,0.0,1.6,1.607,1.6237,1.4919,1.4605,1.4605,1.4605,0.0,0.0,0.0,0.0,0.0,0.0,1.4605,1.4605,0.0,0.0,1.5672,0.0,1.6317,1.6849,1.7159,1.6921,1.6816,1.7167,1.6913,1.6689,1.6689,1.6689,1.6689,1.6689,1.6607,1.6708,1.7057,1.7064,1.7168,1.7458,1.6616,1.5871,1.5338,1.5518,1.5756,1.6042,1.5559,1.5607,1.5923,1.5583,1.5621,1.5846,1.5166,1.5036,1.5146,1.4532,1.4268,1.4208,1.3984,1.3851,1.3791,0.0,0.0,0.0,0.0,0.0,0.0,0.0,0.0,0.0,0.0,0.0,0.0,0.0,0.0,0.0,0.0,0.0,0.0,0.0,0.0,1.4499,1.4499,1.4519,1.4371,1.4052,1.435,1.4647,1.5001,1.5001,1.5001,1.5001,1.5001,1.5332,1.5951,1.6259,1.6413,1.6413,1.6477,1.6506,1.6506,0.0,0.0,0.0,0.0,0.0,0.0,0.0,0.0,0.0,0.0,1.6413,1.6413,1.6413,0.0,0.0,0.0,0.0,0.0,1.6698,1.662,1.6724,1.6035,1.5542,1.524,1.524,1.4919,0.0,0.0,0.0,0.0,0.0,0.0,1.4668,1.4903,0.0,1.5745,1.5936,1.6404,1.6753,1.6969,1.68,1.6761,1.6969,1.6792,1.6776,1.7016,1.7032,1.7104,1.7286,1.7294,1.7374,1.7583,1.7583,1.7663,1.7814,1.7497,1.7149,1.6662,1.6603,1.6743,1.7018,1.6332,1.629,1.6699,1.623,1.6162,1.6404,1.6039,1.5933,1.6008,1.5676,1.5534,1.5453,1.4746,1.4319,1.4099,0.0,0.0,0.0,0.0,0.0,0.0,0.0,0.0,0.0,0.0,0.0,0.0,0.0,0.0,0.0,0.0,0.0,0.0,0.0,1.4704,1.4951,1.4951,1.5391,1.5323,1.4706,1.4854,1.5186,1.5623,1.5623,1.5623,1.5623,1.5671,1.5951,1.6413,1.6431,1.6459,1.6459,1.6552,1.6637,1.6666,0.0,0.0,0.0,0.0,0.0,0.0,0.0,0.0,0.0,0.0,0.0,0.0,0.0,0.0,0.0,1.7035,1.7523,1.8104,1.7345,1.7276,1.7379,1.7207,0.0,1.6,1.5833,1.5303,0.0,0.0,0.0,0.0,0.0,1.4605,0.0,1.5125,1.5459,1.5839,1.6158,1.6508,1.6689,1.6689,1.6768,1.6816,1.6816,1.6887,1.7096,1.7374,1.744,1.7544,1.7798,1.7814,1.7854,1.789,1.7942,1.793,1.8017,1.8287,1.8247,1.7898,1.7672,1.7748,1.8025,1.7198,1.709,1.7568,1.7044,1.6907,1.7099,1.6911,1.6864,1.6864,1.6676,1.6588,1.6506,1.5665,1.5162,1.4787,0.0,0.0,0.0,0.0,0.0,0.0,0.0,0.0,0.0,0.0,0.0,0.0,0.0,0.0,0.0,0.0,0.0,0.0,0.0,1.5902,1.6259,1.6259,1.6288,1.6019,1.5352,1.5951,1.6288,1.6316,1.6316,1.6316,1.6316,1.6467,1.6467,1.6402,1.6524,1.6581,1.6581,1.6599,1.6666,1.679,1.6818,0.0,0.0,0.0,0.0,0.0,0.0,0.0,0.0,0.0,0.0,0.0,0.0,0.0,1.7699,1.7637,1.8307,1.8865,1.8138,1.8418,1.8798,1.8104,1.7389,1.662,1.5965,1.5762,0.0,1.474,0.0,0.0,0.0,1.4605,1.4724,1.5125,1.5459,1.5839,1.6158,1.6508,1.6689,1.6689,1.7032,1.7239,1.7239,1.756,1.7751,1.7775,1.7775,1.779,1.7814,1.7814,1.7922,1.8247,1.8255,1.8414,1.8702,1.8726,1.8613,1.8263,1.853,1.8688,1.8756,1.8642,1.865,1.8696,1.865,1.8619,1.8589,1.7878,1.7598,1.7552,1.6864,1.6588,1.6581,1.6513,1.6466,1.644,0.0,0.0,0.0,0.0,0.0,0.0,0.0,0.0,0.0,0.0,0.0,0.0,0.0,0.0,0.0,0.0,0.0,0.0,0.0,1.6259,1.6413,1.6413,1.6413,1.6288,1.6019,1.6259,1.6413,1.6413,1.6477,1.6534,1.6524,1.6666,1.6694,1.6648,1.6694,1.6722,1.6722,1.6825,1.6881,1.6965,1.7418,1.7611,0.0,0.0,0.0,0.0,0.0,0.0,0.0,0.0,1.7011,1.6506,1.6431,1.7005,1.7699,1.7699,1.8371,1.9031,1.8764,1.8898,1.9031,1.8754,1.8486,0.0,0.0,1.649,1.614,1.4848,1.4991,0.0,0.0,0.0,1.5094,1.5435,1.5777,1.6134,1.6444,1.661,1.6689,1.6689,1.6816,1.7032,1.7297,1.739,1.7636,1.8065,1.8097,1.8192,1.8414,1.843,1.8486,1.8629,1.8629,1.8692,1.8781,1.8781,1.8764,1.8629,1.8764,1.8781,1.8781,1.8781,1.8781,1.8781,1.8781,1.8781,1.8781,1.8496,1.8396,1.835,1.8079,1.7699,1.7271,1.7271,1.6998,1.6588,0.0,0.0,0.0,0.0,0.0,0.0,0.0,0.0,0.0,0.0,0.0,0.0,0.0,0.0,0.0,0.0,0.0,0.0,1.641,1.6413,1.6413,1.6413,1.6413,1.6413,1.6413,1.6413,1.6413,1.6413,1.6477,1.6684,1.6955,1.6864,1.6892,1.7078,1.6948,1.6864,1.6864,1.6955,1.714,1.739,1.7902,1.8201,0.0,0.0,0.0,0.0,0.0,0.0,0.0,0.0,1.7573,1.6927,1.6835,1.725,1.7781,1.7843,1.8457,1.9108,1.9241,1.9175,1.9098,1.9142,0.0,0.0,1.7516,1.7242,1.6897,1.5578,1.5754,1.5938,1.5245,0.0,1.5624,1.5808,1.6047,1.6333,1.6642,1.6689,1.6689,1.6689,1.6792,1.7008,1.7254,1.7416,1.7671,1.8097,1.824,1.8406,1.8645,1.8718,1.8781,1.8781,1.8781,1.8781,1.8781,1.8781,1.8781,1.8781,1.8781,1.8781,1.8781,1.8781,1.8781,1.8781,1.8781,1.8781,1.8781,1.8781,1.8781,1.8781,1.8781,1.8496,1.8064,1.8064,1.7746,1.7286,0.0,0.0,0.0,0.0,0.0,0.0,0.0,0.0,0.0,0.0,0.0,0.0,0.0,0.0,0.0,0.0,0.0,0.0,1.6413,1.6413,1.6402,1.6402,1.6402,1.6402,1.6402,1.6402,1.6402,1.6402,1.6402,1.6864,1.7694,1.7106,1.7134,1.7694,1.7224,1.7011,1.7011,1.7011,1.7446,1.812,1.812,1.8483,1.9066,0.0,0.0,0.0,0.0,0.0,0.0,0.0,1.8741,1.7694,1.7694,1.7803,1.7945,1.8139,1.8638,1.9175,1.9506,1.9374,1.9131,0.0,0.0,0.0,1.8172,1.8003,1.7799,1.707,1.6906,1.6781,1.6368,1.63,1.6287,1.6213,1.6206,1.6333,1.6642,1.6689,1.6689,1.6689,1.7048,1.7321,1.7278,1.7615,1.7806,1.7814,1.8097,1.8295,1.8295,1.8629,1.8773,1.8773,1.8773,1.8773,1.8773,1.8773,1.8773,1.8773,1.8773,1.8773,1.8781,1.8781,1.8781,1.8781,1.8781,1.8781,1.8781,1.8781,1.8781,1.8781,1.8781,1.8781,1.8781,1.8781,1.8781,1.8781,0.0,0.0,0.0,0.0,0.0,0.0,0.0,0.0,0.0,0.0,0.0,0.0,0.0,0.0,0.0,0.0,0.0,0.0,1.7611,1.7595,1.7418,1.6972,1.6972,1.6972,1.6972,1.739,1.739,1.6972,1.7207,1.744,1.7728,1.8154,1.8224,1.7984,1.7847,1.8023,1.8387,1.7968,1.8159,1.8762,1.9148,1.9397,1.963,0.0,0.0,0.0,0.0,0.0,0.0,0.0,0.0,0.0,1.8109,1.8163,1.8193,1.8584,1.8965,1.9274,1.9539,1.9374,0.0,1.9285,0.0,0.0,0.0,1.8754,0.0,0.0,1.7021,1.6444,1.631,1.6275,1.6233,1.6214,1.6412,1.6578,1.6681,1.6689,1.6689,1.6689,1.6833,1.7,1.7254,1.7408,1.7568,1.7798,1.791,1.793,1.793,1.8025,1.8081,1.8081,1.8081,1.8081,1.8081,1.8081,1.8081,1.8081,1.8081,1.8343,1.8781,1.8781,1.8781,1.8781,1.8781,1.8781,1.8781,1.8781,1.8781,1.8781,1.8781,1.8781,1.8781,1.8781,1.8781,1.8781,0.0,0.0,0.0,0.0,0.0,0.0,0.0,0.0,0.0,0.0,0.0,0.0,0.0,0.0,0.0,0.0,0.0,0.0,0.0,1.8093,1.7929,1.7562,1.7562,1.7562,1.7562,1.7972,1.8108,1.7988,1.7749,1.7815,1.822,1.8197,1.8159,1.8093,1.8093,1.8294,1.8617,1.8509,1.8777,1.9344,1.9669,1.9939,2.0195,0.0,0.0,0.0,0.0,0.0,0.0,0.0,0.0,0.0,1.8871,1.8788,1.8728,1.931,1.9447,1.9483,1.9747,1.9517,0.0,1.9374,1.9351,1.9285,1.9208,0.0,0.0,0.0,1.7745,1.7126,1.6967,1.6771,1.6714,1.6893,1.7065,1.7326,1.7683,1.7723,1.7602,1.7245,1.7204,1.7179,1.7082,1.7064,1.7143,1.7342,1.7493,1.7615,1.7615,1.7743,1.7814,1.7814,1.7814,1.7814,1.7814,1.7814,1.7814,1.7814,1.7814,1.7993,1.8414,1.8557,1.8647,1.8781,1.8781,1.8781,1.8781,1.8781,1.8781,1.8781,1.8781,1.8781,1.8781,1.8781,1.8781,1.8781,0.0,0.0,0.0,0.0,0.0,0.0,0.0,0.0,0.0,0.0,0.0,0.0,0.0,0.0,0.0,0.0,0.0,0.0,0.0,1.8255,1.8228,1.8201,1.8201,1.8228,1.8228,1.8405,1.8753,1.9317,1.8224,1.8143,1.896,1.7804,1.7573,1.8174,1.8174,1.8228,1.8363,1.8869,1.9408,1.9888,1.9888,2.0195,2.0712,2.0739,0.0,0.0,0.0,0.0,0.0,0.0,0.0,0.0,1.9975,1.9719,1.9555,2.0343,2.0171,1.978,2.0107,1.978,0.0,1.9583,1.9473,0.0,1.9308,1.9208,1.9108,1.9108,0.0,1.8469,1.8119,1.7737,1.7634,1.8057,1.8118,1.8399,1.9177,1.9295,1.9027,1.8198,1.8078,1.7764,1.6976,1.6853,1.682,1.682,1.7165,1.7357,1.7315,1.7602,1.7719,1.7719,1.7719,1.7719,1.7762,1.7762,1.7762,1.7805,1.7805,1.7821,1.7861,1.8133,1.843,1.8732,1.8732,1.8778,1.8778,1.8824,1.8824,1.8778,1.8778,1.8732,1.8732,1.8732,1.8732,1.8732,0.0,0.0,0.0,0.0,0.0,0.0,0.0,0.0,0.0,0.0,0.0,0.0,0.0,0.0,0.0,0.0,0.0,0.0,0.0,1.9423,1.9305,1.8989,1.9056,1.9109,1.9109,1.9553,1.9939,2.022,1.9501,1.9044,1.8857,1.9083,1.9069,1.8827,1.8827,1.9317,2.0118,1.9773,1.9965,2.0524,2.0524,2.0574,2.0751,2.1184,2.1328,0.0,0.0,0.0,0.0,0.0,0.0,0.0,2.1571,2.1345,2.1032,2.1568,2.1201,2.0667,2.0848,2.0215,0.0,0.0,1.9572,1.9341,1.9517,1.9308,1.9108,1.9108,1.9083,1.9078,1.9129,1.8994,1.8967,1.9225,1.9116,1.9107,1.9256,1.9295,1.9225,1.9027,1.8727,1.8496,1.8304,1.7951,1.7708,1.7708,1.7792,1.7712,1.7392,1.7458,1.7334,1.6961,1.6953,1.7127,1.7499,1.7499,1.7623,1.7944,1.7944,1.8136,1.8431,1.807,1.7966,1.8045,1.8345,1.8477,1.8521,1.8871,1.8827,1.8477,1.8477,1.8301,1.8001,1.8001,1.8001,1.8037,0.0,0.0,0.0,0.0,0.0,0.0,0.0,0.0,0.0,0.0,0.0,0.0,0.0,0.0,0.0,0.0,0.0,0.0,0.0,0.0,1.9914,1.9682,1.9759,1.9773,1.9773,2.0156,2.0398,2.0486,2.0258,1.985,1.9279,1.9357,1.9277,1.9013,1.9277,1.9708,2.0271,2.0515,2.0798,2.1119,2.1394,2.1511,2.1551,2.1812,2.193,2.1982,2.2283,0.0,0.0,0.0,0.0,0.0,0.0,0.0,2.1831,2.2414,2.2051,2.1408,2.1155,0.0,0.0,1.9966,0.0,1.9605,1.9704,1.9539,1.9308,1.9208,1.9087,1.9111,1.9436,1.9363,1.9503,2.0217,2.0246,2.0314,2.0711,2.0788,2.0634,2.0197,1.9972,1.959,1.8926,1.8616,1.8496,1.8496,1.8011,1.7749,1.7828,1.7389,1.6982,1.6745,1.6745,1.6863,1.7108,1.7315,1.7519,1.7718,1.7906,1.8296,1.8772,1.8549,1.875,1.9281,1.9213,1.9179,1.9179,1.9435,1.923,1.8715,1.85,1.8413,1.8422,1.8154,1.8248,1.8465,0.0,0.0,0.0,0.0,0.0,0.0,0.0,0.0,0.0,0.0,0.0,0.0,0.0,0.0,0.0,0.0,0.0,0.0,0.0,0.0,0.0,2.0233,2.0283,2.0283,2.0283,2.0448,2.0537,2.0537,2.0662,2.0435,1.9939,1.9396,1.9146,1.9146,1.9703,2.0001,2.0168,2.1225,2.1668,2.1694,2.2205,2.2401,2.2413,2.2506,2.2531,2.2557,2.2663,2.2689,2.2634,2.211,0.0,0.0,0.0,0.0,2.2543,2.313,2.2816,2.2132,2.1585,0.0,2.0764,2.0096,1.99,0.0,1.99,1.9736,1.9539,1.9384,1.9189,1.9143,1.9549,1.9556,1.9902,2.1068,2.1214,2.1483,2.2279,2.2402,2.2128,2.1413,2.126,2.073,1.9487,1.9291,1.9224,1.9111,1.8297,1.7994,1.8406,1.7654,1.7148,1.7073,1.7073,1.711,1.7194,1.7538,1.7733,1.781,1.8145,1.8649,1.9277,1.924,1.9763,2.0692,2.0264,2.0107,2.0107,2.0149,1.9782,1.9168,1.8778,1.8735,1.8871,1.8488,1.8574,1.8914,0.0,0.0,0.0,0.0,0.0,0.0,0.0,0.0,0.0,0.0,0.0,0.0,0.0,0.0,0.0,0.0,0.0,0.0,2.0182,0.0,0.0,2.0461,2.0587,2.0624,2.0624,2.0662,2.0687,2.0687,2.0687,2.0649,2.0574,1.9965,1.9695,1.972,2.0299,2.0844,2.1329,2.1981,2.227,2.2283,2.2362,2.2388,2.2453,2.2923,2.3106,2.3171,2.3694,2.3877,2.3848,2.379,2.3784,0.0,0.0,0.0,2.3835,2.3953,2.3501,2.2967,0.0,0.0,2.0912,0.0,1.9976,1.99,0.0,0.0,1.9572,1.9572,1.9718,1.9917,2.0152,2.0505,2.1003,2.1748,2.1738,2.1813,2.2349,2.2402,2.2365,2.2241,2.1911,2.149,2.0866,2.0442,2.0058,1.9637,1.9475,1.9299,1.8997,1.8866,1.8608,1.8184,1.8184,1.8378,1.88,1.8858,1.9033,1.9372,1.9431,1.9826,2.0442,1.9872,1.9763,2.0065,2.0321,2.0439,2.0478,2.085,2.0429,1.9528,1.9448,1.8896,1.8145,1.8063,1.8104,1.8183,0.0,0.0,0.0,0.0,0.0,0.0,0.0,0.0,0.0,0.0,0.0,0.0,0.0,0.0,0.0,2.139,2.1066,2.0761,2.0498,2.0549,2.0612,2.0612,2.0687,2.0699,2.0699,2.0699,2.0699,2.0699,2.0699,2.0699,2.0699,2.0435,2.045,2.0759,2.1028,2.1258,2.1524,2.2459,2.2637,2.2342,2.3056,2.3341,2.3367,2.3629,2.3691,2.3731,2.3992,2.4083,2.4083,2.4083,2.4083,2.4083,2.4083,0.0,0.0,0.0,2.3894,2.3514,2.2756,2.1834,2.0944,0.0,2.0042,2.0009,2.0009,1.9878,1.9769,1.9769,1.9875,2.0032,2.04,2.0728,2.1133,2.1705,2.171,2.1714,2.193,2.1952,2.1952,2.1952,2.1818,2.1468,2.0922,2.0684,2.0483,2.0288,1.9687,1.9429,1.9596,1.9074,1.8655,1.8471,1.8471,1.8541,1.877,1.8982,1.931,1.9693,2.0088,2.041,2.0705,2.0751,2.0782,2.0874,2.0971,2.0998,2.1056,2.1521,2.1242,2.0459,2.0207,1.9801,1.9263,1.8767,1.8554,1.8452,0.0,0.0,0.0,0.0,0.0,0.0,0.0,0.0,0.0,0.0,0.0,0.0,0.0,0.0,0.0,0.0,2.1728,2.1434,2.1082,2.1057,2.1008,2.0873,2.0873,2.0823,2.0699,2.0699,2.0699,2.0699,2.0699,2.0699,2.0699,2.0831,2.1197,2.1721,2.1562,2.1618,2.1932,2.2804,2.2991,2.2769,2.3726,2.4083,2.4083,2.4083,2.4083,2.4083,2.4083,2.4083,2.4083,2.4083,2.4083,2.4083,2.4083,2.4083,0.0,0.0,0.0,0.0,0.0,0.0,2.1459,2.0796,2.0485,2.0356,0.0,0.0,1.9933,1.9933,1.9933,2.0052,2.0409,2.0608,2.0872,2.1354,2.1407,2.145,2.157,2.1592,2.1592,2.1592,2.1592,2.1387,2.0793,2.0748,2.0695,2.0543,1.9803,1.9538,2.0003,1.9297,1.8911,1.8911,1.8911,1.8911,1.8911,1.9192,1.9496,1.9823,2.0324,2.0533,2.0567,2.1004,2.1221,2.1219,2.1382,2.1447,2.1479,2.1839,2.1632,2.1049,2.0689,2.0414,2.0155,1.9447,1.9133,1.9039,0.0,0.0,0.0,0.0,0.0,0.0,0.0,0.0,0.0,0.0,0.0,0.0,2.2694,2.2777,2.2844,2.2844,2.236,2.2058,2.2035,2.2035,2.1837,2.1385,2.135,0.0,2.0699,2.0699,2.0699,2.0699,2.0699,2.0699,2.0712,2.1211,2.1773,2.2322,2.1682,2.2028,2.3126,2.3119,2.3463,2.4015,2.407,2.4083,2.4083,2.4083,2.4083,2.4083,2.4083,2.4083,2.4083,2.4083,2.4083,2.4083,2.4083,2.4083,2.4083,0.0,0.0,0.0,0.0,2.3027,0.0,2.2163,2.1534,0.0,0.0,0.0,2.0085,2.0085,2.0085,2.0085,2.0118,2.0118,2.0303,2.085,2.0938,2.1091,2.1527,2.1592,2.1592,2.1592,2.1592,2.1407,2.0937,2.0893,2.0674,2.0151,2.0063,2.0053,2.0085,2.0064,2.0009,2.0009,2.0009,2.0009,2.0009,2.0042,2.0063,2.0085,2.0118,2.0118,2.0118,2.0151,2.0194,2.0238,2.1187,2.159,2.159,2.1612,2.126,2.0732,2.0697,2.0293,1.9733,1.9696,1.964,1.9597,0.0,0.0,0.0,0.0,0.0,0.0,0.0,0.0,0.0,0.0,0.0,0.0,0.0,2.3312,2.3355,2.3355,2.2897,2.2466,2.2128,2.2105,2.2011,2.186,2.1554,2.1326,2.1155,2.0848,2.0699,2.0699,2.0699,2.087,2.1211,2.142,2.2008,2.291,2.2674,2.2786,2.3165,2.3572,2.3632,2.3501,2.3923,2.4083,2.4083,2.4083,2.4083,2.4083,2.4083,2.4083,2.4083,2.4083,2.4083,2.4083,2.4083,2.4083,2.4083,2.4083,2.4083,0.0,0.0,0.0,0.0,2.2267,2.1585,2.1092,2.1092,2.0571,2.0118,2.0118,2.0118,2.0118,2.0118,2.0118,2.0172,2.038,2.0402,2.0467,2.0609,2.063,2.063,2.063,2.063,2.0565,2.038,2.0402,2.0303,2.0096,2.0118,2.0118,2.0118,2.0118,2.0118,2.0118,2.0118,2.0118,2.0118,2.0118,2.0118,2.0118,2.0118,2.0118,2.0118,2.0118,2.0118,2.0129,2.0478,2.0839,2.1179,2.1496,2.1476,2.129,2.129,2.0957,2.0403,2.0045,1.971,1.9373,0.0,0.0,0.0,0.0,0.0,0.0,0.0,0.0,0.0,2.3009,0.0,0.0,0.0,0.0,2.3595,2.3595,2.3312,2.292,2.2397,2.2374,2.2235,2.1884,2.1578,2.1326,2.118,2.0848,2.0804,2.0975,2.0975,2.1237,2.1825,2.1995,2.2464,2.3195,2.3404,2.3489,2.3442,2.3662,2.3632,2.3471,2.3923,2.4083,2.4083,2.4083,2.4083,2.4083,2.4083,2.4083,2.4083,2.4083,2.4083,2.4083,2.4083,2.4083,2.4083,2.4083,2.4083,0.0,2.3573,0.0,0.0,0.0,2.2267,2.171,2.1491,2.0912,2.0356,2.014,2.0118,2.0118,2.0118,2.0118,2.0118,2.0118,2.0118,2.0118,2.0118,2.0118,2.0118,2.0118,2.0118,2.0118,2.0118,2.0118,2.0118,2.0118,2.0118,2.0118,2.0118,2.0118,2.0118,2.0118,2.0118,2.0118,2.0118,2.0118,2.0118,2.0118,2.0118,2.0118,2.0118,2.0118,2.0118,2.0118,2.0118,2.0292,2.0642,2.097,2.1112,2.1112,2.1112,2.0915,2.0587,2.0197,1.9827,1.9518,0.0,0.0,0.0,0.0,0.0,0.0,0.0,0.0,2.3595,2.3595,0.0,0.0,0.0,0.0,0.0,2.3595,2.3595,2.3399,2.2957,2.2912,2.248,2.1482,2.1423,2.1204,2.0775,2.0725,2.0988,2.1538,2.1538,2.1851,2.2412,2.2947,2.3195,2.3234,2.3822,2.4083,2.4054,2.3412,2.3514,2.4083,2.4083,2.4083,2.4083,2.4083,2.4083,2.4083,2.4083,2.4083,2.4083,2.4083,2.4083,2.4083,2.4083,2.4083,2.4083,2.4083,2.4083,0.0,0.0,0.0,0.0,0.0,0.0,0.0,2.2286,2.1616,2.0944,2.027,2.0118,2.0107,2.0118,2.0118,2.0118,2.0118,2.0118,2.0118,2.0118,2.0118,2.0118,2.0118,2.0118,2.0118,2.0118,2.0118,2.0118,2.0118,2.0118,2.0118,2.0118,2.0118,2.0118,2.0118,2.0118,2.0118,2.0118,2.0118,2.0118,2.0118,2.0118,2.0118,2.0118,2.0118,2.0118,2.0118,2.0118,2.0118,2.0118,2.0118,2.0118,2.0118,2.0118,2.0118,2.0118,2.0118,2.0118,2.0118,0.0,0.0,0.0,0.0,0.0,2.3595,2.3595,2.3595,2.3595,0.0,0.0,0.0,2.3595,2.3595,2.3595,2.3595,2.3696,2.3653,2.3421,2.3179,2.2912,2.264,2.1921,2.1735,2.2147,2.1773,2.181,2.2313,2.2313,2.2522,2.296,2.3117,2.3417,2.3848,2.4018,2.4083,2.4083,2.3894,2.3923,2.4083,2.4083,2.4083,2.4083,2.4083,2.4083,2.4083,2.4083,2.4083,2.4083,2.4083,2.4083,2.4083,2.4083,2.4083,2.4083,2.4083,2.4083,0.0,2.4083,0.0,0.0,0.0,0.0,0.0,2.2877,2.2286,2.1647,2.0976,2.0816,2.0667,2.0172,2.0118,2.0118,2.0118,2.0118,2.0118,2.0118,2.0118,2.0118,2.0118,2.0118,2.0118,2.0118,2.0118,2.0118,2.0118,2.0118,2.0118,2.0118,2.0118,2.0118,2.0118,2.0118,2.0118,2.0118,2.0118,2.0118,2.0118,2.0118,2.0118,2.0118,2.0118,2.0118,2.0118,2.0118,2.0118,2.0118,2.0118,2.0118,2.0118,2.0118,2.0118,2.0118,2.0118,2.0118,2.0118,0.0,0.0,0.0,0.0,0.0,2.3595,2.3595,2.3595,2.3595,0.0,0.0,0.0,2.3595,2.3595,2.3714,2.3999,2.4094,2.4126,2.4147,2.3957,2.3641,2.3165,2.2574,2.2355,2.2555,2.2271,2.2352,2.2851,2.2933,2.3194,2.3561,2.3633,2.383,2.4083,2.4083,2.4083,2.4083,2.4083,2.4083,2.4083,2.4083,2.4083,2.4083,2.4083,2.4083,2.4083,2.4083,2.4083,2.4112,2.4157,2.4173,2.4173,2.4173,0.0,0.0,2.4083,0.0,0.0,0.0,0.0,0.0,0.0,0.0,0.0,2.3148,2.2804,2.2317,2.1647,2.1534,2.1408,2.1008,2.0944,2.0848,2.0571,2.0518,2.0421,2.0151,2.0118,2.0118,2.0118,2.0118,2.0118,2.0118,2.0118,2.0118,2.0118,2.0118,2.0118,2.0118,2.0118,2.0118,2.0118,2.0118,2.0118,2.0118,2.0118,2.0118,2.0118,2.0118,2.0118,2.0118,2.0118,2.0118,2.0118,2.0118,2.0118,2.0118,2.0118,2.0118,2.0118,2.0118,2.0118,2.0118,2.0118,2.0118,2.0118,0.0,0.0,2.3595,2.3595,2.3595,2.3595,2.3616,2.3595,2.3595,0.0,2.367,2.3714,2.3714,2.3796,2.4081,2.4687,2.4754,2.4848,2.5009,2.4932,2.4397,2.3393,2.3251,2.2976,2.2588,2.2588,2.285,2.3371,2.3553,2.3815,2.4141,2.4276,2.4261,2.4083,2.4112,0.0,2.4083,2.4112,2.4112,2.4112,2.4112,2.4112,2.4112,2.4141,2.4171,2.4171,2.4171,2.4171,2.4171,2.4276,2.4321,2.4321,2.4321,2.4232,0.0,0.0,2.4083,0.0,0.0,0.0,0.0,0.0,2.4083,0.0,2.3339,2.3207,2.3027,2.2347,2.2194,2.2194,2.2101,2.2101,2.1896,2.1313,2.1155,2.088,2.0205,2.0118,2.0118,2.0118,2.0118,2.0118,2.0118,2.0118,2.0118,2.0118,2.0118,2.0118,2.0118,2.0118,2.0118,2.0118,2.0118,2.0118,2.0118,2.0118,2.0118,2.0118,2.0118,2.0118,2.0118,2.0118,2.0118,2.0118,2.0118,2.0118,2.0118,2.0118,2.0118,2.0118,2.0118,2.0118,2.0118,2.0118,2.0118,2.0118,0.0,2.3595,2.3595,2.3595,2.3595,2.3653,2.3739,2.3674,2.3653,2.3739,2.4132,2.4395,2.4395,2.4972,2.5424,2.5537,2.5766,2.5849,2.5794,2.5081,2.4556,2.4344,2.3497,2.3258,2.377,2.3784,2.3984,2.449,2.4532,2.4458,2.4276,2.4463,2.439,2.4112,2.4203,2.4203,2.4112,2.4232,2.4276,2.4276,2.4276,2.4276,2.4276,2.4434,2.4505,2.4505,2.4505,2.4505,2.4505,2.452,2.4549,2.452,2.435,2.4263,2.4247,2.4128,0.0,0.0,0.0,0.0,0.0,0.0,2.4083,0.0,2.3923,2.3894,2.3691,2.3027,2.2907,2.2743,2.2194,2.2101,2.207,2.1928,2.1459,2.088,2.0205,2.0118,2.0118,2.0118,2.0118,2.0118,2.0118,2.0118,2.0118,2.0118,2.0118,2.0118,2.0118,2.0118,2.0118,2.0118,2.0118,2.0118,2.0118,2.0118,2.0118,2.0118,2.0118,2.0118,2.0118,2.0118,2.0118,2.0118,2.0118,2.0118,2.0118,2.0118,2.0118,2.0118,2.0118,2.0118,2.0118,2.0118,2.0118,2.0118,0.0,2.3696,2.3717,2.3797,2.3739,2.3717,2.3797,2.3959,2.4162,2.4279,2.4882,2.5304,2.5304,2.5659,2.6023,2.6356,2.6518,2.6585,2.6566,2.6125,2.5607,2.5027,2.4486,2.4245,2.4334,2.4348,2.4454,2.4706,2.4778,2.4692,2.445,2.4607,2.4563,2.4332,2.4405,2.4376,2.4203,2.4376,2.4535,2.4639,2.4511,2.445,2.445,2.4563,2.4591,2.4591,2.4591,2.4649,2.4706,2.4706,2.4706,2.4664,2.4565,2.4436,2.4292,2.4232,2.4157,2.4083,0.0,0.0,0.0,2.4083,2.4157,0.0,0.0,2.4203,2.4102,2.3783,2.3649,2.3514,2.3173,2.3113,2.298,2.2652,2.2329,2.1865,2.1187,2.0506,2.0118,2.0118,2.0118,2.0118,2.0118,2.0118,2.0009,1.9769,1.9976,2.0009,1.9758,1.9976,2.0118,2.0118,2.0118,2.0118,2.0118,2.0118,2.0118,2.0118,2.0118,2.0118,2.0118,2.0118,2.0118,2.0118,2.0118,2.0118,2.0118,2.0118,2.0118,2.0118,2.0118,2.0118,2.0118,2.0118,2.0118,2.0118,2.3674,0.0,2.3797,2.3903,2.3967,2.3999,2.4036,2.4499,2.4867,2.4972,2.5652,2.6168,2.6191,2.6313,2.6601,2.7181,2.7265,2.7285,2.7363,2.7148,2.6599,2.5701,2.5439,2.5118,2.4706,2.4677,2.4677,2.4677,2.4778,2.4778,2.4649,2.4778,2.475,2.4591,2.462,2.4587,2.4522,2.4722,2.501,2.5304,2.5095,2.4983,2.4911,2.4834,2.4889,2.5012,2.5012,2.5099,2.5185,2.5185,2.5185,2.5185,2.5156,2.4889,2.4551,2.4522,2.4353,0.0,0.0,2.4128,2.4128,2.4112,2.4203,2.4292,0.0,0.0,0.0,2.4321,2.4203,2.4128,2.4112,2.4112,2.3901,2.3246,2.3132,2.2917,2.2244,2.1181,2.0485,2.0485,2.027,2.014,2.027,2.0085,1.9813,1.9441,1.966,1.966,1.9299,1.9715,1.9976,1.9976,2.0063,2.0172,2.0302,2.0302,2.0356,2.0485,2.0485,2.0485,2.0485,2.0485,2.0485,2.0485,2.0485,2.0421,2.0302,2.0302,2.0237,2.0172,2.0118,2.0172,2.0291,2.0237,2.0237,2.0291,2.3595,2.3616,2.3616,2.3653,2.422,2.4737,2.4841,2.5304,2.5673,2.5673,2.6268,2.6747,2.6875,2.7413,2.7856,2.8039,2.8176,2.8231,2.8235,2.7302,2.6678,2.6573,2.5577,2.5033,2.4948,2.4948,2.4948,2.4948,2.4977,2.492,2.4778,2.492,2.4835,2.462,2.4734,2.4958,2.5305,2.5499,2.5891,2.6425,2.6526,2.6364,2.6072,2.5641,2.5937,2.6559,2.6559,2.6559,2.6559,2.6559,2.6559,2.6559,2.6438,2.6001,2.5499,2.5322,2.4933,2.4492,2.4334,2.4263,2.4247,2.4141,2.4203,2.4292,2.4292,0.0,2.452,2.4334,0.0,2.4247,2.4112,0.0,0.0,2.3465,2.3331,2.3048,2.2439,2.2074,2.1865,2.1865,2.0816,2.0324,2.0944,2.0085,1.9442,1.9387,1.9069,1.8829,1.8774,1.9233,1.9464,1.9464,1.9889,2.0388,2.0976,2.1008,2.1282,2.1865,2.1865,2.1865,2.1865,2.1865,2.1865,2.1865,2.1865,2.1522,2.1008,2.1008,2.0816,2.0518,2.0205,2.0453,2.0944,2.0635,2.072,2.0944,2.4372,2.4297,0.0,2.5016,2.5319,2.5546,2.5689,2.6222,2.6738,2.7157,2.7509,2.7749,2.7821,2.8058,0.0,0.0,0.0,2.8235,2.791,2.7414,2.7016,2.6704,2.6228,2.5851,2.5536,2.5536,2.5342,2.5005,2.5005,2.4977,2.492,2.4977,2.5138,2.5347,2.5405,2.5684,2.6113,2.628,2.6556,2.6939,2.7095,2.7265,2.739,2.66,2.6502,2.6793,2.6793,2.6793,2.6793,2.6793,2.6793,2.6793,2.6732,2.6496,2.619,2.5965,2.5462,2.4922,2.4849,2.4569,2.4292,2.4218,2.4347,2.445,2.4321,2.4463,2.4591,2.4492,0.0,0.0,0.0,0.0,0.0,0.0,2.3977,2.3781,2.3534,2.3073,2.261,2.2163,2.1667,2.1333,2.1293,2.0458,1.966,1.9045,1.9099,1.8914,1.8305,1.9033,1.9624,1.9966,2.0503,2.1086,2.1667,2.1678,2.1834,2.2101,2.2101,2.2101,2.2101,2.2101,2.2101,2.2101,2.2101,2.1978,2.1791,2.1791,2.1791,2.1741,2.1616,2.1565,2.1534,2.142,2.1628,2.1911,2.5432,0.0,0.0,0.0,2.6161,2.632,2.6634,2.7037,2.7485,2.8125,2.8122,2.8186,2.8372,2.8372,0.0,0.0,2.8411,2.821,2.7795,2.7618,2.7351,2.6953,2.6813,2.6477,2.5893,2.5883,2.5702,2.5249,2.5249,2.5331,2.5507,2.5507,2.5738,2.6145,2.6145,2.6424,2.6914,2.7006,2.7238,2.7605,2.77,2.7988,2.8303,2.7561,2.7172,2.7064,2.7213,2.7311,2.7311,2.7311,2.7311,2.7311,2.7311,2.7111,2.6883,2.6733,2.6075,2.5369,2.5292,2.4826,2.4379,2.4321,2.445,2.4563,2.4421,2.4536,2.4706,2.462,2.462,0.0,0.0,0.0,2.4595,2.4435,0.0,2.4383,2.4195,2.3884,2.3416,2.2774,2.264,2.2286,2.1521,2.0824,1.9953,1.8811,1.9171,1.9,1.8089,1.9005,1.975,2.0198,2.0932,2.1566,2.2128,2.2335,2.2531,2.2713,2.2743,2.2786,2.2774,2.2713,2.2713,2.2713,2.2713,2.264,2.2579,2.264,2.2683,2.2743,2.2743,2.2665,2.2543,2.2298,2.2512,2.276,2.6814,2.6208,0.0,0.0,2.6352,2.704,2.7828,2.769,2.7665,2.8122,2.7705,2.7605,2.8323,2.8275,2.8259,0.0,2.8411,2.8387,2.8372,2.7899,2.7574,2.7494,0.0,2.6536,0.0,2.5905,2.5889,2.586,2.586,2.6172,2.6738,2.6738,2.6738,2.6766,2.6766,2.7091,2.7678,2.7678,2.8017,2.856,2.856,2.8573,2.8587,2.8546,2.818,2.7759,2.8329,2.8532,2.8532,2.8532,2.8532,2.8532,2.8532,2.8139,2.7646,2.7646,2.6793,2.5799,2.5488,2.5002,2.4549,2.435,2.445,2.4591,2.4591,2.4806,2.492,2.4649,2.4706,2.475,2.462,2.4706,0.0,0.0,0.0,0.0,0.0,2.4288,2.4492,2.4263,2.364,2.279,2.1606,2.1025,2.0151,1.8891,1.9056,1.8866,1.8154,1.9124,1.9698,1.9709,2.0756,2.1593,2.218,2.29,2.3581,2.4234,2.4434,2.452,2.452,2.4334,2.4234,2.4234,2.4234,2.3859,2.3284,2.3475,2.3357,2.3088,2.3088,2.3564,2.4134,2.3357,2.3267,2.3441,0.0,0.0,0.0,0.0,0.0,2.7853,2.822,2.8162,2.8162,2.8323,2.8162,2.8122,2.8372,2.8348,2.8354,2.8414,2.8393,2.86,2.9037,2.853,2.8353,2.8737,2.8236,2.7654,0.0,2.7039,2.6842,2.6511,2.6511,2.6589,2.6793,2.6793,2.6996,2.742,2.742,2.7732,0.0,0.0,2.841,2.8587,2.8587,2.8587,2.8587,2.8587,2.8465,2.8315,2.8519,2.8587,2.8587,2.8587,2.8587,2.8587,2.843,2.8263,2.8069,2.7999,2.7122,2.6153,2.6123,2.5443,2.4734,2.4664,2.4692,2.4706,2.462,2.4721,2.4835,2.475,2.4835,2.492,2.4863,2.4892,0.0,0.0,0.0,0.0,0.0,2.4629,2.475,2.4765,2.4018,2.3229,2.2512,2.1744,2.0804,1.963,1.9572,1.9331,1.8735,1.9371,1.9959,2.0358,2.114,2.2056,2.3041,2.3406,2.3866,2.4492,2.4563,2.4591,2.4591,2.452,2.4492,2.4492,2.4492,2.4421,2.4292,2.4363,2.4379,2.435,2.435,2.4523,2.4708,2.4105,2.4163,2.4304,2.8128,0.0,0.0,0.0,2.8434,2.8652,2.8676,2.8752,2.8904,2.9095,2.8945,2.8904,2.9095,2.9095,2.9098,2.912,2.9098,2.9279,2.9743,2.9413,2.9387,2.9746,2.9411,2.8814,0.0,0.0,0.0,2.7104,2.7104,2.7213,2.7447,2.7447,2.7664,2.8017,2.8017,2.8234,2.8587,2.8587,2.8587,2.8587,2.8587,2.8587,2.8587,2.8587,2.8587,2.8587,2.8587,2.8587,2.8587,2.8587,2.8587,2.8587,2.8444,2.8398,2.8398,2.8295,2.7431,2.6492,2.6522,2.5692,2.4806,2.4806,2.4806,2.4778,2.4706,2.4778,2.4863,2.4806,2.492,2.5005,2.5005,2.5005,2.5005,0.0,0.0,0.0,0.0,2.4863,2.4892,2.4977,2.4408,2.3796,2.3234,2.2537,2.1573,2.0274,2.0217,1.9965,1.9317,1.9811,2.0297,2.0705,2.1342,2.2181,2.3172,2.3577,2.406,2.4677,2.4734,2.4721,2.4721,2.4706,2.4677,2.4677,2.4677,2.4734,2.4806,2.4835,2.492,2.5005,2.5005,2.5005,2.4977,2.465,2.4602,2.446,2.8504,2.9027,2.9208,2.8449,2.8928,2.9408,2.9291,2.9489,2.9803,3.0334,2.9951,2.983,3.0334,3.0402,3.0402,3.0406,3.0396,3.0437,3.0442,3.0455,3.0448,3.0405,3.0408,2.987,2.8654,0.0,0.0,0.0,2.7746,2.8044,2.8587,2.8587,2.8587,2.8587,2.8587,2.8587,2.8587,2.8587,2.8587,2.8587,2.8587,2.8587,2.8587,2.8587,2.8587,2.8587,2.8587,2.8587,2.8587,2.8587,2.8587,2.8587,2.8587,2.8587,2.8587,2.8546,2.7701,2.6749,2.6614,2.5708,2.4806,2.4806,2.4806,2.4806,2.4806,2.492,2.4948,2.4835,2.492,2.5005,2.5005,2.5005,2.5005,0.0,0.0,0.0,0.0,2.5005,2.5005,2.5005,2.4892,2.4508,2.3765,2.3272,2.2366,2.0852,2.0899,2.0686,1.9901,2.041,2.0699,2.0699,2.1325,2.197,2.2578,2.3419,2.416,2.4766,2.4907,2.5005,2.5005,2.4863,2.4806,2.4806,2.4806,2.4806,2.4806,2.4948,2.5005,2.5005,2.5005,2.5005,2.5005,2.5005,2.4639,2.4001,2.9879,3.0017,3.0079,2.9884,3.0007,3.014,3.0114,3.0149,3.023,3.0376,3.0282,3.0256,3.0376,3.0402,3.0429,3.047,3.0488,3.0699,3.1196,3.0309,2.9967,3.0455,2.9593,2.9126,2.9268,2.8848,2.8774,2.9045,0.0,2.8451,2.8587,2.8587,2.8587,2.8587,2.8587,2.8587,2.8587,2.8587,2.8587,2.8587,2.8587,2.8587,2.8587,2.8587,2.8587,2.8587,2.8587,2.8587,2.8587,2.8587,2.8587,2.8554,2.843,2.8365,2.8285,2.784,2.7162,2.6519,2.6164,2.5517,2.4948,2.4948,2.4948,2.4948,2.4948,2.4977,2.4977,2.4948,2.4977,2.5005,2.5005,2.5005,2.5005,0.0,0.0,0.0,0.0,2.5005,2.5005,2.5005,2.4977,2.4514,2.3433,2.3124,2.2456,2.1164,2.1027,2.0909,2.0711,2.0787,2.0875,2.0923,2.1093,2.1514,2.2228,2.2989,2.369,2.4299,2.4773,2.5005,2.5005,2.4948,2.4948,2.4948,2.4948,2.4948,2.4948,2.4977,2.5005,2.5005,2.5005,2.5005,2.5005,2.5005,2.4639,2.4001,3.0402,3.0632,3.0936,3.1228,3.1263,3.1182,3.0889,3.1105,3.1263,3.1263,3.1263,3.1263,3.1263,3.1263,3.1294,3.1316,3.1319,3.1485,3.1864,3.1203,3.0925,3.1305,3.0644,3.0163,2.995,2.9608,0.0,2.9107,0.0,2.8587,2.8587,2.8587,2.8587,2.8587,2.8587,2.8587,2.8587,2.8587,2.8587,2.8587,2.8587,2.8587,0.0,2.8587,2.8587,2.8587,2.8587,2.8587,2.8587,2.8587,2.8587,2.8587,2.8476,2.843,2.8322,2.7696,2.7103,2.6509,2.602,2.5453,2.5005,2.5005,2.5005,2.5005,2.5005,2.5005,2.5005,2.5005,2.5005,2.5005,2.5005,2.5005,2.5005,0.0,0.0,0.0,0.0,0.0,2.5005,2.5005,2.5005,2.4516,2.3323,2.3135,2.2639,2.1586,2.1253,2.1057,2.0997,2.0961,2.0961,2.0997,2.1057,2.1412,2.2103,2.2825,2.3499,2.4109,2.472,2.5005,2.5005,2.5005,2.5005,2.5005,2.5005,2.5005,2.5005,2.5005,2.5005,2.5005,2.5005,2.5005,2.5005,2.5005,2.4801,2.4353,3.0663,3.1136,3.1705,3.229,3.2398,3.2198,3.1613,3.2013,3.2398,3.2398,3.2398,3.2398,3.2398,3.2398,3.2398,3.2398,3.2398,3.2398,3.2398,3.2342,3.2272,3.2272,3.2188,3.165,3.0644,3.0539,3.0009,0.0,2.8798,2.8716,2.8716,2.8651,2.8587,2.8587,0.0,0.0,0.0,2.8587,2.8587,2.8587,2.8587,2.8587,2.8587,2.8587,2.8587,2.8587,2.8587,2.8587,2.8587,2.8587,2.8587,2.8587,2.8587,2.8587,2.8465,2.7786,2.7199,2.6674,2.6056,2.5456,2.5033,2.509,2.5061,2.5005,2.5005,2.5005,2.5005,2.5005,2.5005,2.5005,2.5005,2.5005,2.5005,2.5005,2.5005,2.5005,2.5005,0.0,0.0,0.0,2.5005,0.0,2.3323,2.3215,2.2826,2.1896,2.145,2.118,2.1057,2.1033,2.1033,2.1033,2.1155,2.1446,2.2007,2.2811,2.3472,2.3987,2.4679,2.5005,2.5005,2.5005,2.5005,2.5005,2.5005,2.5005,2.5005,2.5005,2.5005,2.5005,2.5005,2.5005,2.5005,2.5005,2.5005,2.4842,3.2044,3.2136,3.2259,3.2367,3.2398,3.2351,3.2228,3.2321,3.2398,3.2398,3.2398,3.2398,3.2398,3.2398,3.2398,3.2398,3.2398,3.2398,3.2398,3.1936,3.1652,3.1652,3.1146,3.0999,3.1335,3.0792,3.0673,3.0999,2.9889,2.9331,2.9331,2.8817,2.8587,0.0,0.0,0.0,2.8587,2.8587,2.8587,2.8587,2.8587,2.8587,2.8587,2.8587,2.8587,2.8587,2.8587,2.8587,2.8587,2.8587,2.8587,2.8587,2.8587,2.8587,2.837,2.7298,2.6874,2.6669,2.605,2.5452,2.5118,2.5619,2.537,2.5005,2.5005,2.5005,2.5005,2.5005,2.5005,2.5005,2.5005,2.5005,2.5005,2.5005,2.5005,2.5005,2.5005,2.5005,0.0,0.0,2.5005,2.4516,2.3323,2.3215,2.2728,2.1556,2.1404,2.135,2.1326,2.1229,2.1229,2.1326,2.1253,2.1307,2.1524,2.2634,2.3256,2.3378,2.4462,2.5005,2.5005,2.5005,2.5005,2.5005,2.5005,2.5005,2.5005,2.5005,2.5005,2.5005,2.5005,2.5005,2.5005,2.5005,2.5005,2.491,3.2398,0.0,0.0,3.2398,3.2398,3.2398,3.2398,3.2398,3.2398,3.2398,3.2398,3.2398,3.2398,3.2398,3.2398,3.2398,3.2104,3.2076,3.237,3.1823,3.1623,3.1936,3.1665,3.1493,3.1508,3.1175,3.0999,3.097,3.0315,3.0011,3.0011,2.9376,2.9075,2.9075,0.0,2.9075,2.9075,2.9435,2.939,2.9075,2.9075,2.8881,2.8587,2.8587,2.8587,2.8587,2.8587,2.8587,2.8587,2.8587,2.8587,2.8587,2.8587,2.8383,2.7963,2.705,2.6592,2.6204,2.5589,2.523,2.5061,2.537,2.5202,2.5005,2.5005,2.5005,2.5005,2.5005,2.5005,2.5005,2.5005,2.5005,2.5005,2.5005,2.5258,2.5481,2.5481,2.5481,2.5578,0.0,0.0,0.0,2.3792,2.3682,2.3043,2.1505,2.1399,2.1399,2.1399,2.135,2.1326,2.1399,2.135,2.1326,2.1399,2.2605,2.3215,2.3215,2.4407,2.5005,2.5005,2.5005,2.5005,2.5005,2.5005,2.5005,2.5005,2.5005,2.5005,2.5005,2.5005,2.5005,2.5005,2.5005,2.5005,2.4924,3.2398,3.2398,3.2398,3.2398,3.2398,3.2398,3.2398,3.2398,3.2398,3.2398,3.2398,3.2398,3.2398,3.2398,3.2398,3.2398,3.1964,3.1879,3.237,3.1964,3.1908,3.237,3.2398,3.216,3.1709,3.168,3.1364,3.0703,3.0584,3.0362,3.0111,2.9555,2.9393,2.9504,2.9504,2.9566,2.9735,3.0103,2.9981,2.9473,2.9362,2.9012,2.8619,2.8734,2.8798,2.8798,2.8798,2.8798,2.8766,2.8651,2.8587,2.8587,2.8587,2.8193,2.7596,2.6969,2.6375,2.5794,2.531,2.509,2.5033,2.5174,2.509,2.5005,2.5005,2.5005,2.5005,2.5005,2.5005,2.5033,2.5174,2.509,2.5033,2.5174,2.5481,2.5757,2.5866,2.5893,2.6096,0.0,0.0,0.0,2.456,2.412,2.3312,2.1876,2.1539,2.1399,2.1399,2.1399,2.1399,2.1399,2.1399,2.1399,2.1399,2.2605,2.3215,2.3215,2.4407,2.5005,2.5005,2.5005,2.5005,2.5005,2.5005,2.5005,2.5005,2.5005,2.5005,2.5005,2.5005,2.5005,2.5005,2.5005,2.5005,2.4937,3.2398,3.2398,3.2398,3.2398,3.2398,3.2398,3.2398,3.2398,3.2398,3.2398,3.2398,3.2398,3.2398,3.2398,3.2398,3.2398,3.2342,3.2342,3.2398,3.2342,3.2342,3.2398,3.2398,3.2355,3.2315,3.2315,3.202,3.1422,3.0792,2.9921,2.8866,2.8728,2.8962,2.9504,2.9504,2.9858,3.0359,2.9827,2.9566,2.9442,2.8912,2.8651,2.8651,2.9219,2.9425,2.9425,2.9425,2.9425,2.9331,2.8785,2.8587,2.8587,2.8587,2.8193,2.7596,2.6969,2.6375,2.5881,2.5841,2.5425,2.5118,2.5674,2.5397,2.5005,2.5005,2.5005,2.5005,2.5005,2.5005,2.5174,2.5702,2.537,2.5174,2.5729,2.5397,2.5286,2.5811,2.5893,2.6096,2.664,0.0,0.0,2.5669,2.4219,2.32,2.3031,2.2014,2.1399,2.1399,2.1399,2.1399,2.1399,2.1399,2.1399,2.1399,2.2605,2.3215,2.3215,2.4407,2.5005,2.5005,2.5005,2.5005,2.5005,2.5005,2.5005,2.5005,2.5005,2.5005,2.5005,2.5005,2.5005,2.5005,2.5005,2.5005,2.4991,3.2398,3.2398,3.2398,3.2398,3.2398,3.2398,3.2398,3.2398,3.2398,3.2398,3.2398,3.2398,3.2398,3.2398,3.2398,3.2398,3.2076,3.202,3.237,3.2048,3.202,3.2398,3.2398,3.2398,3.2398,3.2398,3.2272,3.2048,3.1779,3.1401,3.0918,3.0513,3.0238,3.0103,3.0103,3.0238,3.0494,3.0208,2.9858,2.9504,2.9701,2.9293,2.8716,2.9718,2.9625,2.9026,2.9362,2.9504,2.9425,2.8785,2.8587,2.8532,2.8166,2.7664,2.7054,2.6443,2.5833,2.5361,2.5354,2.5174,2.5061,2.5314,2.5174,2.5005,2.5005,2.5005,2.5005,2.5005,2.5005,2.5174,2.5784,2.5702,2.5715,2.6283,2.6455,2.6467,2.639,2.6654,2.6927,2.7144,0.0,2.6575,2.5868,2.4844,2.3932,2.3188,2.2066,2.1399,2.1399,2.1399,2.1399,2.1399,2.1399,2.1562,2.1952,2.2781,2.3391,2.3757,2.4611,2.5005,2.5005,2.5005,2.5005,2.5005,2.5005,2.5005,2.5005,2.5005,2.5005,2.5005,2.5005,2.5005,2.5005,2.5005,2.5005,2.5005,3.2398,3.2398,3.2398,3.2398,3.2398,3.2398,3.2398,3.2398,3.2398,3.2398,3.2398,3.2398,3.2398,3.2398,3.2398,3.2398,3.1992,3.1951,3.2355,3.1992,3.1964,3.2398,3.2398,3.2398,3.2398,3.2398,3.2315,3.2132,3.2132,3.1942,3.1561,3.1137,3.0895,3.0792,3.0792,3.0911,3.1043,3.0866,3.0539,3.0119,3.0389,2.9948,2.9293,3.0374,3.0253,2.9529,2.995,3.0088,2.9952,2.8959,2.8634,2.8533,2.7903,2.7176,2.6457,2.6022,2.5466,2.5005,2.5005,2.5005,2.5005,2.5005,2.5005,2.5005,2.5005,2.5005,2.5005,2.5005,2.5005,2.5174,2.5784,2.5893,2.6069,2.6599,2.7016,2.7195,2.6964,2.7246,2.7565,2.773,2.7464,2.7083,2.6599,2.5569,2.4721,2.4162,2.2766,2.1842,2.164,2.1496,2.1399,2.1399,2.1562,2.1884,2.2305,2.3066,2.3689,2.4109,2.472,2.5005,2.5005,2.5005,2.5005,2.5005,2.5005,2.5005,2.5005,2.5005,2.5005,2.5005,2.5005,2.5005,2.5005,2.5005,2.5118,2.5258,3.2398,3.2398,3.2398,3.2398,3.2398,3.2398,3.2398,3.2398,3.2398,3.2398,3.2398,3.2398,3.2398,3.2398,3.2398,3.2398,3.2398,3.2398,3.2398,3.2398,3.2398,3.2398,3.2398,3.2398,3.2398,3.2398,3.2104,3.1508,3.1508,3.0863,2.9624,2.9624,3.0308,3.148,3.148,3.1823,3.2342,3.1737,3.148,3.1422,3.0763,3.0494,3.0539,3.1248,3.148,3.1451,3.148,3.1495,3.1202,2.9326,2.8707,2.8601,2.7909,2.6877,2.59,2.5887,2.5466,2.5005,2.5005,2.5005,2.5005,2.5005,2.5005,2.5005,2.5005,2.5005,2.5005,2.5005,2.5005,2.5174,2.5784,2.5893,2.6069,2.6599,2.6704,2.6886,2.7414,2.7515,2.7705,2.8323,2.7403,2.7159,2.8259,2.6316,2.544,2.6488,2.4447,2.2888,2.2236,2.1688,2.1399,2.1399,2.1993,2.2291,2.2305,2.3486,2.4082,2.4109,2.472,2.5005,2.5005,2.5005,2.5005,2.5005,2.5005,2.5005,2.5005,2.5005,2.5005,2.5005,2.5005,2.5005,2.5005,2.5005,2.537,2.5893,3.2398,3.2398,3.2398,3.2398,3.2398,3.2398,3.2398,3.2398,3.2398,3.2398,3.2398,3.2398,3.2398,3.2398,3.2398,3.2398,3.2398,3.2398,3.2398,3.2398,3.2398,3.2398,3.2398,3.2398,3.2398,3.2398,3.2315,3.2104,3.2104,3.1914,3.1503,3.1503,3.1723,3.2104,3.168,3.1595,3.1737,3.1087,3.0822,3.0852,3.1087,3.0911,3.0599,3.1694,3.158,3.0881,3.1335,3.1219,3.0674,2.96,2.9001,2.8517,2.7431,2.6538,2.5805,2.5412,2.5154,2.5005,2.5005,2.5005,2.5005,2.5005,2.5005,2.5005,2.5005,2.5314,2.5619,2.5619,2.5619,2.5674,2.5866,2.5893,2.6204,2.7108,2.7261,2.7297,2.7489,2.7845,2.8048,2.782,2.7835,2.7885,2.7934,2.6808,2.6258,2.6639,2.4798,2.3431,2.2912,2.1932,2.1399,2.1399,2.1993,2.2509,2.2917,2.3703,2.4299,2.4734,2.4924,2.5005,2.5005,2.5425,2.5397,2.5033,2.5425,2.537,2.5005,2.5005,2.5005,2.5005,2.5005,2.5005,2.5061,2.5453,2.5729,2.5934,3.3211,3.3211,3.309,3.2813,3.2782,3.269,3.2428,3.2398,3.2398,3.2398,3.2398,3.2398,3.2398,3.2398,3.2398,3.2398,3.2398,3.2398,3.2398,3.2398,3.2398,3.2398,3.2398,3.2398,3.2398,3.2398,3.2398,3.2398,3.2398,3.2398,3.2398,3.2398,3.2398,3.2398,3.1992,3.1823,3.1794,3.1407,3.1218,3.1247,3.1665,3.158,3.1305,3.2104,3.1892,3.1276,3.1709,3.158,3.1028,2.9906,2.9307,2.879,2.7259,2.6402,2.5778,2.5181,2.5005,2.5005,2.5005,2.5005,2.5005,2.5005,2.5005,2.5061,2.5286,2.5619,2.5975,2.6163,2.619,2.619,2.619,2.6404,2.6733,2.7261,2.7705,2.7919,2.772,2.8146,2.8308,2.7894,2.7959,2.8048,2.7959,2.7393,2.7088,2.7312,2.5881,2.4831,2.451,2.3126,2.2245,2.2042,2.2864,2.3394,2.354,2.4136,2.4639,2.5005,2.5005,2.5005,2.5033,2.5619,2.5702,2.537,2.5947,2.6001,2.5632,2.5632,2.5508,2.5342,2.5342,2.5342,2.537,2.5757,2.615,2.6549,3.4505,3.4505,3.4289,3.3598,3.3429,3.3183,3.2552,3.2428,3.2398,3.2398,3.2398,3.2398,3.2398,3.2398,3.2398,3.2398,3.2398,3.2398,3.2398,3.2398,3.2398,3.2398,3.2398,3.2398,3.2398,3.2398,3.2398,3.2398,3.2398,3.2398,3.2398,3.2398,3.2398,3.2398,3.2398,3.2398,3.2398,3.2398,3.2398,3.2398,3.2398,3.2398,3.2398,3.2398,3.2398,3.2398,3.2398,3.2355,3.2053,3.0319,2.9682,2.9275,2.7481,2.6487,2.5833,2.5236,2.5032,2.5005,2.5005,2.5005,2.5005,2.5005,2.5005,2.5174,2.5757,2.5921,2.6096,2.6613,2.673,2.673,2.6704,2.721,2.753,2.7199,2.8033,2.858,2.8118,2.8372,2.8565,2.8444,2.7919,2.7795,2.8372,2.8008,2.7919,2.8372,2.7442,2.6792,2.6663,2.5047,2.3855,2.3251,2.4382,2.4753,2.4218,2.4734,2.5033,2.5061,2.5061,2.509,2.5146,2.5702,2.5975,2.5988,2.6508,2.673,2.6704,2.6704,2.6416,2.5975,2.5975,2.5975,2.5975,2.5988,2.6628,2.7515,3.4505,3.4505,3.4443,3.4274,3.3767,3.3352,3.3183,3.2721,3.2398,3.2398,3.2398,3.2398,3.2398,3.2398,3.2398,3.2398,3.2398,3.2398,3.2398,3.2398,3.2398,3.2398,3.2398,3.2398,3.2398,3.2398,3.2398,3.2398,3.2398,3.2398,3.2398,3.2398,3.2398,3.2398,3.2398,3.2398,3.2398,3.2398,3.2398,3.2398,3.2398,3.2398,3.2398,3.2398,3.2398,3.2398,3.2398,3.2104,3.1665,3.1199,3.0352,2.9365,2.8528,2.7478,2.6484,2.586,2.5358,2.5005,2.5005,2.5005,2.5005,2.5005,2.5005,2.5174,2.5757,2.6217,2.6561,2.6678,2.7016,2.7195,2.6782,2.6912,2.7185,2.7504,2.7879,2.8213,2.8565,2.87,2.8747,2.87,2.8501,2.8453,2.8676,2.842,2.8308,2.8541,2.775,2.7248,2.7201,2.6801,2.5931,2.4515,2.4813,2.5133,2.5377,2.5122,2.523,2.5702,2.5702,2.5892,2.6308,2.6455,2.6508,2.6534,2.7067,2.7067,2.6704,2.6704,2.664,2.6508,2.6508,2.6508,2.6561,2.6979,2.7287,2.7565,3.5429,3.5429,3.5321,3.5013,3.4643,3.4137,3.3506,3.309,3.2752,3.2428,3.2398,3.2398,3.2398,3.2398,3.2398,3.2398,3.2398,3.2398,3.2398,3.2398,3.2398,3.2398,3.2398,3.2398,3.2398,3.269,3.2859,3.2859,3.2552,3.2398,3.2398,3.2398,3.2398,3.2398,3.2398,3.2398,3.2398,3.2398,3.2398,3.2398,3.2398,3.2398,3.2398,3.2398,3.2398,3.2398,3.2398,3.2203,3.1823,3.1233,3.0569,2.9801,2.892,2.7989,2.7077,2.6497,2.5697,2.5005,2.5005,2.5005,2.5005,2.5005,2.5005,2.5216,2.6082,2.6534,2.6927,2.7378,2.777,2.7904,2.763,2.768,2.782,2.7993,2.8247,2.8479,2.8589,2.8755,2.8834,2.8794,2.8747,2.8708,2.8794,2.8676,2.8589,2.8597,2.82,2.7928,2.7857,2.7857,2.7172,2.5682,2.5962,2.617,2.6221,2.5911,2.5933,2.627,2.627,2.6416,2.6704,2.6964,2.7067,2.7093,2.767,2.7745,2.7494,2.7494,2.7312,2.7067,2.7067,2.7067,2.7093,2.7373,2.768,2.7959,3.6492,3.6492,3.6307,3.5737,3.5583,3.5121,3.3891,3.3537,3.3198,3.2628,3.2459,3.2398,3.2398,3.2398,3.2398,3.2398,3.2398,3.2398,3.2398,3.2398,3.2398,3.2398,3.2398,3.2398,3.2398,3.3059,3.3398,3.3398,3.2829,3.2552,3.2552,3.2444,3.2398,3.2398,3.2398,3.2398,3.2398,3.2398,3.2398,3.2398,3.2398,3.2398,3.2398,3.2398,3.2398,3.2398,3.2398,3.2342,3.2104,3.1131,3.0599,3.0178,2.9198,2.8325,2.7596,2.6969,2.6022,2.5127,2.5032,2.5005,2.5005,2.5005,2.5005,2.5272,2.6295,2.6718,2.7133,2.8048,2.8453,2.8636,2.8636,2.8732,2.8755,2.851,2.8842,2.8975,2.8565,2.8748,2.8912,2.885,2.8842,2.8818,2.8818,2.8818,2.8747,2.8597,2.8636,2.8565,2.8444,2.846,2.7975,2.6853,2.7255,2.7246,2.6704,2.686,2.6912,2.6808,2.6834,2.6901,2.6979,2.7388,2.759,2.7705,2.8235,2.846,2.842,2.842,2.8122,2.7655,2.7655,2.7655,2.7655,2.7655,2.7959,2.8411,3.6492,3.6492,3.6461,3.6353,3.5891,3.5444,3.5199,3.4152,3.3367,3.326,3.2752,3.2398,3.2398,3.2398,3.2398,3.2398,3.2398,3.2398,3.2398,3.2398,3.2398,3.2398,3.2398,3.2398,3.2398,3.3059,3.3398,3.3398,3.3306,3.3244,3.3229,3.2659,3.2398,3.2398,3.2398,3.2398,3.2398,3.2398,3.2398,3.2398,3.2398,3.2398,3.2398,3.2398,3.2398,3.2398,3.2398,3.2076,3.168,3.1992,3.1013,2.9721,3.0086,2.9047,2.7596,2.6969,2.6321,2.5643,2.5141,2.5005,2.5005,2.5005,2.5005,2.5118,2.5578,2.6324,2.7004,2.7373,2.8155,2.8771,2.8771,2.8834,2.8873,2.8834,2.8982,2.9075,2.8982,2.9029,2.9075,2.9052,2.8959,2.8873,2.8873,2.8834,2.8747,2.8597,2.8684,2.8708,2.8589,2.8676,2.859,2.8283,2.7769,2.7246,2.6704,2.766,2.7885,2.7388,2.7489,2.7745,2.8137,2.7929,2.8052,2.8438,2.8636,2.866,2.8565,2.8565,2.8453,2.8259,2.8259,2.8259,2.8259,2.8259,2.8323,2.8411,3.6492,3.6492,3.6492,3.6492,3.623,3.5937,3.5568,3.4937,3.4245,3.3506,3.3121,3.2798,3.2428,3.2398,3.2398,3.2398,3.2398,3.2398,3.2398,3.2398,3.2398,3.2398,3.2398,3.2736,3.3519,3.3444,3.3767,3.4522,3.4152,3.3983,3.3967,3.326,3.2936,3.2921,3.2552,3.2398,3.2398,3.2398,3.2398,3.2398,3.2398,3.2398,3.2398,3.2398,3.2398,3.2398,3.2398,3.2216,3.1964,3.1936,3.1305,3.0495,3.0103,2.9186,2.8063,2.7077,2.6129,2.5344,2.5086,2.523,2.5425,2.509,2.523,2.5564,2.5866,2.6496,2.717,2.768,2.8334,2.8842,2.8842,2.8873,2.8904,2.899,2.9052,2.9098,2.9098,2.9098,2.9098,2.9098,2.9052,2.9013,2.9013,2.8912,2.8818,2.8771,2.8803,2.8771,2.8708,2.8771,2.8771,2.8708,2.8317,2.7944,2.762,2.8195,2.8332,2.7984,2.8131,2.8293,2.8517,2.8414,2.8486,2.8708,2.8771,2.8771,2.8708,2.8708,2.8676,2.8604,2.8541,2.8517,2.8493,2.8436,2.8411,2.8396,3.6492,3.6492,3.6492,3.6492,3.6492,3.6322,3.5799,3.5614,3.5121,3.4029,3.3752,3.3383,3.2705,3.2628,3.2567,3.2398,3.2398,3.2398,3.2398,3.2398,3.2398,3.2398,3.2398,3.2906,3.3996,3.3767,3.4183,3.5275,3.4921,3.4736,3.472,3.3983,3.366,3.3629,3.2936,3.2628,3.2613,3.2459,3.2398,3.2398,3.2398,3.2398,3.2398,3.2398,3.2398,3.2398,3.2398,3.2315,3.2132,3.1823,3.1508,3.1087,3.0051,2.9348,2.8642,2.7365,2.6238,2.5342,2.5061,2.5342,2.5619,2.5286,2.5508,2.5921,2.6297,2.6823,2.7373,2.8008,2.8566,2.8943,2.8943,2.8943,2.899,2.9075,2.9098,2.9098,2.9098,2.9098,2.9098,2.9098,2.9098,2.9098,2.9098,2.9013,2.8943,2.8904,2.8881,2.8865,2.8826,2.885,2.8865,2.8826,2.8708,2.8589,2.8444,2.8589,2.8589,2.8444,2.8597,2.8668,2.866,2.8803,2.885,2.8826,2.8865,2.885,2.8826,2.8826,2.8803,2.8794,2.8684,2.866,2.8636,2.8532,2.8493,2.8508,3.6492,3.6492,3.6492,3.6492,3.6492,3.6476,3.643,3.5891,3.5475,3.5367,3.4813,3.415,3.3413,3.3336,3.3075,3.2444,3.2398,3.2398,3.2398,3.2398,3.2398,3.2398,3.2398,3.2444,3.2552,3.3781,3.4474,3.4582,3.5152,3.5444,3.5429,3.4751,3.4428,3.4397,3.3644,3.3336,3.329,3.2659,3.2398,3.2398,3.2398,3.2398,3.2398,3.2398,3.2398,3.2398,3.2398,3.2048,3.1652,3.216,3.1551,3.0571,3.0463,2.9985,2.9189,2.7906,2.7083,2.6334,2.53,2.5033,2.5202,2.5702,2.5674,2.573,2.6498,2.7097,2.7565,2.7864,2.8535,2.9075,2.9075,2.9075,2.9075,2.9098,2.9098,2.9098,2.9098,2.9098,2.9098,2.9098,2.9098,2.9098,2.9098,2.9075,2.9029,2.8904,2.9006,2.9029,2.8897,2.9006,2.9029,2.8897,2.8811,2.8708,2.8589,2.8708,2.8708,2.8589,2.8779,2.8842,2.8794,2.8975,2.9006,2.8897,2.9029,2.9006,2.8881,2.8881,2.8858,2.8794,2.8794,2.8794,2.8771,2.8771,2.8771,2.8771,3.6492,3.6492,3.6492,3.6492,3.6492,3.6492,3.6492,3.6276,3.5953,3.5568,3.529,3.4874,3.4166,3.3805,3.3434,3.3044,3.2727,3.2496,3.2425,3.2398,3.2398,3.2398,3.2398,3.2582,3.3013,3.3666,3.4361,3.5136,3.5473,3.5782,3.6122,3.5414,3.5136,3.5106,3.4383,3.406,3.4073,3.3827,3.3704,3.3704,3.3704,3.3413,3.3013,3.3013,3.2752,3.2398,3.2398,3.2244,3.2076,3.2327,3.2076,3.1545,3.0758,3.0084,2.9241,2.754,2.6881,2.6625,2.6269,2.6375,2.6561,2.6522,2.668,2.6916,2.7148,2.754,2.7938,2.8222,2.8716,2.9098,2.9098,2.9098,2.9098,2.9098,2.9098,2.9098,2.9098,2.9098,2.9098,2.9098,2.9098,2.9098,2.9098,2.9098,2.9075,2.9029,2.9075,2.9075,2.9029,2.9075,2.9075,2.9029,2.8998,2.8897,2.8747,2.8811,2.8811,2.8747,2.8826,2.8897,2.8865,2.9045,2.9075,2.9029,2.9075,2.9075,2.9013,2.9013,2.9006,2.8975,2.8889,2.8865,2.8858,2.8818,2.8794,2.8818,3.6492,3.6492,3.6492,3.6492,3.6492,3.6492,3.6492,3.6492,3.6322,3.5861,3.5799,3.5568,3.4949,3.4543,3.4213,3.3895,3.3346,3.2958,3.2804,3.2548,3.2398,3.2398,3.2398,3.2613,3.3075,3.3651,3.4374,3.5242,3.5749,3.6244,3.6647,3.6106,3.589,3.5859,3.5121,3.4813,3.4813,3.4597,3.4505,3.4505,3.4505,3.4212,3.3737,3.3737,3.3444,3.3072,3.3072,3.3072,3.3072,3.3072,3.3072,3.2834,3.1513,3.0389,2.9248,2.7742,2.7312,2.7338,2.7454,2.7705,2.7805,2.7338,2.7439,2.7655,2.7755,2.8027,2.8271,2.8463,2.8826,2.9098,2.9098,2.9098,2.9098,2.9098,2.9098,2.9098,2.9098,2.9098,2.9098,2.9098,2.9098,2.9098,2.9098,2.9098,2.9098,2.9098,2.9098,2.9098,2.9098,2.9098,2.9209,2.943,2.9453,2.947,2.9555,2.9399,2.9265,2.9178,2.9265,2.9187,2.8967,2.9052,2.9098,2.9098,2.9098,2.9098,2.9098,2.9098,2.9098,2.9075,2.899,2.8967,2.8967,2.8905,2.8897,2.8897,3.6492,3.6492,3.6492,3.6492,3.6492,3.6492,3.6492,3.6492,3.6492,3.6492,3.6492,3.6292,3.5748,3.5716,3.5481,3.4971,3.4313,3.3867,3.3699,3.2894,3.2398,3.2398,3.2398,3.2398,3.2398,3.3781,3.4548,3.4694,3.6042,3.6785,3.7015,3.68,3.6693,3.6662,3.5875,3.5521,3.5475,3.4813,3.452,3.452,3.452,3.452,3.452,3.452,3.4505,3.4505,3.4505,3.4505,3.4505,3.4505,3.4505,3.4258,3.2829,3.1028,2.9314,2.8766,2.8612,2.8636,2.8771,2.8794,2.866,2.8076,2.7715,2.7665,2.8277,2.8455,2.8511,2.8511,2.8826,2.9098,2.9098,2.9098,2.9098,2.9098,2.9098,2.9098,2.9098,2.9098,2.9098,2.9098,2.9098,2.9098,2.9098,2.9098,2.9098,2.9098,2.9098,2.9098,2.9114,2.9114,2.9453,3.0188,3.022,3.0528,3.1198,3.0528,3.0148,3.0003,3.0148,2.9817,2.9114,2.9114,2.9114,2.9098,2.9098,2.9098,2.9098,2.9098,2.9098,2.9098,2.9098,2.9098,2.9098,2.9098,2.9098,2.9098,3.6492,3.6492,3.6492,3.6492,3.6492,3.6492,3.6492,3.6492,3.6523,3.6631,3.6631,3.6615,3.6612,3.628,3.5935,3.5673,3.5133,3.4538,3.3883,3.3609,3.3239,3.2761,3.2621,3.2551,3.2551,3.364,3.441,3.4852,3.5843,3.6576,3.7015,3.6938,3.6908,3.6892,3.6522,3.6322,3.6322,3.603,3.5891,3.5891,3.5891,3.5599,3.5213,3.5213,3.4921,3.4505,3.4505,3.4505,3.4505,3.4505,3.4505,3.4258,3.2829,3.1728,3.0727,2.9627,2.9359,2.9372,2.8967,2.8865,2.8826,2.8654,2.8535,2.8559,2.8842,2.8912,2.892,2.892,2.9029,2.9098,2.9098,2.9098,2.9098,2.9098,2.9098,2.9098,2.9098,2.9098,2.9098,2.9098,2.9098,2.9098,2.9098,2.9098,2.9098,2.9098,2.9098,2.9319,2.9832,2.9864,3.018,3.0891,3.0907,3.1255,3.1975,3.1255,3.0882,3.0833,3.0882,3.0543,2.9864,2.9864,2.9595,2.9098,2.9098,2.9098,2.9098,2.9098,2.9098,2.9098,2.9098,2.9098,2.9098,2.9098,2.9098,2.9098,3.6677,3.6647,3.6616,3.6677,3.6693,3.6693,3.6693,3.6693,3.6724,3.68,3.6831,3.6892,3.7044,3.6789,3.6597,3.6599,3.5969,3.5263,3.446,3.4341,3.3989,3.3318,3.3244,3.3049,3.2718,3.3814,3.4629,3.5039,3.6097,3.6817,3.7211,3.7105,3.7075,3.7075,3.6816,3.6693,3.6693,3.6554,3.6492,3.6492,3.6492,3.6245,3.5891,3.5891,3.563,3.5306,3.5306,3.5306,3.5306,3.5306,3.5151,3.4793,3.3723,3.2815,3.1918,3.0881,3.0239,2.9821,2.9501,2.9194,2.899,2.899,2.899,2.899,2.9075,2.9098,2.9098,2.9098,2.9098,2.9098,2.9098,2.9098,2.9098,2.9098,2.9098,2.9098,2.9098,2.9098,2.9098,2.9098,2.9098,2.9098,2.9098,2.9098,2.9098,2.9098,2.9367,2.9738,3.0188,3.0433,3.0907,3.1602,3.1634,3.1966,3.2703,3.225,3.1902,3.1634,3.1634,3.127,3.0575,3.033,2.9959,2.9532,2.9225,2.9098,2.9098,2.9098,2.9098,2.9098,2.9098,2.9098,2.9098,2.9098,2.9098,2.9098,3.6938,3.6862,3.6785,3.6969,3.7015,3.7015,3.7015,3.7015,3.6999,3.7015,3.703,3.7075,3.7224,3.7224,3.73,3.748,3.6776,3.6027,3.5338,3.5133,3.4748,3.406,3.4105,3.3775,3.3045,3.4204,3.4945,3.5103,3.6407,3.7172,3.7415,3.7205,3.7161,3.7224,3.6892,3.6739,3.6754,3.6616,3.6554,3.6554,3.6554,3.6554,3.6554,3.6554,3.6554,3.6554,3.6554,3.6554,3.6554,3.6554,3.6229,3.57,3.5163,3.4173,3.3056,3.2405,3.13,3.0288,3.0282,2.9753,2.9193,2.9193,2.9146,2.9098,2.9098,2.9098,2.9098,2.9098,2.9098,2.9098,2.9098,2.9098,2.9098,2.9098,2.9098,2.9098,2.9098,2.9098,2.9098,2.9098,2.9098,2.913,2.9193,2.9256,2.9288,2.9288,2.9911,3.033,3.0378,3.097,3.1634,3.237,3.2386,3.2687,3.3293,3.3309,3.2977,3.2386,3.2386,3.2023,3.1286,3.0591,3.0267,3.0157,2.9414,2.9098,2.9098,2.9098,2.9098,2.9098,2.9098,2.9098,2.9098,2.9098,2.9098,2.9098,3.6984,3.6969,3.6938,3.6984,3.7015,3.7015,3.7015,3.7015,3.703,3.7134,3.718,3.724,3.7405,3.7435,3.7435,3.751,3.7338,3.6914,3.619,3.6114,3.577,3.5105,3.4549,3.4171,3.4002,3.4285,3.4443,3.4514,3.5354,3.6077,3.6658,3.6585,3.6868,3.7435,3.7194,3.7104,3.7074,3.6953,3.6877,3.6877,3.6877,3.6877,3.6877,3.6877,3.6877,3.6877,3.6877,3.6877,3.6877,3.6877,3.6799,3.6596,3.597,3.562,3.5156,3.341,3.2736,3.2341,3.1261,3.048,2.9959,2.9959,2.9532,2.9098,2.9098,2.9098,2.9098,2.9098,2.9098,2.9098,2.9098,2.9098,2.9098,2.9098,2.9098,2.9098,2.9098,2.9098,2.9098,2.9098,2.9098,2.9319,2.9896,3.0449,3.074,3.074,3.0882,3.1239,3.1817,3.1991,3.2386,3.3056,3.3072,3.3151,3.3309,3.3309,3.323,3.3072,3.3072,3.2708,3.2038,3.1318,3.0701,3.0157,2.9414,2.9098,2.9098,2.9098,2.9098,2.9098,2.9098,2.9098,2.9098,2.9098,2.9098,2.9098,3.7211,3.7165,3.7135,3.7211,3.7241,3.7241,3.7241,3.7241,3.7271,3.7329,3.7329,3.7375,3.748,3.751,3.751,3.751,3.751,3.7322,3.6959,3.6927,3.6611,3.5916,3.5521,3.4984,3.4304,3.4288,3.4288,3.4288,3.5031,3.5742,3.6393,3.6393,3.6801,3.748,3.73,3.7194,3.7194,3.706,3.7015,3.7015,3.7015,3.7015,3.7015,3.7015,3.7015,3.7015,3.7015,3.7015,3.6999,3.7075,3.7105,3.7042,3.6787,3.6531,3.6072,3.4986,3.4265,3.3546,3.2503,3.1697,3.1121,3.0749,3.0401,2.9935,2.9256,2.9098,2.9098,2.9098,2.9098,2.9098,2.9098,2.9098,2.9098,2.9098,2.9098,2.9225,2.958,2.9627,2.9753,3.0061,3.0093,3.0235,3.0638,3.1002,3.1198,3.1198,3.1523,3.1896,3.2276,3.2608,3.2929,3.3293,3.3309,3.3309,3.3309,3.3309,3.3309,3.3309,3.3309,3.3119,3.2724,3.1681,3.1018,3.0622,2.9556,2.9098,2.9098,2.9098,2.9098,2.9098,2.9098,2.9098,2.9098,2.9098,2.9098,2.9098,3.745,3.7359,3.73,3.748,3.751,3.751,3.751,3.751,3.751,3.751,3.751,3.751,3.751,3.751,3.751,3.751,3.751,3.751,3.751,3.751,3.7227,3.6598,3.6456,3.584,3.4683,3.4541,3.4367,3.4115,3.4731,3.5458,3.6219,3.6093,3.6564,3.7494,3.7203,3.7144,3.7254,3.7135,3.7106,3.7106,3.7106,3.7106,3.7106,3.7106,3.7106,3.7106,3.7106,3.7106,3.709,3.721,3.7254,3.7284,3.7435,3.7069,3.655,3.644,3.5584,3.451,3.3846,3.3072,3.2355,3.1855,3.1451,3.0914,2.9872,2.9461,2.9288,2.9288,2.9193,2.9146,2.9256,2.9288,2.9319,2.9446,2.9461,2.9667,3.0275,3.0354,3.0575,3.1119,3.1318,3.1397,3.1397,3.1507,3.1546,3.1546,3.2124,3.2465,3.2465,3.2993,3.3309,3.3309,3.3309,3.3309,3.3309,3.3309,3.3309,3.3309,3.3309,3.3309,3.3261,3.1981,3.1334,3.1119,2.984,2.9209,2.9098,2.9098,2.9098,2.9098,2.9098,2.9098,2.9098,2.9098,2.9098,2.9098,3.748,3.748,3.748,3.751,3.751,3.751,3.751,3.751,3.751,3.751,3.751,3.751,3.751,3.751,3.751,3.751,3.751,3.751,3.751,3.751,3.7462,3.7368,3.6753,3.6298,3.6108,3.5552,3.4652,3.3435,3.3546,3.4257,3.5521,3.4873,3.5616,3.7478,3.6803,3.6866,3.7464,3.745,3.7421,3.7421,3.7421,3.7421,3.7421,3.7421,3.7421,3.7421,3.7421,3.7421,3.745,3.7435,3.7464,3.7464,3.748,3.7447,3.7227,3.6582,3.6266,3.5966,3.53,3.4162,3.3277,3.3751,3.2534,3.1334,3.177,3.0931,3.0038,3.0038,2.9548,2.9288,2.9927,3.0038,3.0227,3.0803,3.0914,3.0946,3.1065,3.1065,3.1112,3.1182,3.176,3.2149,3.2149,3.2677,3.3024,3.3024,3.3119,3.3166,3.3166,3.3245,3.3309,3.3309,3.3309,3.3309,3.3309,3.3309,3.3309,3.3309,3.3309,3.3309,3.3277,3.2513,3.1792,3.1151,3.0385,2.969,2.9098,2.9098,2.9098,2.9098,2.9098,2.9098,2.9098,2.9098,2.9098,2.9098,3.751,3.751,3.751,3.751,3.751,3.751,3.751,3.751,3.751,3.751,3.751,3.751,3.751,3.751,3.751,3.751,3.751,3.751,3.751,3.751,3.751,3.751,3.718,3.6832,3.6408,3.6093,3.5473,3.4462,3.4051,3.4178,3.4778,3.4446,3.5221,3.688,3.6535,3.6817,3.751,3.751,3.751,3.751,3.751,3.751,3.751,3.751,3.751,3.751,3.751,3.751,3.751,3.751,3.751,3.751,3.751,3.751,3.7447,3.7101,3.7006,3.6785,3.5679,3.4936,3.4352,3.3862,3.3056,3.2455,3.2771,3.2102,3.1263,3.0844,3.0512,3.0361,3.0701,3.0765,3.086,3.1135,3.1198,3.1349,3.1744,3.1808,3.195,3.2329,3.2661,3.285,3.285,3.3119,3.3309,3.3309,3.3309,3.3309,3.3309,3.3309,3.3309,3.3309,3.3309,3.3309,3.3309,3.3309,3.3309,3.3309,3.3309,3.3309,3.3277,3.2608,3.2117,3.1744,3.0678,3.003,2.969,2.9272,2.9098,2.9098,2.9098,2.9098,2.9098,2.9098,2.9098,2.9098]}]]